| time (UTC) | temp F | wind direction | speed knots | gust knots | rain 1hr in | rain 24hr in | rain mn in | humidity % | barometer mb |
| 20260906223902 | 98 | 157 | 5.2 | 12.2 | 0.00 | 0.00 | 0.00 | 42 | 1011.4 |
| 20260906223843 | 98 | 116 | 6.1 | 12.2 | 0.00 | 0.00 | 0.00 | 42 | 1011.4 |
| 20260906223804 | 98 | 152 | 5.2 | 12.2 | 0.00 | 0.00 | 0.00 | 42 | 1011.5 |
| 20260906223702 | 98 | 138 | 5.2 | 12.2 | 0.00 | 0.00 | 0.00 | 42 | 1011.5 |
| 20260906223603 | 98 | 133 | 6.1 | 12.2 | 0.00 | 0.00 | 0.00 | 41 | 1011.5 |
| 20260906223504 | 99 | 100 | 7.0 | 12.2 | 0.00 | 0.00 | 0.00 | 42 | 1011.5 |
| 20260906223403 | 99 | 93 | 5.2 | 8.7 | 0.00 | 0.00 | 0.00 | 41 | 1011.5 |
| 20260906223342 | 99 | 131 | 4.3 | 7.8 | 0.00 | 0.00 | 0.00 | 41 | 1011.5 |
| 20260906223303 | 99 | 147 | 4.3 | 7.8 | 0.00 | 0.00 | 0.00 | 42 | 1011.5 |
| 20260906223204 | 99 | 217 | 3.5 | 7.8 | 0.00 | 0.00 | 0.00 | 41 | 1011.4 |
| 20260906223102 | 99 | 145 | 4.3 | 7.8 | 0.00 | 0.00 | 0.00 | 42 | 1011.4 |
| 20260906223005 | 99 | 154 | 4.3 | 7.8 | 0.00 | 0.00 | 0.00 | 41 | 1011.3 |
| 20260906222902 | 99 | 131 | 4.3 | 7.8 | 0.00 | 0.00 | 0.00 | 41 | 1011.4 |
| 20260906222841 | 99 | 154 | 4.3 | 7.8 | 0.00 | 0.00 | 0.00 | 41 | 1011.4 |
| 20260906222803 | 99 | 171 | 3.5 | 7.8 | 0.00 | 0.00 | 0.00 | 41 | 1011.4 |
| 20260906222658 | 99 | 123 | 2.6 | 7.8 | 0.00 | 0.00 | 0.00 | 42 | 1011.5 |
| 20260906222553 | 99 | 78 | 3.5 | 7.8 | 0.00 | 0.00 | 0.00 | 42 | 1011.5 |
| 20260906222451 | 99 | 140 | 4.3 | 7.8 | 0.00 | 0.00 | 0.00 | 42 | 1011.5 |
| 20260906222351 | 99 | 131 | 4.3 | 7.8 | 0.00 | 0.00 | 0.00 | 42 | 1011.6 |
| 20260906222340 | 99 | 128 | 4.3 | 7.8 | 0.00 | 0.00 | 0.00 | 42 | 1011.6 |
| 20260906222259 | 99 | 147 | 4.3 | 7.8 | 0.00 | 0.00 | 0.00 | 41 | 1011.5 |
| 20260906222253 | 99 | 147 | 4.3 | 7.8 | 0.00 | 0.00 | 0.00 | 42 | 1011.6 |
| 20260906222223 | 99 | 104 | 4.3 | 7.8 | 0.00 | 0.00 | 0.00 | 42 | 1011.5 |
| 20260906222152 | 99 | 161 | 5.2 | 7.8 | 0.00 | 0.00 | 0.00 | 42 | 1011.5 |
| 20260906222120 | 99 | 141 | 5.2 | 7.8 | 0.00 | 0.00 | 0.00 | 41 | 1011.5 |
| 20260906222050 | 99 | 147 | 4.3 | 7.8 | 0.00 | 0.00 | 0.00 | 41 | 1011.5 |
| 20260906221740 | 99 | 135 | 4.3 | 7.8 | 0.00 | 0.00 | 0.00 | 42 | 1011.5 |
| 20260906221641 | 99 | 140 | 5.2 | 7.8 | 0.00 | 0.00 | 0.00 | 42 | 1011.5 |
| 20260906221539 | 99 | 135 | 4.3 | 9.6 | 0.00 | 0.00 | 0.00 | 42 | 1011.6 |
| 20260906221440 | 99 | 127 | 3.5 | 10.4 | 0.00 | 0.00 | 0.00 | 43 | 1011.5 |
| 20260906221340 | 99 | 125 | 3.5 | 10.4 | 0.00 | 0.00 | 0.00 | 42 | 1011.5 |
| 20260906221233 | 99 | 175 | 4.3 | 10.4 | 0.00 | 0.00 | 0.00 | 42 | 1011.4 |
| 20260906221132 | 99 | 124 | 3.5 | 10.4 | 0.00 | 0.00 | 0.00 | 43 | 1011.5 |
| 20260906221031 | 99 | 171 | 3.5 | 10.4 | 0.00 | 0.00 | 0.00 | 43 | 1011.5 |
| 20260906220933 | 98 | 142 | 3.5 | 10.4 | 0.00 | 0.00 | 0.00 | 43 | 1011.5 |
| 20260906220840 | 98 | 118 | 4.3 | 10.4 | 0.00 | 0.00 | 0.00 | 43 | 1011.5 |
| 20260906220832 | 98 | 145 | 4.3 | 10.4 | 0.00 | 0.00 | 0.00 | 43 | 1011.4 |
| 20260906220732 | 98 | 93 | 6.1 | 10.4 | 0.00 | 0.00 | 0.00 | 43 | 1011.5 |
| 20260906220632 | 98 | 102 | 7.0 | 10.4 | 0.00 | 0.00 | 0.00 | 43 | 1011.5 |
| 20260906220533 | 98 | 131 | 7.0 | 10.4 | 0.00 | 0.00 | 0.00 | 43 | 1011.4 |
| 20260906220433 | 99 | 130 | 7.8 | 9.6 | 0.00 | 0.00 | 0.00 | 42 | 1011.4 |
| 20260906220340 | 99 | 144 | 7.0 | 9.6 | 0.00 | 0.00 | 0.00 | 42 | 1011.4 |
| 20260906220331 | 99 | 135 | 7.0 | 9.6 | 0.00 | 0.00 | 0.00 | 42 | 1011.4 |
| 20260906220231 | 99 | 135 | 5.2 | 9.6 | 0.00 | 0.00 | 0.00 | 42 | 1011.4 |
| 20260906220131 | 99 | 137 | 4.3 | 8.7 | 0.00 | 0.00 | 0.00 | 42 | 1011.4 |
| 20260906220032 | 99 | 125 | 4.3 | 7.8 | 0.00 | 0.00 | 0.00 | 43 | 1011.4 |
| 20260906215932 | 99 | 145 | 3.5 | 7.8 | 0.00 | 0.00 | 0.00 | 42 | 1011.4 |
| 20260906215839 | 99 | 137 | 3.5 | 7.8 | 0.00 | 0.00 | 0.00 | 42 | 1011.4 |
| 20260906215830 | 99 | 147 | 3.5 | 7.8 | 0.00 | 0.00 | 0.00 | 42 | 1011.4 |
| 20260906215751 | 98 | 185 | 4.3 | 7.8 | 0.00 | 0.00 | 0.00 | 43 | 1011.4 |
| 20260906215739 | 99 | 142 | 4.3 | 7.8 | 0.00 | 0.00 | 0.00 | 42 | 1011.4 |
| 20260906215708 | 99 | 166 | 4.3 | 7.8 | 0.00 | 0.00 | 0.00 | 42 | 1011.4 |
| 20260906215638 | 98 | 152 | 5.2 | 7.8 | 0.00 | 0.00 | 0.00 | 44 | 1011.5 |
| 20260906215609 | 98 | 168 | 5.2 | 7.8 | 0.00 | 0.00 | 0.00 | 43 | 1011.4 |
| 20260906215325 | 98 | 140 | 3.5 | 7.8 | 0.00 | 0.00 | 0.00 | 43 | 1011.4 |
| 20260906215222 | 98 | 189 | 3.5 | 7.8 | 0.00 | 0.00 | 0.00 | 43 | 1011.4 |
| 20260906215122 | 98 | 202 | 3.5 | 7.8 | 0.00 | 0.00 | 0.00 | 42 | 1011.4 |
| 20260906215019 | 98 | 113 | 1.7 | 7.8 | 0.00 | 0.00 | 0.00 | 44 | 1011.4 |
| 20260906214908 | 98 | 202 | 2.6 | 7.8 | 0.00 | 0.00 | 0.00 | 42 | 1011.5 |
| 20260906214838 | 98 | 200 | 3.5 | 7.8 | 0.00 | 0.00 | 0.00 | 43 | 1011.5 |
| 20260906214806 | 99 | 180 | 3.5 | 8.7 | 0.00 | 0.00 | 0.00 | 43 | 1011.5 |
| 20260906214705 | 99 | 197 | 3.5 | 8.7 | 0.00 | 0.00 | 0.00 | 43 | 1011.5 |
| 20260906214606 | 99 | 127 | 4.3 | 8.7 | 0.00 | 0.00 | 0.00 | 41 | 1011.5 |
| 20260906214501 | 99 | 158 | 4.3 | 8.7 | 0.00 | 0.00 | 0.00 | 43 | 1011.5 |
| 20260906214400 | 99 | 168 | 3.5 | 9.6 | 0.00 | 0.00 | 0.00 | 43 | 1011.5 |
| 20260906214330 | 99 | 149 | 3.5 | 9.6 | 0.00 | 0.00 | 0.00 | 41 | 1011.5 |
| 20260906214300 | 100 | 147 | 3.5 | 9.6 | 0.00 | 0.00 | 0.00 | 41 | 1011.5 |
| 20260906214157 | 100 | 192 | 3.5 | 9.6 | 0.00 | 0.00 | 0.00 | 42 | 1011.5 |
| 20260906214144 | 99 | 178 | 3.5 | 9.6 | 0.00 | 0.00 | 0.00 | 42 | 1011.5 |
| 20260906214121 | 100 | 141 | 3.5 | 9.6 | 0.00 | 0.00 | 0.00 | 43 | 1011.5 |
| 20260906214053 | 100 | 123 | 4.3 | 9.6 | 0.00 | 0.00 | 0.00 | 42 | 1011.5 |
| 20260906214021 | 99 | 90 | 4.3 | 9.6 | 0.00 | 0.00 | 0.00 | 42 | 1011.5 |
| 20260906214011 | 99 | 102 | 4.3 | 9.6 | 0.00 | 0.00 | 0.00 | 43 | 1011.5 |
| 20260906213951 | 99 | 137 | 3.5 | 9.6 | 0.00 | 0.00 | 0.00 | 43 | 1011.5 |
| 20260906213712 | 99 | 104 | 4.3 | 9.6 | 0.00 | 0.00 | 0.00 | 44 | 1011.5 |
| 20260906213642 | 98 | 151 | 5.2 | 9.6 | 0.00 | 0.00 | 0.00 | 43 | 1011.5 |
| 20260906213614 | 98 | 180 | 4.3 | 9.6 | 0.00 | 0.00 | 0.00 | 42 | 1011.5 |
| 20260906213544 | 99 | 166 | 3.5 | 8.7 | 0.00 | 0.00 | 0.00 | 42 | 1011.5 |
| 20260906213241 | 99 | 159 | 3.5 | 10.4 | 0.00 | 0.00 | 0.00 | 44 | 1011.5 |
| 20260906213140 | 98 | 145 | 3.5 | 10.4 | 0.00 | 0.00 | 0.00 | 43 | 1011.5 |
| 20260906213040 | 98 | 140 | 3.5 | 10.4 | 0.00 | 0.00 | 0.00 | 43 | 1011.6 |
| 20260906212936 | 98 | 134 | 4.3 | 12.2 | 0.00 | 0.00 | 0.00 | 43 | 1011.6 |
| 20260906212838 | 98 | 140 | 5.2 | 12.2 | 0.00 | 0.00 | 0.00 | 42 | 1011.6 |
| 20260906212831 | 98 | 140 | 5.2 | 12.2 | 0.00 | 0.00 | 0.00 | 42 | 1011.6 |
| 20260906212734 | 99 | 158 | 5.2 | 12.2 | 0.00 | 0.00 | 0.00 | 42 | 1011.6 |
| 20260906212632 | 98 | 124 | 5.2 | 12.2 | 0.00 | 0.00 | 0.00 | 42 | 1011.7 |
| 20260906212533 | 99 | 149 | 6.1 | 12.2 | 0.00 | 0.00 | 0.00 | 43 | 1011.7 |
| 20260906212433 | 99 | 130 | 6.1 | 12.2 | 0.00 | 0.00 | 0.00 | 42 | 1011.8 |
| 20260906212334 | 99 | 157 | 5.2 | 12.2 | 0.00 | 0.00 | 0.00 | 42 | 1011.8 |
| 20260906212234 | 99 | 123 | 4.3 | 12.2 | 0.00 | 0.00 | 0.00 | 42 | 1011.8 |
| 20260906212132 | 99 | 141 | 6.1 | 12.2 | 0.00 | 0.00 | 0.00 | 43 | 1011.9 |
| 20260906212033 | 99 | 135 | 6.1 | 12.2 | 0.00 | 0.00 | 0.00 | 42 | 1011.9 |
| 20260906211934 | 100 | 116 | 3.5 | 8.7 | 0.00 | 0.00 | 0.00 | 43 | 1011.8 |
| 20260906211832 | 100 | 168 | 2.6 | 7.8 | 0.00 | 0.00 | 0.00 | 42 | 1011.8 |
| 20260906211748 | 99 | 131 | 4.3 | 7.8 | 0.00 | 0.00 | 0.00 | 43 | 1011.9 |
| 20260906211738 | 100 | 140 | 2.6 | 7.8 | 0.00 | 0.00 | 0.00 | 42 | 1011.9 |
| 20260906211709 | 99 | 103 | 2.6 | 7.8 | 0.00 | 0.00 | 0.00 | 42 | 1011.9 |
| 20260906211642 | 100 | 158 | 3.5 | 7.8 | 0.00 | 0.00 | 0.00 | 42 | 1011.9 |
| 20260906211613 | 100 | 137 | 4.3 | 7.8 | 0.00 | 0.00 | 0.00 | 44 | 1011.9 |
| 20260906211542 | 99 | 131 | 4.3 | 7.8 | 0.00 | 0.00 | 0.00 | 43 | 1011.9 |
| 20260906211242 | 99 | 169 | 1.7 | 11.3 | 0.00 | 0.00 | 0.00 | 44 | 1012.0 |
| 20260906211234 | 99 | 134 | 4.3 | 10.4 | 0.00 | 0.00 | 0.00 | 43 | 1011.9 |
| 20260906211205 | 99 | 135 | 4.3 | 10.4 | 0.00 | 0.00 | 0.00 | 42 | 1011.9 |
| 20260906211135 | 99 | 179 | 4.3 | 10.4 | 0.00 | 0.00 | 0.00 | 42 | 1012.0 |
| 20260906211106 | 99 | 141 | 3.5 | 11.3 | 0.00 | 0.00 | 0.00 | 42 | 1012.0 |
| 20260906210829 | 99 | 183 | 1.7 | 11.3 | 0.00 | 0.00 | 0.00 | 44 | 1012.0 |
| 20260906210725 | 98 | 130 | 3.5 | 11.3 | 0.00 | 0.00 | 0.00 | 43 | 1012.0 |
| 20260906210624 | 98 | 97 | 5.2 | 11.3 | 0.00 | 0.00 | 0.00 | 42 | 1012.0 |
| 20260906210522 | 99 | 99 | 5.2 | 11.3 | 0.00 | 0.00 | 0.00 | 43 | 1012.1 |
| 20260906210415 | 98 | 172 | 5.2 | 11.3 | 0.00 | 0.00 | 0.00 | 43 | 1012.0 |
| 20260906210331 | 98 | 128 | 5.2 | 11.3 | 0.00 | 0.00 | 0.00 | 43 | 1012.1 |
| 20260906210312 | 98 | 166 | 6.1 | 11.3 | 0.00 | 0.00 | 0.00 | 44 | 1012.1 |
| 20260906210211 | 98 | 144 | 6.1 | 11.3 | 0.00 | 0.00 | 0.00 | 43 | 1012.1 |
| 20260906210111 | 98 | 159 | 7.0 | 11.3 | 0.00 | 0.00 | 0.00 | 43 | 1012.1 |
| 20260906210010 | 98 | 161 | 7.0 | 11.3 | 0.00 | 0.00 | 0.00 | 43 | 1012.1 |
| 20260906205907 | 99 | 164 | 5.2 | 11.3 | 0.00 | 0.00 | 0.00 | 42 | 1012.1 |
| 20260906205832 | 99 | 159 | 5.2 | 11.3 | 0.00 | 0.00 | 0.00 | 43 | 1012.1 |
| 20260906205805 | 99 | 162 | 5.2 | 11.3 | 0.00 | 0.00 | 0.00 | 43 | 1012.1 |
| 20260906205705 | 99 | 141 | 6.1 | 11.3 | 0.00 | 0.00 | 0.00 | 42 | 1012.1 |
| 20260906205605 | 99 | 130 | 6.1 | 11.3 | 0.00 | 0.00 | 0.00 | 42 | 1012.2 |
| 20260906205504 | 99 | 145 | 6.1 | 11.3 | 0.00 | 0.00 | 0.00 | 43 | 1012.1 |
| 20260906205404 | 99 | 168 | 5.2 | 8.7 | 0.00 | 0.00 | 0.00 | 42 | 1012.2 |
| 20260906205332 | 99 | 123 | 5.2 | 10.4 | 0.00 | 0.00 | 0.00 | 44 | 1012.2 |
| 20260906205306 | 99 | 165 | 4.3 | 10.4 | 0.00 | 0.00 | 0.00 | 44 | 1012.2 |
| 20260906205205 | 99 | 157 | 3.5 | 10.4 | 0.00 | 0.00 | 0.00 | 42 | 1012.1 |
| 20260906205105 | 99 | 93 | 3.5 | 10.4 | 0.00 | 0.00 | 0.00 | 42 | 1012.2 |
| 20260906205006 | 99 | 147 | 3.5 | 10.4 | 0.00 | 0.00 | 0.00 | 42 | 1012.2 |
| 20260906204903 | 99 | 142 | 4.3 | 10.4 | 0.00 | 0.00 | 0.00 | 42 | 1012.3 |
| 20260906204832 | 99 | 157 | 3.5 | 10.4 | 0.00 | 0.00 | 0.00 | 42 | 1012.4 |
| 20260906204803 | 99 | 137 | 4.3 | 10.4 | 0.00 | 0.00 | 0.00 | 43 | 1012.4 |
| 20260906204702 | 99 | 155 | 4.3 | 10.4 | 0.00 | 0.00 | 0.00 | 42 | 1012.3 |
| 20260906204604 | 99 | 127 | 6.1 | 10.4 | 0.00 | 0.00 | 0.00 | 42 | 1012.3 |
| 20260906204504 | 99 | 142 | 6.1 | 10.4 | 0.00 | 0.00 | 0.00 | 43 | 1012.3 |
| 20260906204403 | 99 | 117 | 6.1 | 10.4 | 0.00 | 0.00 | 0.00 | 43 | 1012.3 |
| 20260906204329 | 99 | 155 | 6.1 | 10.4 | 0.00 | 0.00 | 0.00 | 44 | 1012.3 |
| 20260906204303 | 98 | 151 | 7.0 | 10.4 | 0.00 | 0.00 | 0.00 | 44 | 1012.3 |
| 20260906204202 | 98 | 128 | 6.1 | 11.3 | 0.00 | 0.00 | 0.00 | 43 | 1012.4 |
| 20260906204102 | 98 | 159 | 4.3 | 11.3 | 0.00 | 0.00 | 0.00 | 44 | 1012.4 |
| 20260906204002 | 98 | 190 | 4.3 | 11.3 | 0.00 | 0.00 | 0.00 | 43 | 1012.4 |
| 20260906203903 | 99 | 183 | 4.3 | 11.3 | 0.00 | 0.00 | 0.00 | 42 | 1012.4 |
| 20260906203829 | 99 | 185 | 4.3 | 11.3 | 0.00 | 0.00 | 0.00 | 43 | 1012.4 |
| 20260906203805 | 99 | 161 | 5.2 | 11.3 | 0.00 | 0.00 | 0.00 | 43 | 1012.4 |
| 20260906203703 | 99 | 159 | 7.0 | 11.3 | 0.00 | 0.00 | 0.00 | 42 | 1012.4 |
| 20260906203602 | 99 | 118 | 7.0 | 11.3 | 0.00 | 0.00 | 0.00 | 42 | 1012.4 |
| 20260906203503 | 99 | 127 | 7.8 | 11.3 | 0.00 | 0.00 | 0.00 | 42 | 1012.4 |
| 20260906203402 | 99 | 178 | 6.1 | 11.3 | 0.00 | 0.00 | 0.00 | 42 | 1012.4 |
| 20260906203327 | 99 | 106 | 5.2 | 11.3 | 0.00 | 0.00 | 0.00 | 42 | 1012.5 |
| 20260906203303 | 99 | 121 | 4.3 | 11.3 | 0.00 | 0.00 | 0.00 | 42 | 1012.5 |
| 20260906203203 | 99 | 151 | 2.6 | 8.7 | 0.00 | 0.00 | 0.00 | 42 | 1012.4 |
| 20260906203103 | 99 | 144 | 2.6 | 10.4 | 0.00 | 0.00 | 0.00 | 43 | 1012.4 |
| 20260906203002 | 99 | 141 | 3.5 | 10.4 | 0.00 | 0.00 | 0.00 | 43 | 1012.5 |
| 20260906202903 | 99 | 134 | 3.5 | 10.4 | 0.00 | 0.00 | 0.00 | 43 | 1012.5 |
| 20260906202822 | 99 | 179 | 3.5 | 10.4 | 0.00 | 0.00 | 0.00 | 42 | 1012.5 |
| 20260906202803 | 99 | 199 | 3.5 | 10.4 | 0.00 | 0.00 | 0.00 | 42 | 1012.5 |
| 20260906202704 | 99 | 199 | 3.5 | 10.4 | 0.00 | 0.00 | 0.00 | 42 | 1012.5 |
| 20260906202602 | 99 | 179 | 4.3 | 10.4 | 0.00 | 0.00 | 0.00 | 41 | 1012.5 |
| 20260906202503 | 99 | 144 | 6.1 | 10.4 | 0.00 | 0.00 | 0.00 | 42 | 1012.5 |
| 20260906202404 | 100 | 151 | 6.1 | 10.4 | 0.00 | 0.00 | 0.00 | 42 | 1012.6 |
| 20260906202306 | 100 | 123 | 7.0 | 10.4 | 0.00 | 0.00 | 0.00 | 42 | 1012.5 |
| 20260906202203 | 100 | 137 | 7.0 | 10.4 | 0.00 | 0.00 | 0.00 | 42 | 1012.6 |
| 20260906202100 | 100 | 124 | 5.2 | 10.4 | 0.00 | 0.00 | 0.00 | 42 | 1012.6 |
| 20260906202001 | 100 | 114 | 6.1 | 10.4 | 0.00 | 0.00 | 0.00 | 43 | 1012.6 |
| 20260906201858 | 100 | 140 | 5.2 | 10.4 | 0.00 | 0.00 | 0.00 | 43 | 1012.6 |
| 20260906201806 | 100 | 127 | 3.5 | 10.4 | 0.00 | 0.00 | 0.00 | 43 | 1012.6 |
| 20260906201750 | 99 | 94 | 3.5 | 10.4 | 0.00 | 0.00 | 0.00 | 43 | 1012.6 |
| 20260906201649 | 99 | 121 | 2.6 | 10.4 | 0.00 | 0.00 | 0.00 | 44 | 1012.6 |
| 20260906201550 | 98 | 130 | 1.7 | 10.4 | 0.00 | 0.00 | 0.00 | 44 | 1012.6 |
| 20260906201446 | 98 | 130 | 3.5 | 10.4 | 0.00 | 0.00 | 0.00 | 45 | 1012.6 |
| 20260906201419 | 99 | 145 | 4.3 | 10.4 | 0.00 | 0.00 | 0.00 | 44 | 1012.9 |
| 20260906201410 | 98 | 140 | 7.0 | 10.4 | 0.00 | 0.00 | 0.00 | 45 | 1012.8 |
| 20260906201403 | 98 | 130 | 4.3 | 9.6 | 0.00 | 0.00 | 0.00 | 46 | 1012.7 |
| 20260906201351 | 98 | 93 | 5.2 | 11.3 | 0.00 | 0.00 | 0.00 | 44 | 1012.6 |
| 20260906201330 | 98 | 149 | 6.1 | 11.3 | 0.00 | 0.00 | 0.00 | 44 | 1012.6 |
| 20260906201315 | 98 | 176 | 6.1 | 11.3 | 0.00 | 0.00 | 0.00 | 43 | 1012.6 |
| 20260906201246 | 98 | 138 | 5.2 | 11.3 | 0.00 | 0.00 | 0.00 | 45 | 1012.7 |
| 20260906201217 | 98 | 180 | 4.3 | 11.3 | 0.00 | 0.00 | 0.00 | 46 | 1012.7 |
| 20260906200942 | 98 | 35 | 4.3 | 11.3 | 0.00 | 0.00 | 0.00 | 44 | 1012.7 |
| 20260906200914 | 99 | 141 | 4.3 | 11.3 | 0.00 | 0.00 | 0.00 | 44 | 1012.8 |
| 20260906200857 | 99 | 123 | 5.2 | 11.3 | 0.00 | 0.00 | 0.00 | 44 | 1012.7 |
| 20260906200842 | 99 | 120 | 5.2 | 11.3 | 0.00 | 0.00 | 0.00 | 43 | 1012.7 |
| 20260906200817 | 99 | 130 | 6.1 | 11.3 | 0.00 | 0.00 | 0.00 | 45 | 1012.7 |
| 20260906200742 | 99 | 128 | 6.1 | 11.3 | 0.00 | 0.00 | 0.00 | 44 | 1012.7 |
| 20260906200710 | 99 | 154 | 6.1 | 11.3 | 0.00 | 0.00 | 0.00 | 44 | 1012.7 |
| 20260906200641 | 98 | 152 | 5.2 | 8.7 | 0.00 | 0.00 | 0.00 | 46 | 1012.7 |
| 20260906200403 | 98 | 164 | 3.5 | 9.6 | 0.00 | 0.00 | 0.00 | 46 | 1012.7 |
| 20260906200339 | 98 | 138 | 3.5 | 10.4 | 0.00 | 0.00 | 0.00 | 46 | 1012.7 |
| 20260906200309 | 98 | 117 | 3.5 | 10.4 | 0.00 | 0.00 | 0.00 | 45 | 1012.8 |
| 20260906200244 | 98 | 158 | 3.5 | 10.4 | 0.00 | 0.00 | 0.00 | 45 | 1012.8 |
| 20260906200212 | 98 | 134 | 4.3 | 10.4 | 0.00 | 0.00 | 0.00 | 45 | 1012.9 |
| 20260906195936 | 99 | 172 | 4.3 | 10.4 | 0.00 | 0.00 | 0.00 | 46 | 1012.9 |
| 20260906195658 | 98 | 127 | 4.3 | 10.4 | 0.00 | 0.00 | 0.00 | 45 | 1012.9 |
| 20260906195628 | 98 | 121 | 5.2 | 10.4 | 0.00 | 0.00 | 0.00 | 45 | 1012.9 |
| 20260906195600 | 98 | 127 | 5.2 | 10.4 | 0.00 | 0.00 | 0.00 | 46 | 1012.9 |
| 20260906195528 | 98 | 118 | 7.0 | 10.4 | 0.00 | 0.00 | 0.00 | 45 | 1012.9 |
| 20260906195237 | 98 | 125 | 7.8 | 10.4 | 0.00 | 0.00 | 0.00 | 45 | 1012.8 |
| 20260906195138 | 98 | 133 | 6.1 | 10.4 | 0.00 | 0.00 | 0.00 | 46 | 1012.8 |
| 20260906195036 | 98 | 110 | 5.2 | 11.3 | 0.00 | 0.00 | 0.00 | 46 | 1012.9 |
| 20260906194938 | 98 | 169 | 5.2 | 11.3 | 0.00 | 0.00 | 0.00 | 46 | 1012.9 |
| 20260906194836 | 98 | 134 | 4.3 | 11.3 | 0.00 | 0.00 | 0.00 | 47 | 1013.0 |
| 20260906194807 | 97 | 106 | 2.6 | 11.3 | 0.00 | 0.00 | 0.00 | 48 | 1013.0 |
| 20260906194737 | 97 | 107 | 1.7 | 11.3 | 0.00 | 0.00 | 0.00 | 48 | 1013.0 |
| 20260906194712 | 97 | 130 | 6.1 | 11.3 | 0.00 | 0.00 | 0.00 | 46 | 1013.0 |
| 20260906194653 | 97 | 104 | 0.9 | 11.3 | 0.00 | 0.00 | 0.00 | 48 | 1012.9 |
| 20260906194622 | 96 | 111 | 2.6 | 11.3 | 0.00 | 0.00 | 0.00 | 47 | 1013.0 |
| 20260906194554 | 97 | 73 | 4.3 | 11.3 | 0.00 | 0.00 | 0.00 | 47 | 1013.0 |
| 20260906194525 | 97 | 151 | 5.2 | 11.3 | 0.00 | 0.00 | 0.00 | 46 | 1013.0 |
| 20260906194232 | 97 | 121 | 7.0 | 11.3 | 0.00 | 0.00 | 0.00 | 46 | 1013.1 |
| 20260906194207 | 98 | 135 | 3.5 | 8.7 | 0.00 | 0.00 | 0.00 | 47 | 1013.0 |
| 20260906194146 | 98 | 140 | 7.0 | 11.3 | 0.00 | 0.00 | 0.00 | 46 | 1012.9 |
| 20260906194116 | 98 | 144 | 5.2 | 9.6 | 0.00 | 0.00 | 0.00 | 46 | 1013.0 |
| 20260906194047 | 98 | 123 | 4.3 | 8.7 | 0.00 | 0.00 | 0.00 | 46 | 1013.0 |
| 20260906194018 | 98 | 125 | 3.5 | 8.7 | 0.00 | 0.00 | 0.00 | 46 | 1013.0 |
| 20260906193715 | 98 | 121 | 3.5 | 8.7 | 0.00 | 0.00 | 0.00 | 47 | 1013.0 |
| 20260906193614 | 98 | 171 | 4.3 | 8.7 | 0.00 | 0.00 | 0.00 | 46 | 1013.0 |
| 20260906193512 | 98 | 180 | 4.3 | 8.7 | 0.00 | 0.00 | 0.00 | 46 | 1013.0 |
| 20260906193409 | 98 | 154 | 3.5 | 6.1 | 0.00 | 0.00 | 0.00 | 46 | 1013.0 |
| 20260906193310 | 98 | 192 | 2.6 | 6.1 | 0.00 | 0.00 | 0.00 | 47 | 1013.1 |
| 20260906193303 | 98 | 151 | 2.6 | 6.1 | 0.00 | 0.00 | 0.00 | 46 | 1013.1 |
| 20260906193206 | 98 | 125 | 3.5 | 8.7 | 0.00 | 0.00 | 0.00 | 47 | 1013.3 |
| 20260906193129 | 97 | 152 | 5.2 | 8.7 | 0.00 | 0.00 | 0.00 | 47 | 1013.3 |
| 20260906193117 | 98 | 125 | 3.5 | 8.7 | 0.00 | 0.00 | 0.00 | 47 | 1013.1 |
| 20260906193047 | 98 | 145 | 4.3 | 8.7 | 0.00 | 0.00 | 0.00 | 47 | 1013.1 |
| 20260906193017 | 98 | 138 | 3.5 | 8.7 | 0.00 | 0.00 | 0.00 | 48 | 1013.1 |
| 20260906192949 | 98 | 192 | 2.6 | 8.7 | 0.00 | 0.00 | 0.00 | 47 | 1013.1 |
| 20260906192942 | 98 | 189 | 2.6 | 8.7 | 0.00 | 0.00 | 0.00 | 47 | 1013.1 |
| 20260906192704 | 98 | 158 | 1.7 | 8.7 | 0.00 | 0.00 | 0.00 | 47 | 1013.1 |
| 20260906192634 | 97 | 120 | 3.5 | 8.7 | 0.00 | 0.00 | 0.00 | 48 | 1013.1 |
| 20260906192605 | 97 | 137 | 4.3 | 8.7 | 0.00 | 0.00 | 0.00 | 47 | 1013.1 |
| 20260906192534 | 97 | 114 | 5.2 | 8.7 | 0.00 | 0.00 | 0.00 | 47 | 1013.3 |
| 20260906192251 | 97 | 141 | 5.2 | 8.7 | 0.00 | 0.00 | 0.00 | 48 | 1013.3 |
| 20260906192148 | 97 | 142 | 5.2 | 8.7 | 0.00 | 0.00 | 0.00 | 48 | 1013.3 |
| 20260906192047 | 96 | 89 | 5.2 | 8.7 | 0.00 | 0.00 | 0.00 | 48 | 1013.4 |
| 20260906192021 | 98 | 171 | 3.5 | 10.4 | 0.00 | 0.00 | 0.00 | 47 | 1013.7 |
| 20260906192014 | 97 | 196 | 3.5 | 11.3 | 0.00 | 0.00 | 0.00 | 47 | 1013.5 |
| 20260906192000 | 96 | 117 | 4.3 | 7.8 | 0.00 | 0.00 | 0.00 | 49 | 1013.4 |
| 20260906191930 | 96 | 141 | 3.5 | 7.8 | 0.00 | 0.00 | 0.00 | 48 | 1013.4 |
| 20260906191910 | 96 | 166 | 3.5 | 7.8 | 0.00 | 0.00 | 0.00 | 49 | 1013.3 |
| 20260906191858 | 96 | 165 | 3.5 | 7.8 | 0.00 | 0.00 | 0.00 | 49 | 1013.3 |
| 20260906191830 | 96 | 142 | 4.3 | 8.7 | 0.00 | 0.00 | 0.00 | 49 | 1013.4 |
| 20260906191758 | 96 | 164 | 3.5 | 11.3 | 0.00 | 0.00 | 0.00 | 48 | 1013.3 |
| 20260906191727 | 96 | 124 | 3.5 | 11.3 | 0.00 | 0.00 | 0.00 | 48 | 1013.5 |
| 20260906191656 | 96 | 188 | 3.5 | 11.3 | 0.00 | 0.00 | 0.00 | 48 | 1013.4 |
| 20260906191421 | 97 | 179 | 3.5 | 11.3 | 0.00 | 0.00 | 0.00 | 47 | 1013.5 |
| 20260906191143 | 97 | 135 | 3.5 | 11.3 | 0.00 | 0.00 | 0.00 | 47 | 1013.5 |
| 20260906191113 | 97 | 131 | 3.5 | 11.3 | 0.00 | 0.00 | 0.00 | 47 | 1013.5 |
| 20260906191043 | 98 | 133 | 4.3 | 11.3 | 0.00 | 0.00 | 0.00 | 46 | 1013.6 |
| 20260906191014 | 98 | 38 | 6.1 | 11.3 | 0.00 | 0.00 | 0.00 | 47 | 1013.5 |
| 20260906190947 | 98 | 120 | 6.1 | 11.3 | 0.00 | 0.00 | 0.00 | 47 | 1013.5 |
| 20260906190937 | 98 | 133 | 6.1 | 11.3 | 0.00 | 0.00 | 0.00 | 47 | 1013.6 |
| 20260906190658 | 98 | 131 | 5.2 | 11.3 | 0.00 | 0.00 | 0.00 | 47 | 1013.5 |
| 20260906190629 | 98 | 130 | 4.3 | 7.8 | 0.00 | 0.00 | 0.00 | 47 | 1013.5 |
| 20260906190546 | 98 | 147 | 3.5 | 7.8 | 0.00 | 0.00 | 0.00 | 48 | 1013.6 |
| 20260906190517 | 98 | 144 | 3.5 | 10.4 | 0.00 | 0.00 | 0.00 | 47 | 1013.7 |
| 20260906190234 | 98 | 183 | 3.5 | 10.4 | 0.00 | 0.00 | 0.00 | 47 | 1013.5 |
| 20260906190133 | 98 | 142 | 4.3 | 13.0 | 0.00 | 0.00 | 0.00 | 48 | 1013.5 |
| 20260906190033 | 98 | 141 | 3.5 | 13.0 | 0.00 | 0.00 | 0.00 | 45 | 1013.5 |
| 20260906185932 | 98 | 135 | 1.7 | 13.0 | 0.00 | 0.00 | 0.00 | 47 | 1013.6 |
| 20260906185834 | 98 | 124 | 2.6 | 13.0 | 0.00 | 0.00 | 0.00 | 47 | 1013.6 |
| 20260906185748 | 98 | 149 | 3.5 | 13.0 | 0.00 | 0.00 | 0.00 | 46 | 1013.6 |
| 20260906185733 | 98 | 72 | 3.5 | 13.0 | 0.00 | 0.00 | 0.00 | 46 | 1013.6 |
| 20260906185633 | 98 | 137 | 4.3 | 13.0 | 0.00 | 0.00 | 0.00 | 48 | 1013.7 |
| 20260906185533 | 97 | 130 | 6.1 | 13.0 | 0.00 | 0.00 | 0.00 | 48 | 1013.7 |
| 20260906185434 | 97 | 131 | 7.0 | 13.0 | 0.00 | 0.00 | 0.00 | 47 | 1013.6 |
| 20260906185332 | 97 | 157 | 7.8 | 13.0 | 0.00 | 0.00 | 0.00 | 47 | 1013.6 |
| 20260906185247 | 97 | 179 | 7.8 | 13.0 | 0.00 | 0.00 | 0.00 | 48 | 1013.6 |
| 20260906185233 | 97 | 144 | 7.0 | 13.0 | 0.00 | 0.00 | 0.00 | 48 | 1013.5 |
| 20260906185134 | 97 | 155 | 6.1 | 11.3 | 0.00 | 0.00 | 0.00 | 48 | 1013.6 |
| 20260906185032 | 97 | 164 | 6.1 | 11.3 | 0.00 | 0.00 | 0.00 | 48 | 1013.6 |
| 20260906184933 | 97 | 137 | 5.2 | 11.3 | 0.00 | 0.00 | 0.00 | 48 | 1013.7 |
| 20260906184833 | 97 | 178 | 4.3 | 11.3 | 0.00 | 0.00 | 0.00 | 50 | 1013.6 |
| 20260906184747 | 97 | 196 | 4.3 | 11.3 | 0.00 | 0.00 | 0.00 | 49 | 1013.6 |
| 20260906184733 | 97 | 197 | 5.2 | 11.3 | 0.00 | 0.00 | 0.00 | 49 | 1013.7 |
| 20260906184641 | 97 | 162 | 7.0 | 11.3 | 0.00 | 0.00 | 0.00 | 47 | 1013.7 |
| 20260906184635 | 97 | 182 | 5.2 | 11.3 | 0.00 | 0.00 | 0.00 | 48 | 1013.8 |
| 20260906184607 | 97 | 168 | 5.2 | 11.3 | 0.00 | 0.00 | 0.00 | 49 | 1013.7 |
| 20260906184538 | 97 | 144 | 6.1 | 11.3 | 0.00 | 0.00 | 0.00 | 48 | 1013.7 |
| 20260906184511 | 97 | 168 | 7.0 | 11.3 | 0.00 | 0.00 | 0.00 | 47 | 1013.7 |
| 20260906184232 | 97 | 183 | 6.1 | 11.3 | 0.00 | 0.00 | 0.00 | 48 | 1013.8 |
| 20260906184145 | 98 | 188 | 4.3 | 9.6 | 0.00 | 0.00 | 0.00 | 47 | 1013.7 |
| 20260906184137 | 97 | 165 | 5.2 | 9.6 | 0.00 | 0.00 | 0.00 | 48 | 1013.7 |
| 20260906184108 | 97 | 131 | 5.2 | 9.6 | 0.00 | 0.00 | 0.00 | 47 | 1013.8 |
| 20260906184037 | 98 | 133 | 4.3 | 9.6 | 0.00 | 0.00 | 0.00 | 47 | 1013.7 |
| 20260906184007 | 98 | 137 | 4.3 | 9.6 | 0.00 | 0.00 | 0.00 | 47 | 1013.7 |
| 20260906183718 | 98 | 144 | 4.3 | 9.6 | 0.00 | 0.00 | 0.00 | 48 | 1013.8 |
| 20260906183615 | 98 | 157 | 5.2 | 9.6 | 0.00 | 0.00 | 0.00 | 48 | 1013.8 |
| 20260906183516 | 98 | 114 | 6.1 | 9.6 | 0.00 | 0.00 | 0.00 | 47 | 1013.8 |
| 20260906183414 | 98 | 118 | 5.2 | 11.3 | 0.00 | 0.00 | 0.00 | 49 | 1013.8 |
| 20260906183314 | 98 | 155 | 4.3 | 11.3 | 0.00 | 0.00 | 0.00 | 48 | 1013.8 |
| 20260906183239 | 98 | 145 | 4.3 | 11.3 | 0.00 | 0.00 | 0.00 | 48 | 1013.8 |
| 20260906183210 | 98 | 135 | 4.3 | 11.3 | 0.00 | 0.00 | 0.00 | 48 | 1013.8 |
| 20260906183110 | 98 | 135 | 4.3 | 11.3 | 0.00 | 0.00 | 0.00 | 47 | 1013.8 |
| 20260906183009 | 98 | 90 | 3.5 | 11.3 | 0.00 | 0.00 | 0.00 | 47 | 1013.9 |
| 20260906182906 | 98 | 103 | 1.7 | 13.0 | 0.00 | 0.00 | 0.00 | 48 | 1013.9 |
| 20260906182808 | 98 | 90 | 2.6 | 13.0 | 0.00 | 0.00 | 0.00 | 49 | 1013.9 |
| 20260906182740 | 97 | 172 | 3.5 | 13.0 | 0.00 | 0.00 | 0.00 | 49 | 1013.9 |
| 20260906182706 | 97 | 159 | 5.2 | 13.0 | 0.00 | 0.00 | 0.00 | 48 | 1013.9 |
| 20260906182606 | 97 | 111 | 5.2 | 13.0 | 0.00 | 0.00 | 0.00 | 48 | 1014.0 |
| 20260906182506 | 97 | 149 | 3.5 | 13.0 | 0.00 | 0.00 | 0.00 | 49 | 1014.0 |
| 20260906182407 | 97 | 141 | 2.6 | 13.0 | 0.00 | 0.00 | 0.00 | 48 | 1014.0 |
| 20260906182306 | 97 | 148 | 3.5 | 13.0 | 0.00 | 0.00 | 0.00 | 48 | 1014.0 |
| 20260906182239 | 97 | 135 | 3.5 | 13.0 | 0.00 | 0.00 | 0.00 | 48 | 1014.0 |
| 20260906182207 | 97 | 127 | 4.3 | 13.0 | 0.00 | 0.00 | 0.00 | 48 | 1014.0 |
| 20260906182106 | 97 | 116 | 5.2 | 13.0 | 0.00 | 0.00 | 0.00 | 49 | 1014.1 |
| 20260906182005 | 97 | 127 | 5.2 | 13.0 | 0.00 | 0.00 | 0.00 | 49 | 1014.0 |
| 20260906181932 | 97 | 142 | 4.3 | 10.4 | 0.00 | 0.00 | 0.00 | 48 | 1014.0 |
| 20260906181802 | 97 | 155 | 4.3 | 10.4 | 0.00 | 0.00 | 0.00 | 49 | 1014.0 |
| 20260906181739 | 97 | 104 | 5.2 | 10.4 | 0.00 | 0.00 | 0.00 | 49 | 1014.0 |
| 20260906181700 | 97 | 107 | 4.3 | 10.4 | 0.00 | 0.00 | 0.00 | 49 | 1014.0 |
| 20260906181558 | 96 | 149 | 3.5 | 10.4 | 0.00 | 0.00 | 0.00 | 49 | 1014.0 |
| 20260906181456 | 96 | 134 | 2.6 | 8.7 | 0.00 | 0.00 | 0.00 | 49 | 1014.0 |
| 20260906181355 | 96 | 107 | 3.5 | 8.7 | 0.00 | 0.00 | 0.00 | 50 | 1014.1 |
| 20260906181254 | 96 | 125 | 4.3 | 8.7 | 0.00 | 0.00 | 0.00 | 49 | 1014.2 |
| 20260906181238 | 96 | 140 | 4.3 | 8.7 | 0.00 | 0.00 | 0.00 | 49 | 1014.2 |
| 20260906181152 | 96 | 73 | 5.2 | 10.4 | 0.00 | 0.00 | 0.00 | 49 | 1014.1 |
| 20260906181050 | 96 | 147 | 4.3 | 10.4 | 0.00 | 0.00 | 0.00 | 50 | 1014.2 |
| 20260906180947 | 96 | 78 | 3.5 | 10.4 | 0.00 | 0.00 | 0.00 | 50 | 1014.2 |
| 20260906180846 | 96 | 4 | 3.5 | 10.4 | 0.00 | 0.00 | 0.00 | 50 | 1014.1 |
| 20260906180745 | 96 | 120 | 4.3 | 10.4 | 0.00 | 0.00 | 0.00 | 50 | 1014.2 |
| 20260906180736 | 96 | 111 | 4.3 | 10.4 | 0.00 | 0.00 | 0.00 | 50 | 1014.2 |
| 20260906180643 | 96 | 85 | 6.1 | 10.4 | 0.00 | 0.00 | 0.00 | 49 | 1014.1 |
| 20260906180541 | 96 | 209 | 5.2 | 10.4 | 0.00 | 0.00 | 0.00 | 49 | 1014.1 |
| 20260906180437 | 96 | 140 | 5.2 | 10.4 | 0.00 | 0.00 | 0.00 | 49 | 1014.3 |
| 20260906180337 | 96 | 151 | 5.2 | 10.4 | 0.00 | 0.00 | 0.00 | 50 | 1014.2 |
| 20260906180237 | 96 | 131 | 3.5 | 10.4 | 0.00 | 0.00 | 0.00 | 50 | 1014.3 |
| 20260906180138 | 96 | 116 | 3.5 | 9.6 | 0.00 | 0.00 | 0.00 | 50 | 1014.2 |
| 20260906180035 | 96 | 135 | 4.3 | 9.6 | 0.00 | 0.00 | 0.00 | 51 | 1014.3 |
| 20260906175936 | 96 | 111 | 3.5 | 9.6 | 0.00 | 0.00 | 0.00 | 51 | 1014.3 |
| 20260906175834 | 96 | 141 | 3.5 | 9.6 | 0.00 | 0.00 | 0.00 | 50 | 1014.3 |
| 20260906175739 | 96 | 134 | 4.3 | 9.6 | 0.00 | 0.00 | 0.00 | 51 | 1014.3 |
| 20260906175735 | 96 | 134 | 4.3 | 9.6 | 0.00 | 0.00 | 0.00 | 51 | 1014.4 |
| 20260906175634 | 96 | 197 | 6.1 | 9.6 | 0.00 | 0.00 | 0.00 | 50 | 1014.5 |
| 20260906175533 | 96 | 141 | 5.2 | 9.6 | 0.00 | 0.00 | 0.00 | 50 | 1014.3 |
| 20260906175434 | 96 | 137 | 2.6 | 8.7 | 0.00 | 0.00 | 0.00 | 51 | 1014.4 |
| 20260906175334 | 96 | 117 | 2.6 | 9.6 | 0.00 | 0.00 | 0.00 | 51 | 1014.4 |
| 20260906175234 | 96 | 326 | 2.6 | 9.6 | 0.00 | 0.00 | 0.00 | 51 | 1014.4 |
| 20260906175135 | 96 | 39 | 1.7 | 9.6 | 0.00 | 0.00 | 0.00 | 51 | 1014.4 |
| 20260906175034 | 95 | 137 | 2.6 | 9.6 | 0.00 | 0.00 | 0.00 | 51 | 1014.5 |
| 20260906174933 | 95 | 0 | 2.6 | 9.6 | 0.00 | 0.00 | 0.00 | 51 | 1014.5 |
| 20260906174833 | 95 | 137 | 2.6 | 9.6 | 0.00 | 0.00 | 0.00 | 52 | 1014.5 |
| 20260906174738 | 95 | 135 | 4.3 | 9.6 | 0.00 | 0.00 | 0.00 | 50 | 1014.5 |
| 20260906174732 | 95 | 135 | 4.3 | 9.6 | 0.00 | 0.00 | 0.00 | 50 | 1014.4 |
| 20260906174632 | 95 | 168 | 5.2 | 9.6 | 0.00 | 0.00 | 0.00 | 51 | 1014.5 |
| 20260906174531 | 95 | 144 | 6.1 | 9.6 | 0.00 | 0.00 | 0.00 | 50 | 1014.5 |
| 20260906174432 | 95 | 131 | 5.2 | 9.6 | 0.00 | 0.00 | 0.00 | 50 | 1014.6 |
| 20260906174331 | 95 | 133 | 4.3 | 9.6 | 0.00 | 0.00 | 0.00 | 51 | 1014.6 |
| 20260906174236 | 95 | 97 | 3.5 | 9.6 | 0.00 | 0.00 | 0.00 | 51 | 1014.6 |
| 20260906174231 | 95 | 97 | 3.5 | 9.6 | 0.00 | 0.00 | 0.00 | 51 | 1014.5 |
| 20260906174131 | 95 | 121 | 3.5 | 9.6 | 0.00 | 0.00 | 0.00 | 51 | 1014.6 |
| 20260906174031 | 95 | 114 | 4.3 | 9.6 | 0.00 | 0.00 | 0.00 | 50 | 1014.7 |
| 20260906173933 | 95 | 154 | 6.1 | 9.6 | 0.00 | 0.00 | 0.00 | 50 | 1014.6 |
| 20260906173831 | 95 | 135 | 6.1 | 9.6 | 0.00 | 0.00 | 0.00 | 51 | 1014.6 |
| 20260906173738 | 95 | 138 | 5.2 | 8.7 | 0.00 | 0.00 | 0.00 | 51 | 1014.6 |
| 20260906173731 | 95 | 127 | 5.2 | 8.7 | 0.00 | 0.00 | 0.00 | 51 | 1014.7 |
| 20260906173631 | 95 | 190 | 4.3 | 8.7 | 0.00 | 0.00 | 0.00 | 51 | 1014.7 |
| 20260906173528 | 95 | 125 | 3.5 | 8.7 | 0.00 | 0.00 | 0.00 | 52 | 1014.7 |
| 20260906173428 | 95 | 137 | 3.5 | 8.7 | 0.00 | 0.00 | 0.00 | 51 | 1014.7 |
| 20260906173325 | 95 | 158 | 4.3 | 8.7 | 0.00 | 0.00 | 0.00 | 51 | 1014.8 |
| 20260906173235 | 95 | 94 | 5.2 | 8.7 | 0.00 | 0.00 | 0.00 | 52 | 1014.8 |
| 20260906173224 | 95 | 144 | 5.2 | 8.7 | 0.00 | 0.00 | 0.00 | 52 | 1014.8 |
| 20260906173120 | 95 | 133 | 4.3 | 8.7 | 0.00 | 0.00 | 0.00 | 52 | 1014.7 |
| 20260906173019 | 95 | 154 | 4.3 | 10.4 | 0.00 | 0.00 | 0.00 | 51 | 1014.8 |
| 20260906172918 | 95 | 89 | 4.3 | 10.4 | 0.00 | 0.00 | 0.00 | 51 | 1014.8 |
| 20260906172815 | 95 | 147 | 4.3 | 10.4 | 0.00 | 0.00 | 0.00 | 52 | 1014.9 |
| 20260906172735 | 95 | 142 | 4.3 | 10.4 | 0.00 | 0.00 | 0.00 | 53 | 1014.9 |
| 20260906172715 | 95 | 133 | 4.3 | 10.4 | 0.00 | 0.00 | 0.00 | 52 | 1014.8 |
| 20260906172609 | 95 | 151 | 5.2 | 10.4 | 0.00 | 0.00 | 0.00 | 52 | 1014.9 |
| 20260906172510 | 95 | 151 | 5.2 | 10.4 | 0.00 | 0.00 | 0.00 | 51 | 1014.9 |
| 20260906172406 | 95 | 133 | 3.5 | 10.4 | 0.00 | 0.00 | 0.00 | 51 | 1014.8 |
| 20260906172306 | 95 | 169 | 4.3 | 10.4 | 0.00 | 0.00 | 0.00 | 52 | 1014.8 |
| 20260906172233 | 95 | 212 | 5.2 | 10.4 | 0.00 | 0.00 | 0.00 | 52 | 1014.8 |
| 20260906172204 | 95 | 94 | 6.1 | 10.4 | 0.00 | 0.00 | 0.00 | 51 | 1014.9 |
| 20260906172104 | 95 | 141 | 6.1 | 10.4 | 0.00 | 0.00 | 0.00 | 51 | 1014.9 |
| 20260906172006 | 95 | 171 | 3.5 | 9.6 | 0.00 | 0.00 | 0.00 | 53 | 1014.8 |
| 20260906171905 | 95 | 145 | 4.3 | 9.6 | 0.00 | 0.00 | 0.00 | 52 | 1014.9 |
| 20260906171802 | 94 | 93 | 5.2 | 9.6 | 0.00 | 0.00 | 0.00 | 51 | 1014.8 |
| 20260906171732 | 94 | 120 | 4.3 | 9.6 | 0.00 | 0.00 | 0.00 | 52 | 1014.8 |
| 20260906171701 | 94 | 52 | 5.2 | 9.6 | 0.00 | 0.00 | 0.00 | 52 | 1014.9 |
| 20260906171559 | 94 | 133 | 5.2 | 9.6 | 0.00 | 0.00 | 0.00 | 52 | 1014.8 |
| 20260906171458 | 94 | 138 | 4.3 | 9.6 | 0.00 | 0.00 | 0.00 | 53 | 1014.9 |
| 20260906171356 | 94 | 144 | 5.2 | 9.6 | 0.00 | 0.00 | 0.00 | 52 | 1014.9 |
| 20260906171254 | 94 | 133 | 4.3 | 9.6 | 0.00 | 0.00 | 0.00 | 52 | 1014.9 |
| 20260906171234 | 94 | 186 | 4.3 | 9.6 | 0.00 | 0.00 | 0.00 | 52 | 1014.9 |
| 20260906171153 | 94 | 61 | 4.3 | 9.6 | 0.00 | 0.00 | 0.00 | 52 | 1014.8 |
| 20260906171051 | 94 | 114 | 5.2 | 9.6 | 0.00 | 0.00 | 0.00 | 52 | 1014.9 |
| 20260906170950 | 94 | 152 | 6.1 | 9.6 | 0.00 | 0.00 | 0.00 | 52 | 1014.9 |
| 20260906170848 | 94 | 155 | 6.1 | 9.6 | 0.00 | 0.00 | 0.00 | 53 | 1015.0 |
| 20260906170746 | 94 | 137 | 6.1 | 9.6 | 0.00 | 0.00 | 0.00 | 53 | 1015.0 |
| 20260906170735 | 94 | 151 | 6.1 | 9.6 | 0.00 | 0.00 | 0.00 | 52 | 1015.0 |
| 20260906170645 | 94 | 166 | 5.2 | 8.7 | 0.00 | 0.00 | 0.00 | 53 | 1015.0 |
| 20260906170541 | 94 | 173 | 2.6 | 8.7 | 0.00 | 0.00 | 0.00 | 53 | 1015.0 |
| 20260906170440 | 94 | 131 | 1.7 | 8.7 | 0.00 | 0.00 | 0.00 | 55 | 1015.0 |
| 20260906170338 | 94 | 31 | 3.5 | 8.7 | 0.00 | 0.00 | 0.00 | 53 | 1015.0 |
| 20260906170240 | 94 | 94 | 4.3 | 8.7 | 0.00 | 0.00 | 0.00 | 54 | 1015.0 |
| 20260906170233 | 94 | 111 | 4.3 | 8.7 | 0.00 | 0.00 | 0.00 | 54 | 1015.0 |
| 20260906170137 | 94 | 78 | 6.1 | 8.7 | 0.00 | 0.00 | 0.00 | 53 | 1015.0 |
| 20260906170035 | 94 | 145 | 5.2 | 8.7 | 0.00 | 0.00 | 0.00 | 53 | 1015.0 |
| 20260906165935 | 94 | 128 | 4.3 | 8.7 | 0.00 | 0.00 | 0.00 | 54 | 1015.0 |
| 20260906165834 | 94 | 113 | 4.3 | 8.7 | 0.00 | 0.00 | 0.00 | 53 | 1015.0 |
| 20260906165734 | 94 | 152 | 4.3 | 8.7 | 0.00 | 0.00 | 0.00 | 54 | 1015.1 |
| 20260906165635 | 94 | 157 | 3.5 | 8.7 | 0.00 | 0.00 | 0.00 | 54 | 1015.0 |
| 20260906165533 | 94 | 168 | 4.3 | 8.7 | 0.00 | 0.00 | 0.00 | 54 | 1015.1 |
| 20260906165433 | 94 | 151 | 3.5 | 8.7 | 0.00 | 0.00 | 0.00 | 55 | 1015.1 |
| 20260906165334 | 94 | 179 | 3.5 | 8.7 | 0.00 | 0.00 | 0.00 | 53 | 1015.1 |
| 20260906165235 | 94 | 164 | 5.2 | 8.7 | 0.00 | 0.00 | 0.00 | 54 | 1015.1 |
| 20260906165132 | 94 | 141 | 5.2 | 8.7 | 0.00 | 0.00 | 0.00 | 54 | 1015.1 |
| 20260906165031 | 94 | 148 | 5.2 | 10.4 | 0.00 | 0.00 | 0.00 | 55 | 1015.1 |
| 20260906164931 | 93 | 140 | 3.5 | 10.4 | 0.00 | 0.00 | 0.00 | 55 | 1015.1 |
| 20260906164829 | 93 | 159 | 2.6 | 10.4 | 0.00 | 0.00 | 0.00 | 55 | 1015.1 |
| 20260906164736 | 93 | 110 | 4.3 | 10.4 | 0.00 | 0.00 | 0.00 | 54 | 1015.1 |
| 20260906164729 | 93 | 151 | 4.3 | 10.4 | 0.00 | 0.00 | 0.00 | 54 | 1015.1 |
| 20260906164626 | 93 | 133 | 5.2 | 10.4 | 0.00 | 0.00 | 0.00 | 54 | 1015.0 |
| 20260906164524 | 93 | 114 | 5.2 | 10.4 | 0.00 | 0.00 | 0.00 | 53 | 1015.0 |
| 20260906164425 | 93 | 166 | 5.2 | 10.4 | 0.00 | 0.00 | 0.00 | 54 | 1015.1 |
| 20260906164323 | 93 | 127 | 5.2 | 10.4 | 0.00 | 0.00 | 0.00 | 53 | 1015.1 |
| 20260906164233 | 94 | 193 | 5.2 | 10.4 | 0.00 | 0.00 | 0.00 | 54 | 1015.1 |
| 20260906164220 | 94 | 200 | 5.2 | 10.4 | 0.00 | 0.00 | 0.00 | 54 | 1015.1 |
| 20260906164119 | 94 | 152 | 5.2 | 10.4 | 0.00 | 0.00 | 0.00 | 54 | 1015.1 |
| 20260906164018 | 94 | 114 | 4.3 | 9.6 | 0.00 | 0.00 | 0.00 | 56 | 1015.1 |
| 20260906163914 | 94 | 202 | 4.3 | 9.6 | 0.00 | 0.00 | 0.00 | 56 | 1015.1 |
| 20260906163814 | 93 | 140 | 4.3 | 9.6 | 0.00 | 0.00 | 0.00 | 55 | 1015.1 |
| 20260906163735 | 94 | 123 | 5.2 | 9.6 | 0.00 | 0.00 | 0.00 | 55 | 1015.1 |
| 20260906163710 | 94 | 130 | 5.2 | 9.6 | 0.00 | 0.00 | 0.00 | 55 | 1015.1 |
| 20260906163610 | 94 | 169 | 6.1 | 9.6 | 0.00 | 0.00 | 0.00 | 54 | 1015.0 |
| 20260906163508 | 94 | 144 | 4.3 | 9.6 | 0.00 | 0.00 | 0.00 | 54 | 1015.1 |
| 20260906163405 | 93 | 338 | 3.5 | 9.6 | 0.00 | 0.00 | 0.00 | 55 | 1015.0 |
| 20260906163304 | 93 | 106 | 3.5 | 9.6 | 0.00 | 0.00 | 0.00 | 54 | 1015.0 |
| 20260906163234 | 93 | 106 | 3.5 | 9.6 | 0.00 | 0.00 | 0.00 | 54 | 1015.0 |
| 20260906163206 | 93 | 106 | 3.5 | 9.6 | 0.00 | 0.00 | 0.00 | 54 | 1015.1 |
| 20260906163039 | 93 | 118 | 3.5 | 9.6 | 0.00 | 0.00 | 0.00 | 55 | 1015.0 |
| 20260906162937 | 93 | 113 | 5.2 | 9.6 | 0.00 | 0.00 | 0.00 | 54 | 1015.1 |
| 20260906162836 | 93 | 138 | 5.2 | 9.6 | 0.00 | 0.00 | 0.00 | 53 | 1015.0 |
| 20260906162734 | 93 | 157 | 3.5 | 9.6 | 0.00 | 0.00 | 0.00 | 54 | 1014.9 |
| 20260906162714 | 93 | 138 | 3.5 | 9.6 | 0.00 | 0.00 | 0.00 | 54 | 1015.0 |
| 20260906162633 | 93 | 141 | 3.5 | 9.6 | 0.00 | 0.00 | 0.00 | 54 | 1015.0 |
| 20260906162532 | 93 | 135 | 3.5 | 9.6 | 0.00 | 0.00 | 0.00 | 54 | 1014.9 |
| 20260906162433 | 93 | 114 | 4.3 | 9.6 | 0.00 | 0.00 | 0.00 | 54 | 1015.0 |
| 20260906162332 | 93 | 82 | 3.5 | 9.6 | 0.00 | 0.00 | 0.00 | 54 | 1014.8 |
| 20260906162232 | 93 | 176 | 4.3 | 9.6 | 0.00 | 0.00 | 0.00 | 55 | 1014.8 |
| 20260906162216 | 93 | 165 | 4.3 | 9.6 | 0.00 | 0.00 | 0.00 | 54 | 1014.9 |
| 20260906162131 | 93 | 113 | 4.3 | 9.6 | 0.00 | 0.00 | 0.00 | 55 | 1014.9 |
| 20260906162034 | 93 | 154 | 3.5 | 7.8 | 0.00 | 0.00 | 0.00 | 55 | 1014.9 |
| 20260906161931 | 93 | 107 | 1.7 | 7.8 | 0.00 | 0.00 | 0.00 | 55 | 1014.8 |
| 20260906161830 | 93 | 166 | 1.7 | 7.8 | 0.00 | 0.00 | 0.00 | 55 | 1014.8 |
| 20260906161731 | 93 | 149 | 3.5 | 7.8 | 0.00 | 0.00 | 0.00 | 56 | 1014.8 |
| 20260906161714 | 93 | 173 | 4.3 | 7.8 | 0.00 | 0.00 | 0.00 | 56 | 1014.8 |
| 20260906161633 | 93 | 89 | 5.2 | 7.8 | 0.00 | 0.00 | 0.00 | 56 | 1014.8 |
| 20260906161540 | 93 | 128 | 5.2 | 7.8 | 0.00 | 0.00 | 0.00 | 56 | 1014.9 |
| 20260906161431 | 93 | 190 | 3.5 | 7.8 | 0.00 | 0.00 | 0.00 | 55 | 1014.8 |
| 20260906161326 | 93 | 114 | 4.3 | 8.7 | 0.00 | 0.00 | 0.00 | 55 | 1014.9 |
| 20260906161223 | 93 | 109 | 4.3 | 8.7 | 0.00 | 0.00 | 0.00 | 55 | 1014.9 |
| 20260906161207 | 93 | 124 | 4.3 | 8.7 | 0.00 | 0.00 | 0.00 | 55 | 1014.9 |
| 20260906161122 | 93 | 140 | 4.3 | 8.7 | 0.00 | 0.00 | 0.00 | 55 | 1014.9 |
| 20260906161022 | 93 | 145 | 3.5 | 8.7 | 0.00 | 0.00 | 0.00 | 53 | 1014.8 |
| 20260906160916 | 93 | 149 | 2.6 | 8.7 | 0.00 | 0.00 | 0.00 | 54 | 1014.8 |
| 20260906160814 | 93 | 147 | 3.5 | 8.7 | 0.00 | 0.00 | 0.00 | 54 | 1014.8 |
| 20260906160712 | 93 | 152 | 3.5 | 8.7 | 0.00 | 0.00 | 0.00 | 54 | 1014.8 |
| 20260906160704 | 93 | 169 | 3.5 | 8.7 | 0.00 | 0.00 | 0.00 | 55 | 1014.8 |
| 20260906160612 | 93 | 138 | 4.3 | 8.7 | 0.00 | 0.00 | 0.00 | 54 | 1014.8 |
| 20260906160509 | 93 | 131 | 4.3 | 8.7 | 0.00 | 0.00 | 0.00 | 54 | 1014.8 |
| 20260906160406 | 93 | 141 | 3.5 | 8.7 | 0.00 | 0.00 | 0.00 | 55 | 1014.8 |
| 20260906160306 | 93 | 35 | 3.5 | 8.7 | 0.00 | 0.00 | 0.00 | 55 | 1014.7 |
| 20260906160205 | 93 | 121 | 3.5 | 8.7 | 0.00 | 0.00 | 0.00 | 55 | 1014.8 |
| 20260906160106 | 93 | 116 | 4.3 | 8.7 | 0.00 | 0.00 | 0.00 | 56 | 1014.7 |
| 20260906160005 | 92 | 123 | 5.2 | 8.7 | 0.00 | 0.00 | 0.00 | 55 | 1014.8 |
| 20260906155906 | 93 | 147 | 6.1 | 8.7 | 0.00 | 0.00 | 0.00 | 55 | 1014.7 |
| 20260906155805 | 93 | 138 | 5.2 | 9.6 | 0.00 | 0.00 | 0.00 | 55 | 1014.8 |
| 20260906155705 | 92 | 131 | 3.5 | 9.6 | 0.00 | 0.00 | 0.00 | 56 | 1014.9 |
| 20260906155659 | 92 | 164 | 3.5 | 9.6 | 0.00 | 0.00 | 0.00 | 56 | 1014.9 |
| 20260906155613 | 92 | 27 | 3.5 | 9.6 | 0.00 | 0.00 | 0.00 | 56 | 1014.8 |
| 20260906155603 | 92 | 166 | 3.5 | 9.6 | 0.00 | 0.00 | 0.00 | 56 | 1014.8 |
| 20260906155532 | 92 | 148 | 2.6 | 9.6 | 0.00 | 0.00 | 0.00 | 56 | 1014.7 |
| 20260906155501 | 92 | 124 | 3.5 | 9.6 | 0.00 | 0.00 | 0.00 | 56 | 1014.8 |
| 20260906155430 | 92 | 120 | 3.5 | 9.6 | 0.00 | 0.00 | 0.00 | 56 | 1014.8 |
| 20260906155148 | 92 | 59 | 3.5 | 9.6 | 0.00 | 0.00 | 0.00 | 56 | 1014.8 |
| 20260906155047 | 92 | 65 | 4.3 | 9.6 | 0.00 | 0.00 | 0.00 | 56 | 1014.8 |
| 20260906154946 | 92 | 124 | 5.2 | 9.6 | 0.00 | 0.00 | 0.00 | 57 | 1014.7 |
| 20260906154843 | 92 | 130 | 4.3 | 9.6 | 0.00 | 0.00 | 0.00 | 57 | 1014.8 |
| 20260906154742 | 92 | 47 | 2.6 | 6.1 | 0.00 | 0.00 | 0.00 | 58 | 1014.8 |
| 20260906154703 | 92 | 114 | 1.7 | 5.2 | 0.00 | 0.00 | 0.00 | 58 | 1014.7 |
| 20260906154640 | 92 | 137 | 1.7 | 5.2 | 0.00 | 0.00 | 0.00 | 58 | 1014.7 |
| 20260906154540 | 92 | 107 | 2.6 | 5.2 | 0.00 | 0.00 | 0.00 | 57 | 1014.7 |
| 20260906154437 | 92 | 138 | 3.5 | 5.2 | 0.00 | 0.00 | 0.00 | 57 | 1014.8 |
| 20260906154336 | 92 | 147 | 4.3 | 7.8 | 0.00 | 0.00 | 0.00 | 57 | 1014.7 |
| 20260906154236 | 92 | 123 | 3.5 | 7.8 | 0.00 | 0.00 | 0.00 | 57 | 1014.8 |
| 20260906154203 | 92 | 73 | 2.6 | 7.8 | 0.00 | 0.00 | 0.00 | 58 | 1014.7 |
| 20260906154134 | 92 | 210 | 3.5 | 7.8 | 0.00 | 0.00 | 0.00 | 58 | 1014.7 |
| 20260906154035 | 92 | 124 | 2.6 | 7.8 | 0.00 | 0.00 | 0.00 | 57 | 1014.8 |
| 20260906153935 | 92 | 121 | 2.6 | 7.8 | 0.00 | 0.00 | 0.00 | 57 | 1014.8 |
| 20260906153834 | 92 | 100 | 3.5 | 7.8 | 0.00 | 0.00 | 0.00 | 57 | 1014.8 |
| 20260906153735 | 92 | 125 | 3.5 | 7.8 | 0.00 | 0.00 | 0.00 | 57 | 1014.7 |
| 20260906153703 | 92 | 116 | 3.5 | 7.8 | 0.00 | 0.00 | 0.00 | 57 | 1014.8 |
| 20260906153634 | 92 | 125 | 3.5 | 7.8 | 0.00 | 0.00 | 0.00 | 57 | 1014.8 |
| 20260906153535 | 92 | 123 | 4.3 | 7.8 | 0.00 | 0.00 | 0.00 | 57 | 1014.7 |
| 20260906153435 | 92 | 128 | 4.3 | 7.8 | 0.00 | 0.00 | 0.00 | 58 | 1014.8 |
| 20260906153335 | 92 | 27 | 4.3 | 7.8 | 0.00 | 0.00 | 0.00 | 58 | 1014.8 |
| 20260906153235 | 92 | 145 | 3.5 | 7.8 | 0.00 | 0.00 | 0.00 | 59 | 1014.7 |
| 20260906153202 | 92 | 178 | 3.5 | 7.8 | 0.00 | 0.00 | 0.00 | 59 | 1014.7 |
| 20260906153135 | 92 | 145 | 3.5 | 7.8 | 0.00 | 0.00 | 0.00 | 59 | 1014.7 |
| 20260906153034 | 92 | 123 | 4.3 | 7.8 | 0.00 | 0.00 | 0.00 | 59 | 1014.7 |
| 20260906152936 | 92 | 89 | 4.3 | 7.8 | 0.00 | 0.00 | 0.00 | 59 | 1014.7 |
| 20260906152834 | 92 | 147 | 3.5 | 7.8 | 0.00 | 0.00 | 0.00 | 59 | 1014.7 |
| 20260906152735 | 92 | 135 | 2.6 | 5.2 | 0.00 | 0.00 | 0.00 | 58 | 1014.7 |
| 20260906152702 | 92 | 164 | 3.5 | 5.2 | 0.00 | 0.00 | 0.00 | 58 | 1014.8 |
| 20260906152634 | 92 | 127 | 3.5 | 5.2 | 0.00 | 0.00 | 0.00 | 60 | 1014.8 |
| 20260906152535 | 91 | 141 | 2.6 | 5.2 | 0.00 | 0.00 | 0.00 | 60 | 1014.7 |
| 20260906152433 | 91 | 124 | 1.7 | 5.2 | 0.00 | 0.00 | 0.00 | 60 | 1014.8 |
| 20260906152333 | 91 | 93 | 2.6 | 5.2 | 0.00 | 0.00 | 0.00 | 60 | 1014.8 |
| 20260906152234 | 91 | 123 | 2.6 | 5.2 | 0.00 | 0.00 | 0.00 | 60 | 1014.7 |
| 20260906152203 | 91 | 127 | 3.5 | 5.2 | 0.00 | 0.00 | 0.00 | 60 | 1014.6 |
| 20260906152135 | 91 | 134 | 2.6 | 5.2 | 0.00 | 0.00 | 0.00 | 59 | 1014.6 |
| 20260906152035 | 91 | 97 | 3.5 | 5.2 | 0.00 | 0.00 | 0.00 | 59 | 1014.7 |
| 20260906151933 | 91 | 128 | 3.5 | 4.3 | 0.00 | 0.00 | 0.00 | 59 | 1014.7 |
| 20260906151832 | 91 | 130 | 2.6 | 4.3 | 0.00 | 0.00 | 0.00 | 60 | 1014.7 |
| 20260906151731 | 91 | 142 | 1.7 | 4.3 | 0.00 | 0.00 | 0.00 | 58 | 1014.7 |
| 20260906151655 | 91 | 114 | 1.7 | 4.3 | 0.00 | 0.00 | 0.00 | 58 | 1014.7 |
| 20260906151632 | 91 | 111 | 2.6 | 4.3 | 0.00 | 0.00 | 0.00 | 59 | 1014.7 |
| 20260906151532 | 91 | 93 | 2.6 | 4.3 | 0.00 | 0.00 | 0.00 | 60 | 1014.7 |
| 20260906151433 | 91 | 133 | 2.6 | 4.3 | 0.00 | 0.00 | 0.00 | 61 | 1014.6 |
| 20260906151331 | 91 | 124 | 1.7 | 4.3 | 0.00 | 0.00 | 0.00 | 61 | 1014.6 |
| 20260906151232 | 91 | 93 | 1.7 | 4.3 | 0.00 | 0.00 | 0.00 | 62 | 1014.6 |
| 20260906151157 | 91 | 97 | 1.7 | 4.3 | 0.00 | 0.00 | 0.00 | 62 | 1014.6 |
| 20260906151131 | 91 | 135 | 1.7 | 4.3 | 0.00 | 0.00 | 0.00 | 62 | 1014.6 |
| 20260906151030 | 90 | 118 | 2.6 | 4.3 | 0.00 | 0.00 | 0.00 | 64 | 1014.5 |
| 20260906150930 | 90 | 130 | 0.9 | 3.5 | 0.00 | 0.00 | 0.00 | 64 | 1014.6 |
| 20260906150831 | 90 | 61 | 0.9 | 3.5 | 0.00 | 0.00 | 0.00 | 64 | 1014.6 |
| 20260906150730 | 90 | 56 | 1.7 | 3.5 | 0.00 | 0.00 | 0.00 | 64 | 1014.6 |
| 20260906150657 | 90 | 56 | 1.7 | 3.5 | 0.00 | 0.00 | 0.00 | 64 | 1014.6 |
| 20260906150633 | 90 | 80 | 0.9 | 3.5 | 0.00 | 0.00 | 0.00 | 65 | 1014.6 |
| 20260906150529 | 90 | 94 | 0.9 | 3.5 | 0.00 | 0.00 | 0.00 | 65 | 1014.6 |
| 20260906150430 | 90 | 75 | 0.9 | 3.5 | 0.00 | 0.00 | 0.00 | 65 | 1014.5 |
| 20260906150330 | 90 | 75 | 0.9 | 3.5 | 0.00 | 0.00 | 0.00 | 65 | 1014.6 |
| 20260906150231 | 90 | 0 | 1.7 | 3.5 | 0.00 | 0.00 | 0.00 | 65 | 1014.6 |
| 20260906150156 | 90 | 0 | 1.7 | 3.5 | 0.00 | 0.00 | 0.00 | 65 | 1014.6 |
| 20260906150130 | 90 | 0 | 1.7 | 3.5 | 0.00 | 0.00 | 0.00 | 65 | 1014.6 |
| 20260906150030 | 89 | 21 | 1.7 | 3.5 | 0.00 | 0.00 | 0.00 | 65 | 1014.6 |
| 20260906145929 | 89 | 96 | 1.7 | 3.5 | 0.00 | 0.00 | 0.00 | 66 | 1014.6 |
| 20260906145832 | 89 | 145 | 0.9 | 3.5 | 0.00 | 0.00 | 0.00 | 66 | 1014.6 |
| 20260906145731 | 89 | 59 | 0.0 | 3.5 | 0.00 | 0.00 | 0.00 | 67 | 1014.6 |
| 20260906145654 | 89 | 59 | 0.9 | 3.5 | 0.00 | 0.00 | 0.00 | 67 | 1014.6 |
| 20260906145630 | 89 | 59 | 0.9 | 3.5 | 0.00 | 0.00 | 0.00 | 67 | 1014.7 |
| 20260906145528 | 89 | 61 | 0.9 | 3.5 | 0.00 | 0.00 | 0.00 | 66 | 1014.6 |
| 20260906145425 | 89 | 55 | 0.9 | 3.5 | 0.00 | 0.00 | 0.00 | 67 | 1014.6 |
| 20260906145324 | 89 | 125 | 0.9 | 3.5 | 0.00 | 0.00 | 0.00 | 67 | 1014.6 |
| 20260906145224 | 89 | 133 | 0.9 | 3.5 | 0.00 | 0.00 | 0.00 | 66 | 1014.6 |
| 20260906145149 | 89 | 133 | 0.9 | 3.5 | 0.00 | 0.00 | 0.00 | 67 | 1014.6 |
| 20260906145122 | 89 | 134 | 1.7 | 3.5 | 0.00 | 0.00 | 0.00 | 67 | 1014.5 |
| 20260906145024 | 89 | 137 | 1.7 | 3.5 | 0.00 | 0.00 | 0.00 | 67 | 1014.5 |
| 20260906144919 | 89 | 137 | 2.6 | 3.5 | 0.00 | 0.00 | 0.00 | 67 | 1014.6 |
| 20260906144815 | 89 | 120 | 1.7 | 3.5 | 0.00 | 0.00 | 0.00 | 68 | 1014.6 |
| 20260906144714 | 89 | 121 | 0.9 | 3.5 | 0.00 | 0.00 | 0.00 | 68 | 1014.6 |
| 20260906144647 | 89 | 121 | 1.7 | 3.5 | 0.00 | 0.00 | 0.00 | 68 | 1014.6 |
| 20260906144614 | 89 | 102 | 1.7 | 3.5 | 0.00 | 0.00 | 0.00 | 68 | 1014.7 |
| 20260906144545 | 88 | 127 | 1.7 | 3.5 | 0.00 | 0.00 | 0.00 | 69 | 1014.6 |
| 20260906144525 | 89 | 118 | 1.7 | 3.5 | 0.00 | 0.00 | 0.00 | 69 | 1014.6 |
| 20260906144455 | 88 | 142 | 2.6 | 3.5 | 0.00 | 0.00 | 0.00 | 68 | 1014.6 |
| 20260906144424 | 88 | 157 | 2.6 | 3.5 | 0.00 | 0.00 | 0.00 | 69 | 1014.6 |
| 20260906144355 | 88 | 148 | 2.6 | 3.5 | 0.00 | 0.00 | 0.00 | 69 | 1014.6 |
| 20260906144105 | 88 | 125 | 1.7 | 3.5 | 0.00 | 0.00 | 0.00 | 69 | 1014.6 |
| 20260906144004 | 88 | 113 | 1.7 | 3.5 | 0.00 | 0.00 | 0.00 | 70 | 1014.6 |
| 20260906143906 | 88 | 113 | 1.7 | 3.5 | 0.00 | 0.00 | 0.00 | 71 | 1014.7 |
| 20260906143803 | 88 | 121 | 1.7 | 3.5 | 0.00 | 0.00 | 0.00 | 70 | 1014.7 |
| 20260906143706 | 88 | 130 | 1.7 | 3.5 | 0.00 | 0.00 | 0.00 | 70 | 1014.6 |
| 20260906143637 | 88 | 130 | 1.7 | 3.5 | 0.00 | 0.00 | 0.00 | 70 | 1014.6 |
| 20260906143603 | 87 | 130 | 1.7 | 3.5 | 0.00 | 0.00 | 0.00 | 70 | 1014.7 |
| 20260906143505 | 87 | 130 | 2.6 | 3.5 | 0.00 | 0.00 | 0.00 | 70 | 1014.7 |
| 20260906143405 | 87 | 151 | 1.7 | 2.6 | 0.00 | 0.00 | 0.00 | 71 | 1014.6 |
| 20260906143301 | 87 | 125 | 1.7 | 3.5 | 0.00 | 0.00 | 0.00 | 71 | 1014.6 |
| 20260906143138 | 87 | 128 | 1.7 | 3.5 | 0.00 | 0.00 | 0.00 | 72 | 1014.7 |
| 20260906143059 | 87 | 117 | 1.7 | 3.5 | 0.00 | 0.00 | 0.00 | 71 | 1014.6 |
| 20260906143043 | 87 | 76 | 0.9 | 3.5 | 0.00 | 0.00 | 0.00 | 72 | 1014.7 |
| 20260906143020 | 87 | 93 | 1.7 | 3.5 | 0.00 | 0.00 | 0.00 | 71 | 1014.6 |
| 20260906142947 | 87 | 93 | 1.7 | 3.5 | 0.00 | 0.00 | 0.00 | 71 | 1014.6 |
| 20260906142919 | 87 | 56 | 1.7 | 3.5 | 0.00 | 0.00 | 0.00 | 71 | 1014.7 |
| 20260906142847 | 87 | 65 | 1.7 | 3.5 | 0.00 | 0.00 | 0.00 | 72 | 1014.7 |
| 20260906142557 | 86 | 113 | 1.7 | 3.5 | 0.00 | 0.00 | 0.00 | 73 | 1014.7 |
| 20260906142549 | 87 | 80 | 1.7 | 3.5 | 0.00 | 0.00 | 0.00 | 72 | 1014.7 |
| 20260906142517 | 86 | 102 | 1.7 | 3.5 | 0.00 | 0.00 | 0.00 | 72 | 1014.7 |
| 20260906142447 | 86 | 110 | 1.7 | 3.5 | 0.00 | 0.00 | 0.00 | 73 | 1014.8 |
| 20260906142418 | 86 | 114 | 1.7 | 3.5 | 0.00 | 0.00 | 0.00 | 73 | 1014.8 |
| 20260906142343 | 86 | 113 | 1.7 | 3.5 | 0.00 | 0.00 | 0.00 | 73 | 1014.7 |
| 20260906142054 | 86 | 120 | 1.7 | 3.5 | 0.00 | 0.00 | 0.00 | 74 | 1014.7 |
| 20260906142041 | 86 | 130 | 1.7 | 3.5 | 0.00 | 0.00 | 0.00 | 73 | 1014.7 |
| 20260906142012 | 86 | 103 | 0.9 | 3.5 | 0.00 | 0.00 | 0.00 | 74 | 1014.7 |
| 20260906141939 | 86 | 99 | 1.7 | 3.5 | 0.00 | 0.00 | 0.00 | 74 | 1014.7 |
| 20260906141912 | 86 | 104 | 2.6 | 3.5 | 0.00 | 0.00 | 0.00 | 74 | 1014.7 |
| 20260906141633 | 86 | 124 | 1.7 | 3.5 | 0.00 | 0.00 | 0.00 | 74 | 1014.7 |
| 20260906141532 | 85 | 127 | 1.7 | 2.6 | 0.00 | 0.00 | 0.00 | 74 | 1014.7 |
| 20260906141431 | 85 | 127 | 1.7 | 2.6 | 0.00 | 0.00 | 0.00 | 74 | 1014.8 |
| 20260906141332 | 85 | 125 | 1.7 | 2.6 | 0.00 | 0.00 | 0.00 | 74 | 1014.8 |
| 20260906141232 | 85 | 125 | 1.7 | 2.6 | 0.00 | 0.00 | 0.00 | 75 | 1014.8 |
| 20260906141130 | 85 | 83 | 1.7 | 2.6 | 0.00 | 0.00 | 0.00 | 75 | 1014.7 |
| 20260906141031 | 85 | 82 | 1.7 | 2.6 | 0.00 | 0.00 | 0.00 | 75 | 1014.8 |
| 20260906140933 | 85 | 73 | 1.7 | 2.6 | 0.00 | 0.00 | 0.00 | 76 | 1014.7 |
| 20260906140829 | 85 | 114 | 1.7 | 3.5 | 0.00 | 0.00 | 0.00 | 76 | 1014.8 |
| 20260906140730 | 85 | 107 | 1.7 | 3.5 | 0.00 | 0.00 | 0.00 | 76 | 1014.8 |
| 20260906140630 | 85 | 102 | 1.7 | 3.5 | 0.00 | 0.00 | 0.00 | 76 | 1014.8 |
| 20260906140530 | 84 | 103 | 1.7 | 3.5 | 0.00 | 0.00 | 0.00 | 76 | 1014.7 |
| 20260906140430 | 84 | 127 | 1.7 | 3.5 | 0.00 | 0.00 | 0.00 | 77 | 1014.8 |
| 20260906140331 | 84 | 18 | 1.7 | 3.5 | 0.00 | 0.00 | 0.00 | 77 | 1014.7 |
| 20260906140229 | 84 | 18 | 1.7 | 3.5 | 0.00 | 0.00 | 0.00 | 78 | 1014.8 |
| 20260906140128 | 84 | 66 | 0.9 | 3.5 | 0.00 | 0.00 | 0.00 | 78 | 1014.7 |
| 20260906140050 | 83 | 102 | 0.9 | 2.6 | 0.00 | 0.00 | 0.00 | 79 | 1014.6 |
| 20260906140040 | 84 | 41 | 1.7 | 3.5 | 0.00 | 0.00 | 0.00 | 78 | 1014.7 |
| 20260906140007 | 84 | 39 | 1.7 | 3.5 | 0.00 | 0.00 | 0.00 | 78 | 1014.7 |
| 20260906135936 | 84 | 103 | 1.7 | 2.6 | 0.00 | 0.00 | 0.00 | 79 | 1014.7 |
| 20260906135908 | 83 | 99 | 1.7 | 2.6 | 0.00 | 0.00 | 0.00 | 79 | 1014.6 |
| 20260906135628 | 83 | 102 | 0.9 | 2.6 | 0.00 | 0.00 | 0.00 | 79 | 1014.6 |
| 20260906135530 | 83 | 79 | 0.9 | 2.6 | 0.00 | 0.00 | 0.00 | 79 | 1014.6 |
| 20260906135418 | 83 | 79 | 0.9 | 2.6 | 0.00 | 0.00 | 0.00 | 79 | 1014.6 |
| 20260906135315 | 83 | 66 | 0.9 | 2.6 | 0.00 | 0.00 | 0.00 | 80 | 1014.6 |
| 20260906135215 | 83 | 58 | 0.9 | 2.6 | 0.00 | 0.00 | 0.00 | 80 | 1014.6 |
| 20260906135113 | 83 | 90 | 0.9 | 2.6 | 0.00 | 0.00 | 0.00 | 81 | 1014.6 |
| 20260906135011 | 82 | 90 | 0.9 | 2.6 | 0.00 | 0.00 | 0.00 | 81 | 1014.6 |
| 20260906134910 | 82 | 90 | 0.9 | 2.6 | 0.00 | 0.00 | 0.00 | 81 | 1014.6 |
| 20260906134810 | 82 | 59 | 0.0 | 2.6 | 0.00 | 0.00 | 0.00 | 82 | 1014.6 |
| 20260906134707 | 82 | 85 | 0.0 | 2.6 | 0.00 | 0.00 | 0.00 | 82 | 1014.6 |
| 20260906134631 | 82 | 86 | 0.9 | 2.6 | 0.00 | 0.00 | 0.00 | 82 | 1014.6 |
| 20260906134604 | 82 | 86 | 0.9 | 2.6 | 0.00 | 0.00 | 0.00 | 82 | 1014.6 |
| 20260906134549 | 81 | 17 | 0.9 | 2.6 | 0.00 | 0.00 | 0.00 | 84 | 1014.6 |
| 20260906134525 | 82 | 86 | 0.9 | 2.6 | 0.00 | 0.00 | 0.00 | 82 | 1014.5 |
| 20260906134453 | 81 | 96 | 1.7 | 2.6 | 0.00 | 0.00 | 0.00 | 83 | 1014.6 |
| 20260906134424 | 81 | 37 | 0.9 | 2.6 | 0.00 | 0.00 | 0.00 | 83 | 1014.5 |
| 20260906134355 | 81 | 17 | 0.9 | 2.6 | 0.00 | 0.00 | 0.00 | 84 | 1014.6 |
| 20260906134105 | 81 | 102 | 0.0 | 2.6 | 0.00 | 0.00 | 0.00 | 84 | 1014.6 |
| 20260906134004 | 81 | 102 | 0.9 | 2.6 | 0.00 | 0.00 | 0.00 | 84 | 1014.6 |
| 20260906133902 | 81 | 102 | 0.9 | 2.6 | 0.00 | 0.00 | 0.00 | 84 | 1014.6 |
| 20260906133804 | 81 | 104 | 1.7 | 2.6 | 0.00 | 0.00 | 0.00 | 84 | 1014.6 |
| 20260906133704 | 80 | 104 | 1.7 | 2.6 | 0.00 | 0.00 | 0.00 | 85 | 1014.6 |
| 20260906133633 | 80 | 103 | 1.7 | 2.6 | 0.00 | 0.00 | 0.00 | 85 | 1014.6 |
| 20260906133603 | 80 | 103 | 0.9 | 2.6 | 0.00 | 0.00 | 0.00 | 85 | 1014.6 |
| 20260906133502 | 80 | 113 | 0.0 | 2.6 | 0.00 | 0.00 | 0.00 | 86 | 1014.6 |
| 20260906133404 | 80 | 113 | 0.9 | 2.6 | 0.00 | 0.00 | 0.00 | 86 | 1014.6 |
| 20260906133300 | 80 | 113 | 0.9 | 2.6 | 0.00 | 0.00 | 0.00 | 86 | 1014.6 |
| 20260906133202 | 80 | 114 | 0.9 | 2.6 | 0.00 | 0.00 | 0.00 | 86 | 1014.6 |
| 20260906133134 | 80 | 114 | 0.9 | 2.6 | 0.00 | 0.00 | 0.00 | 86 | 1014.6 |
| 20260906133059 | 80 | 116 | 1.7 | 2.6 | 0.00 | 0.00 | 0.00 | 86 | 1014.6 |
| 20260906132949 | 80 | 116 | 1.7 | 2.6 | 0.00 | 0.00 | 0.00 | 86 | 1014.6 |
| 20260906132848 | 79 | 118 | 1.7 | 2.6 | 0.00 | 0.00 | 0.00 | 86 | 1014.7 |
| 20260906132739 | 79 | 123 | 1.7 | 2.6 | 0.00 | 0.00 | 0.00 | 86 | 1014.6 |
| 20260906132642 | 79 | 82 | 1.7 | 2.6 | 0.00 | 0.00 | 0.00 | 87 | 1014.7 |
| 20260906132635 | 79 | 83 | 1.7 | 2.6 | 0.00 | 0.00 | 0.00 | 87 | 1014.7 |
| 20260906132535 | 79 | 82 | 1.7 | 2.6 | 0.00 | 0.00 | 0.00 | 87 | 1014.7 |
| 20260906132436 | 79 | 76 | 0.9 | 2.6 | 0.00 | 0.00 | 0.00 | 87 | 1014.7 |
| 20260906132333 | 79 | 103 | 0.9 | 2.6 | 0.00 | 0.00 | 0.00 | 87 | 1014.7 |
| 20260906132232 | 79 | 102 | 1.7 | 2.6 | 0.00 | 0.00 | 0.00 | 87 | 1014.7 |
| 20260906132133 | 79 | 99 | 1.7 | 2.6 | 0.00 | 0.00 | 0.00 | 87 | 1014.7 |
| 20260906132032 | 78 | 94 | 1.7 | 2.6 | 0.00 | 0.00 | 0.00 | 87 | 1014.8 |
| 20260906131932 | 78 | 87 | 1.7 | 2.6 | 0.00 | 0.00 | 0.00 | 87 | 1014.8 |
| 20260906131833 | 78 | 56 | 1.7 | 2.6 | 0.00 | 0.00 | 0.00 | 87 | 1014.7 |
| 20260906131731 | 78 | 97 | 1.7 | 1.7 | 0.00 | 0.00 | 0.00 | 87 | 1014.7 |
| 20260906131632 | 78 | 110 | 0.0 | 1.7 | 0.00 | 0.00 | 0.00 | 88 | 1014.7 |
| 20260906131532 | 78 | 110 | 0.0 | 1.7 | 0.00 | 0.00 | 0.00 | 88 | 1014.7 |
| 20260906131431 | 78 | 110 | 0.0 | 1.7 | 0.00 | 0.00 | 0.00 | 88 | 1014.7 |
| 20260906131331 | 78 | 110 | 0.0 | 1.7 | 0.00 | 0.00 | 0.00 | 88 | 1014.7 |
| 20260906131230 | 78 | 110 | 0.0 | 1.7 | 0.00 | 0.00 | 0.00 | 88 | 1014.7 |
| 20260906131127 | 78 | 110 | 0.0 | 1.7 | 0.00 | 0.00 | 0.00 | 88 | 1014.7 |
| 20260906131027 | 78 | 110 | 0.0 | 1.7 | 0.00 | 0.00 | 0.00 | 88 | 1014.7 |
| 20260906130928 | 78 | 110 | 0.9 | 1.7 | 0.00 | 0.00 | 0.00 | 88 | 1014.7 |
| 20260906130827 | 78 | 113 | 0.0 | 0.9 | 0.00 | 0.00 | 0.00 | 88 | 1014.7 |
| 20260906130727 | 78 | 113 | 0.0 | 0.9 | 0.00 | 0.00 | 0.00 | 88 | 1014.7 |
| 20260906130628 | 78 | 113 | 0.0 | 0.9 | 0.00 | 0.00 | 0.00 | 88 | 1014.7 |
| 20260906130521 | 78 | 113 | 0.0 | 0.9 | 0.00 | 0.00 | 0.00 | 88 | 1014.7 |
| 20260906130420 | 78 | 113 | 0.0 | 0.9 | 0.00 | 0.00 | 0.00 | 88 | 1014.6 |
| 20260906130318 | 78 | 116 | 0.0 | 0.9 | 0.00 | 0.00 | 0.00 | 88 | 1014.6 |
| 20260906130215 | 78 | 114 | 0.0 | 0.9 | 0.00 | 0.00 | 0.00 | 88 | 1014.6 |
| 20260906130115 | 78 | 114 | 0.0 | 0.9 | 0.00 | 0.00 | 0.00 | 88 | 1014.6 |
| 20260906130014 | 78 | 114 | 0.0 | 0.9 | 0.00 | 0.00 | 0.00 | 88 | 1014.5 |
| 20260906125915 | 77 | 114 | 0.0 | 0.9 | 0.00 | 0.00 | 0.00 | 88 | 1014.5 |
| 20260906125813 | 77 | 114 | 0.0 | 0.9 | 0.00 | 0.00 | 0.00 | 88 | 1014.5 |
| 20260906125711 | 77 | 114 | 0.0 | 0.9 | 0.00 | 0.00 | 0.00 | 88 | 1014.5 |
| 20260906125611 | 77 | 114 | 0.0 | 0.9 | 0.00 | 0.00 | 0.00 | 88 | 1014.5 |
| 20260906125518 | 77 | 114 | 0.0 | 1.7 | 0.00 | 0.00 | 0.00 | 88 | 1014.4 |
| 20260906125510 | 77 | 114 | 0.0 | 0.9 | 0.00 | 0.00 | 0.00 | 88 | 1014.5 |
| 20260906125440 | 77 | 114 | 0.0 | 1.7 | 0.00 | 0.00 | 0.00 | 88 | 1014.4 |
| 20260906125406 | 77 | 114 | 0.0 | 1.7 | 0.00 | 0.00 | 0.00 | 88 | 1014.4 |
| 20260906125337 | 77 | 114 | 0.0 | 1.7 | 0.00 | 0.00 | 0.00 | 88 | 1014.4 |
| 20260906125319 | 77 | 114 | 0.0 | 1.7 | 0.00 | 0.00 | 0.00 | 88 | 1014.4 |
| 20260906125305 | 77 | 114 | 0.0 | 1.7 | 0.00 | 0.00 | 0.00 | 88 | 1014.4 |
| 20260906125021 | 77 | 114 | 0.0 | 1.7 | 0.00 | 0.00 | 0.00 | 88 | 1014.3 |
| 20260906124949 | 77 | 114 | 0.0 | 1.7 | 0.00 | 0.00 | 0.00 | 88 | 1014.3 |
| 20260906124922 | 77 | 114 | 0.0 | 1.7 | 0.00 | 0.00 | 0.00 | 88 | 1014.4 |
| 20260906124849 | 77 | 114 | 0.0 | 1.7 | 0.00 | 0.00 | 0.00 | 88 | 1014.4 |
| 20260906124553 | 77 | 114 | 0.9 | 1.7 | 0.00 | 0.00 | 0.00 | 88 | 1014.4 |
| 20260906124437 | 77 | 114 | 0.9 | 1.7 | 0.00 | 0.00 | 0.00 | 88 | 1014.5 |
| 20260906124335 | 77 | 116 | 0.0 | 0.9 | 0.00 | 0.00 | 0.00 | 88 | 1014.4 |
| 20260906124233 | 77 | 116 | 0.0 | 0.9 | 0.00 | 0.00 | 0.00 | 88 | 1014.4 |
| 20260906124131 | 77 | 116 | 0.0 | 0.9 | 0.00 | 0.00 | 0.00 | 88 | 1014.4 |
| 20260906124033 | 77 | 116 | 0.0 | 0.9 | 0.00 | 0.00 | 0.00 | 88 | 1014.3 |
| 20260906123934 | 77 | 116 | 0.9 | 0.9 | 0.00 | 0.00 | 0.00 | 88 | 1014.3 |
| 20260906123833 | 77 | 114 | 0.0 | 0.9 | 0.00 | 0.00 | 0.00 | 88 | 1014.3 |
| 20260906123733 | 77 | 111 | 0.0 | 0.9 | 0.00 | 0.00 | 0.00 | 88 | 1014.3 |
| 20260906123628 | 77 | 111 | 0.9 | 0.9 | 0.00 | 0.00 | 0.00 | 88 | 1014.3 |
| 20260906123534 | 77 | 111 | 0.0 | 0.9 | 0.00 | 0.00 | 0.00 | 88 | 1014.3 |
| 20260906123433 | 77 | 111 | 0.0 | 0.9 | 0.00 | 0.00 | 0.00 | 88 | 1014.3 |
| 20260906123332 | 77 | 111 | 0.0 | 0.9 | 0.00 | 0.00 | 0.00 | 88 | 1014.3 |
| 20260906123235 | 77 | 111 | 0.0 | 0.9 | 0.00 | 0.00 | 0.00 | 88 | 1014.3 |
| 20260906123128 | 77 | 111 | 0.0 | 0.9 | 0.00 | 0.00 | 0.00 | 88 | 1014.3 |
| 20260906123034 | 77 | 111 | 0.0 | 0.9 | 0.00 | 0.00 | 0.00 | 88 | 1014.3 |
| 20260906122934 | 77 | 111 | 0.0 | 0.9 | 0.00 | 0.00 | 0.00 | 88 | 1014.3 |
| 20260906122833 | 77 | 111 | 0.0 | 0.9 | 0.00 | 0.00 | 0.00 | 88 | 1014.3 |
| 20260906122733 | 77 | 111 | 0.0 | 0.9 | 0.00 | 0.00 | 0.00 | 88 | 1014.2 |
| 20260906122630 | 77 | 111 | 0.0 | 0.9 | 0.00 | 0.00 | 0.00 | 88 | 1014.2 |
| 20260906122533 | 77 | 111 | 0.0 | 0.9 | 0.00 | 0.00 | 0.00 | 88 | 1014.2 |
| 20260906122434 | 77 | 111 | 0.0 | 0.9 | 0.00 | 0.00 | 0.00 | 88 | 1014.2 |
| 20260906122332 | 77 | 111 | 0.0 | 0.9 | 0.00 | 0.00 | 0.00 | 87 | 1014.2 |
| 20260906122233 | 77 | 111 | 0.0 | 1.7 | 0.00 | 0.00 | 0.00 | 87 | 1014.1 |
| 20260906122129 | 77 | 111 | 0.0 | 1.7 | 0.00 | 0.00 | 0.00 | 87 | 1014.1 |
| 20260906122033 | 77 | 111 | 0.0 | 1.7 | 0.00 | 0.00 | 0.00 | 87 | 1014.2 |
| 20260906121934 | 77 | 111 | 0.0 | 1.7 | 0.00 | 0.00 | 0.00 | 87 | 1014.1 |
| 20260906121833 | 77 | 111 | 0.0 | 1.7 | 0.00 | 0.00 | 0.00 | 87 | 1014.2 |
| 20260906121733 | 77 | 111 | 0.0 | 1.7 | 0.00 | 0.00 | 0.00 | 87 | 1014.2 |
| 20260906121630 | 77 | 111 | 0.0 | 1.7 | 0.00 | 0.00 | 0.00 | 88 | 1014.2 |
| 20260906121547 | 77 | 111 | 0.0 | 1.7 | 0.00 | 0.00 | 0.00 | 88 | 1014.1 |
| 20260906121535 | 77 | 111 | 0.0 | 1.7 | 0.00 | 0.00 | 0.00 | 88 | 1014.2 |
| 20260906121503 | 77 | 111 | 0.0 | 1.7 | 0.00 | 0.00 | 0.00 | 88 | 1014.2 |
| 20260906121435 | 77 | 111 | 0.0 | 1.7 | 0.00 | 0.00 | 0.00 | 88 | 1014.1 |
| 20260906121408 | 77 | 111 | 0.0 | 1.7 | 0.00 | 0.00 | 0.00 | 88 | 1014.2 |
| 20260906121338 | 77 | 111 | 0.0 | 1.7 | 0.00 | 0.00 | 0.00 | 88 | 1014.1 |
| 20260906121029 | 77 | 111 | 0.0 | 1.7 | 0.00 | 0.00 | 0.00 | 88 | 1014.1 |
| 20260906120929 | 77 | 111 | 0.0 | 1.7 | 0.00 | 0.00 | 0.00 | 88 | 1014.1 |
| 20260906120809 | 77 | 111 | 0.0 | 1.7 | 0.00 | 0.00 | 0.00 | 88 | 1014.2 |
| 20260906120708 | 77 | 111 | 0.0 | 1.7 | 0.00 | 0.00 | 0.00 | 88 | 1014.2 |
| 20260906120628 | 77 | 113 | 0.0 | 1.7 | 0.00 | 0.00 | 0.00 | 88 | 1014.2 |
| 20260906120605 | 77 | 113 | 0.9 | 1.7 | 0.00 | 0.00 | 0.00 | 88 | 1014.2 |
| 20260906120502 | 77 | 113 | 0.9 | 1.7 | 0.00 | 0.00 | 0.00 | 88 | 1014.1 |
| 20260906120402 | 77 | 121 | 0.9 | 1.7 | 0.00 | 0.00 | 0.00 | 88 | 1014.1 |
| 20260906120303 | 77 | 125 | 0.0 | 1.7 | 0.00 | 0.00 | 0.00 | 88 | 1014.2 |
| 20260906120204 | 77 | 125 | 0.0 | 1.7 | 0.00 | 0.00 | 0.00 | 88 | 1014.0 |
| 20260906120127 | 77 | 125 | 0.0 | 1.7 | 0.00 | 0.00 | 0.00 | 88 | 1014.0 |
| 20260906120005 | 77 | 125 | 0.0 | 1.7 | 0.00 | 0.00 | 0.00 | 87 | 1014.1 |
| 20260906115902 | 77 | 125 | 0.0 | 1.7 | 0.00 | 0.00 | 0.00 | 87 | 1014.1 |
| 20260906115803 | 77 | 125 | 0.0 | 1.7 | 0.00 | 0.00 | 0.00 | 87 | 1014.1 |
| 20260906115702 | 77 | 125 | 0.9 | 1.7 | 0.00 | 0.00 | 0.00 | 87 | 1014.1 |
| 20260906115602 | 77 | 125 | 0.9 | 1.7 | 0.00 | 0.00 | 0.00 | 87 | 1014.1 |
| 20260906115504 | 77 | 125 | 0.9 | 1.7 | 0.00 | 0.00 | 0.00 | 87 | 1014.1 |
| 20260906115402 | 77 | 125 | 0.9 | 1.7 | 0.00 | 0.00 | 0.00 | 87 | 1014.1 |
| 20260906115306 | 77 | 125 | 0.0 | 0.9 | 0.00 | 0.00 | 0.00 | 87 | 1014.1 |
| 20260906115204 | 77 | 125 | 0.0 | 1.7 | 0.00 | 0.00 | 0.00 | 87 | 1014.0 |
| 20260906115127 | 77 | 125 | 0.0 | 1.7 | 0.00 | 0.00 | 0.00 | 87 | 1014.0 |
| 20260906115102 | 77 | 125 | 0.0 | 1.7 | 0.00 | 0.00 | 0.00 | 87 | 1014.1 |
| 20260906115004 | 77 | 125 | 0.0 | 1.7 | 0.00 | 0.00 | 0.00 | 87 | 1014.0 |
| 20260906114903 | 77 | 125 | 0.0 | 1.7 | 0.00 | 0.00 | 0.00 | 87 | 1014.0 |
| 20260906114805 | 77 | 125 | 0.0 | 1.7 | 0.00 | 0.00 | 0.00 | 87 | 1014.0 |
| 20260906114704 | 77 | 125 | 0.0 | 1.7 | 0.00 | 0.00 | 0.00 | 87 | 1014.0 |
| 20260906114629 | 77 | 125 | 0.0 | 1.7 | 0.00 | 0.00 | 0.00 | 87 | 1014.0 |
| 20260906114603 | 77 | 125 | 0.0 | 1.7 | 0.00 | 0.00 | 0.00 | 87 | 1013.9 |
| 20260906114504 | 77 | 125 | 0.0 | 1.7 | 0.00 | 0.00 | 0.00 | 87 | 1013.9 |
| 20260906114404 | 77 | 125 | 0.0 | 2.6 | 0.00 | 0.00 | 0.00 | 87 | 1013.9 |
| 20260906114302 | 77 | 125 | 0.9 | 2.6 | 0.00 | 0.00 | 0.00 | 87 | 1013.9 |
| 20260906114203 | 77 | 125 | 0.0 | 2.6 | 0.00 | 0.00 | 0.00 | 87 | 1013.8 |
| 20260906114129 | 77 | 125 | 0.0 | 2.6 | 0.00 | 0.00 | 0.00 | 87 | 1013.8 |
| 20260906114103 | 77 | 125 | 0.9 | 2.6 | 0.00 | 0.00 | 0.00 | 87 | 1013.9 |
| 20260906113955 | 77 | 125 | 0.9 | 2.6 | 0.00 | 0.00 | 0.00 | 87 | 1013.9 |
| 20260906113854 | 77 | 125 | 0.9 | 2.6 | 0.00 | 0.00 | 0.00 | 87 | 1013.9 |
| 20260906113753 | 77 | 125 | 0.9 | 2.6 | 0.00 | 0.00 | 0.00 | 87 | 1013.9 |
| 20260906113652 | 77 | 125 | 1.7 | 2.6 | 0.00 | 0.00 | 0.00 | 87 | 1013.9 |
| 20260906113628 | 77 | 127 | 1.7 | 2.6 | 0.00 | 0.00 | 0.00 | 87 | 1013.9 |
| 20260906113550 | 77 | 127 | 0.9 | 2.6 | 0.00 | 0.00 | 0.00 | 87 | 1013.9 |
| 20260906113445 | 77 | 131 | 0.9 | 2.6 | 0.00 | 0.00 | 0.00 | 87 | 1013.9 |
| 20260906113345 | 77 | 131 | 1.7 | 3.5 | 0.00 | 0.00 | 0.00 | 87 | 1013.9 |
| 20260906113235 | 77 | 116 | 1.7 | 3.5 | 0.00 | 0.00 | 0.00 | 87 | 1013.9 |
| 20260906113124 | 77 | 107 | 1.7 | 3.5 | 0.00 | 0.00 | 0.00 | 87 | 1013.9 |
| 20260906113045 | 77 | 121 | 1.7 | 3.5 | 0.00 | 0.00 | 0.00 | 86 | 1013.8 |
| 20260906113037 | 77 | 104 | 1.7 | 3.5 | 0.00 | 0.00 | 0.00 | 87 | 1013.9 |
| 20260906113007 | 77 | 104 | 0.9 | 3.5 | 0.00 | 0.00 | 0.00 | 87 | 1013.9 |
| 20260906112938 | 77 | 113 | 0.9 | 3.5 | 0.00 | 0.00 | 0.00 | 87 | 1013.8 |
| 20260906112907 | 77 | 111 | 1.7 | 3.5 | 0.00 | 0.00 | 0.00 | 87 | 1013.9 |
| 20260906112837 | 77 | 121 | 1.7 | 3.5 | 0.00 | 0.00 | 0.00 | 86 | 1013.8 |
| 20260906112531 | 77 | 114 | 1.7 | 3.5 | 0.00 | 0.00 | 0.00 | 86 | 1013.8 |
| 20260906112431 | 77 | 114 | 1.7 | 3.5 | 0.00 | 0.00 | 0.00 | 86 | 1013.8 |
| 20260906112332 | 77 | 121 | 1.7 | 3.5 | 0.00 | 0.00 | 0.00 | 86 | 1013.8 |
| 20260906112231 | 77 | 120 | 2.6 | 3.5 | 0.00 | 0.00 | 0.00 | 86 | 1013.8 |
| 20260906112125 | 77 | 96 | 1.7 | 3.5 | 0.00 | 0.00 | 0.00 | 86 | 1013.8 |
| 20260906112023 | 77 | 134 | 1.7 | 3.5 | 0.00 | 0.00 | 0.00 | 86 | 1013.8 |
| 20260906111922 | 77 | 135 | 1.7 | 3.5 | 0.00 | 0.00 | 0.00 | 86 | 1013.7 |
| 20260906111820 | 77 | 127 | 1.7 | 2.6 | 0.00 | 0.00 | 0.00 | 86 | 1013.7 |
| 20260906111711 | 77 | 125 | 1.7 | 2.6 | 0.00 | 0.00 | 0.00 | 86 | 1013.8 |
| 20260906111624 | 77 | 125 | 1.7 | 2.6 | 0.00 | 0.00 | 0.00 | 86 | 1013.8 |
| 20260906111611 | 77 | 125 | 1.7 | 2.6 | 0.00 | 0.00 | 0.00 | 86 | 1013.7 |
| 20260906111511 | 77 | 125 | 1.7 | 2.6 | 0.00 | 0.00 | 0.00 | 86 | 1013.7 |
| 20260906111409 | 77 | 125 | 1.7 | 2.6 | 0.00 | 0.00 | 0.00 | 86 | 1013.7 |
| 20260906111307 | 78 | 116 | 1.7 | 2.6 | 0.00 | 0.00 | 0.00 | 86 | 1013.7 |
| 20260906111208 | 78 | 116 | 1.7 | 2.6 | 0.00 | 0.00 | 0.00 | 86 | 1013.7 |
| 20260906111108 | 78 | 118 | 0.9 | 2.6 | 0.00 | 0.00 | 0.00 | 86 | 1013.7 |
| 20260906111007 | 78 | 118 | 1.7 | 2.6 | 0.00 | 0.00 | 0.00 | 86 | 1013.6 |
| 20260906110948 | 78 | 118 | 0.9 | 2.6 | 0.00 | 0.00 | 0.00 | 85 | 1013.7 |
| 20260906110925 | 78 | 118 | 1.7 | 2.6 | 0.00 | 0.00 | 0.00 | 86 | 1013.6 |
| 20260906110857 | 78 | 120 | 0.9 | 2.6 | 0.00 | 0.00 | 0.00 | 86 | 1013.7 |
| 20260906110827 | 78 | 120 | 0.9 | 2.6 | 0.00 | 0.00 | 0.00 | 85 | 1013.7 |
| 20260906110806 | 78 | 117 | 0.0 | 2.6 | 0.00 | 0.00 | 0.00 | 85 | 1013.7 |
| 20260906110753 | 78 | 120 | 0.0 | 2.6 | 0.00 | 0.00 | 0.00 | 85 | 1013.7 |
| 20260906110514 | 78 | 120 | 0.9 | 2.6 | 0.00 | 0.00 | 0.00 | 85 | 1013.7 |
| 20260906110446 | 78 | 118 | 1.7 | 2.6 | 0.00 | 0.00 | 0.00 | 85 | 1013.7 |
| 20260906110415 | 78 | 118 | 0.9 | 2.6 | 0.00 | 0.00 | 0.00 | 85 | 1013.7 |
| 20260906110346 | 78 | 118 | 0.9 | 2.6 | 0.00 | 0.00 | 0.00 | 85 | 1013.7 |
| 20260906110106 | 78 | 118 | 1.7 | 2.6 | 0.00 | 0.00 | 0.00 | 85 | 1013.7 |
| 20260906110027 | 78 | 135 | 1.7 | 1.7 | 0.00 | 0.00 | 0.00 | 85 | 1013.6 |
| 20260906110015 | 78 | 137 | 1.7 | 2.6 | 0.00 | 0.00 | 0.00 | 85 | 1013.8 |
| 20260906105945 | 78 | 137 | 0.9 | 1.7 | 0.00 | 0.00 | 0.00 | 85 | 1013.7 |
| 20260906105916 | 78 | 137 | 1.7 | 1.7 | 0.00 | 0.00 | 0.00 | 85 | 1013.7 |
| 20260906105846 | 78 | 135 | 1.7 | 1.7 | 0.00 | 0.00 | 0.00 | 85 | 1013.7 |
| 20260906105606 | 78 | 135 | 0.9 | 1.7 | 0.00 | 0.00 | 0.00 | 85 | 1013.6 |
| 20260906105506 | 78 | 135 | 0.9 | 1.7 | 0.00 | 0.00 | 0.00 | 84 | 1013.6 |
| 20260906105402 | 78 | 135 | 0.9 | 1.7 | 0.00 | 0.00 | 0.00 | 84 | 1013.6 |
| 20260906105301 | 78 | 135 | 0.9 | 1.7 | 0.00 | 0.00 | 0.00 | 84 | 1013.5 |
| 20260906105200 | 78 | 135 | 0.9 | 1.7 | 0.00 | 0.00 | 0.00 | 84 | 1013.5 |
| 20260906105116 | 78 | 135 | 0.0 | 1.7 | 0.00 | 0.00 | 0.00 | 84 | 1013.5 |
| 20260906105058 | 78 | 135 | 0.0 | 1.7 | 0.00 | 0.00 | 0.00 | 84 | 1013.5 |
| 20260906104957 | 78 | 135 | 0.9 | 1.7 | 0.00 | 0.00 | 0.00 | 84 | 1013.4 |
| 20260906104855 | 78 | 135 | 0.9 | 1.7 | 0.00 | 0.00 | 0.00 | 84 | 1013.4 |
| 20260906104755 | 78 | 135 | 0.0 | 0.9 | 0.00 | 0.00 | 0.00 | 84 | 1013.4 |
| 20260906104651 | 78 | 135 | 0.0 | 0.9 | 0.00 | 0.00 | 0.00 | 84 | 1013.5 |
| 20260906104616 | 78 | 135 | 0.0 | 0.9 | 0.00 | 0.00 | 0.00 | 84 | 1013.4 |
| 20260906104551 | 78 | 135 | 0.0 | 0.9 | 0.00 | 0.00 | 0.00 | 84 | 1013.4 |
| 20260906104448 | 78 | 135 | 0.0 | 0.9 | 0.00 | 0.00 | 0.00 | 84 | 1013.4 |
| 20260906104417 | 78 | 135 | 0.0 | 1.7 | 0.00 | 0.00 | 0.00 | 84 | 1013.3 |
| 20260906104401 | 78 | 135 | 0.0 | 0.9 | 0.00 | 0.00 | 0.00 | 84 | 1013.4 |
| 20260906104329 | 78 | 135 | 0.0 | 0.9 | 0.00 | 0.00 | 0.00 | 84 | 1013.4 |
| 20260906104259 | 78 | 135 | 0.0 | 0.9 | 0.00 | 0.00 | 0.00 | 84 | 1013.4 |
| 20260906104243 | 78 | 135 | 0.0 | 1.7 | 0.00 | 0.00 | 0.00 | 84 | 1013.4 |
| 20260906104225 | 78 | 135 | 0.0 | 1.7 | 0.00 | 0.00 | 0.00 | 84 | 1013.4 |
| 20260906103945 | 78 | 135 | 0.0 | 1.7 | 0.00 | 0.00 | 0.00 | 84 | 1013.4 |
| 20260906103913 | 78 | 135 | 0.9 | 1.7 | 0.00 | 0.00 | 0.00 | 84 | 1013.3 |
| 20260906103843 | 78 | 135 | 0.9 | 1.7 | 0.00 | 0.00 | 0.00 | 84 | 1013.4 |
| 20260906103811 | 78 | 135 | 0.9 | 1.7 | 0.00 | 0.00 | 0.00 | 84 | 1013.4 |
| 20260906103800 | 78 | 135 | 0.0 | 1.7 | 0.00 | 0.00 | 0.00 | 84 | 1013.4 |
| 20260906103532 | 78 | 135 | 0.0 | 1.7 | 0.00 | 0.00 | 0.00 | 84 | 1013.4 |
| 20260906103501 | 78 | 135 | 0.0 | 1.7 | 0.00 | 0.00 | 0.00 | 84 | 1013.3 |
| 20260906103432 | 78 | 135 | 0.9 | 1.7 | 0.00 | 0.00 | 0.00 | 84 | 1013.3 |
| 20260906103401 | 78 | 135 | 0.9 | 1.7 | 0.00 | 0.00 | 0.00 | 84 | 1013.4 |
| 20260906103330 | 78 | 135 | 0.0 | 1.7 | 0.00 | 0.00 | 0.00 | 84 | 1013.3 |
| 20260906103027 | 78 | 135 | 0.0 | 1.7 | 0.00 | 0.00 | 0.00 | 83 | 1013.3 |
| 20260906102919 | 78 | 135 | 0.0 | 1.7 | 0.00 | 0.00 | 0.00 | 83 | 1013.4 |
| 20260906102820 | 78 | 135 | 0.0 | 1.7 | 0.00 | 0.00 | 0.00 | 83 | 1013.4 |
| 20260906102719 | 78 | 135 | 0.9 | 1.7 | 0.00 | 0.00 | 0.00 | 83 | 1013.4 |
| 20260906102614 | 78 | 135 | 0.9 | 1.7 | 0.00 | 0.00 | 0.00 | 83 | 1013.4 |
| 20260906102517 | 78 | 135 | 0.9 | 1.7 | 0.00 | 0.00 | 0.00 | 83 | 1013.4 |
| 20260906102412 | 78 | 135 | 1.7 | 1.7 | 0.00 | 0.00 | 0.00 | 83 | 1013.3 |
| 20260906102311 | 78 | 135 | 0.9 | 1.7 | 0.00 | 0.00 | 0.00 | 83 | 1013.4 |
| 20260906102210 | 78 | 135 | 0.9 | 1.7 | 0.00 | 0.00 | 0.00 | 83 | 1013.5 |
| 20260906102106 | 78 | 135 | 0.9 | 1.7 | 0.00 | 0.00 | 0.00 | 83 | 1013.4 |
| 20260906102006 | 78 | 135 | 0.9 | 1.7 | 0.00 | 0.00 | 0.00 | 83 | 1013.4 |
| 20260906101903 | 78 | 135 | 0.9 | 1.7 | 0.00 | 0.00 | 0.00 | 83 | 1013.4 |
| 20260906101805 | 78 | 135 | 0.0 | 1.7 | 0.00 | 0.00 | 0.00 | 83 | 1013.3 |
| 20260906101657 | 78 | 135 | 0.0 | 1.7 | 0.00 | 0.00 | 0.00 | 83 | 1013.5 |
| 20260906101607 | 78 | 135 | 0.9 | 1.7 | 0.00 | 0.00 | 0.00 | 83 | 1013.4 |
| 20260906101557 | 78 | 135 | 0.9 | 1.7 | 0.00 | 0.00 | 0.00 | 83 | 1013.4 |
| 20260906101455 | 78 | 135 | 0.0 | 1.7 | 0.00 | 0.00 | 0.00 | 82 | 1013.4 |
| 20260906101346 | 78 | 135 | 0.0 | 0.9 | 0.00 | 0.00 | 0.00 | 82 | 1013.4 |
| 20260906101244 | 79 | 135 | 0.0 | 0.0 | 0.00 | 0.00 | 0.00 | 83 | 1013.5 |
| 20260906101143 | 79 | 135 | 0.0 | 0.0 | 0.00 | 0.00 | 0.00 | 83 | 1013.3 |
| 20260906101106 | 79 | 135 | 0.0 | 0.0 | 0.00 | 0.00 | 0.00 | 83 | 1013.4 |
| 20260906101043 | 79 | 135 | 0.0 | 0.0 | 0.00 | 0.00 | 0.00 | 83 | 1013.4 |
| 20260906100932 | 79 | 135 | 0.0 | 0.0 | 0.00 | 0.00 | 0.00 | 83 | 1013.4 |
| 20260906100833 | 79 | 135 | 0.0 | 0.0 | 0.00 | 0.00 | 0.00 | 83 | 1013.3 |
| 20260906100734 | 79 | 135 | 0.0 | 0.0 | 0.00 | 0.00 | 0.00 | 82 | 1013.4 |
| 20260906100632 | 79 | 135 | 0.0 | 0.0 | 0.00 | 0.00 | 0.00 | 82 | 1013.4 |
| 20260906100606 | 79 | 135 | 0.0 | 0.0 | 0.00 | 0.00 | 0.00 | 82 | 1013.3 |
| 20260906100532 | 79 | 135 | 0.0 | 0.0 | 0.00 | 0.00 | 0.00 | 82 | 1013.3 |
| 20260906100433 | 79 | 135 | 0.0 | 0.0 | 0.00 | 0.00 | 0.00 | 82 | 1013.4 |
| 20260906100332 | 79 | 135 | 0.0 | 0.0 | 0.00 | 0.00 | 0.00 | 82 | 1013.5 |
| 20260906100232 | 79 | 135 | 0.0 | 0.0 | 0.00 | 0.00 | 0.00 | 82 | 1013.4 |
| 20260906100106 | 79 | 135 | 0.0 | 0.0 | 0.00 | 0.00 | 0.00 | 82 | 1013.4 |
| 20260906100031 | 79 | 135 | 0.0 | 0.0 | 0.00 | 0.00 | 0.00 | 82 | 1013.4 |
| 20260906095928 | 79 | 135 | 0.0 | 0.0 | 0.00 | 0.00 | 0.00 | 82 | 1013.4 |
| 20260906095827 | 79 | 135 | 0.0 | 0.0 | 0.00 | 0.00 | 0.00 | 82 | 1013.3 |
| 20260906095726 | 79 | 135 | 0.0 | 0.0 | 0.00 | 0.00 | 0.00 | 82 | 1013.4 |
| 20260906095605 | 79 | 135 | 0.0 | 0.0 | 0.00 | 0.00 | 0.00 | 82 | 1013.3 |
| 20260906095525 | 79 | 135 | 0.0 | 0.0 | 0.00 | 0.00 | 0.00 | 82 | 1013.3 |
| 20260906095506 | 79 | 135 | 0.0 | 0.0 | 0.00 | 0.00 | 0.00 | 82 | 1013.3 |
| 20260906095446 | 79 | 135 | 0.0 | 0.0 | 0.00 | 0.00 | 0.00 | 82 | 1013.3 |
| 20260906095417 | 79 | 135 | 0.0 | 0.0 | 0.00 | 0.00 | 0.00 | 82 | 1013.4 |
| 20260906095348 | 79 | 135 | 0.0 | 0.0 | 0.00 | 0.00 | 0.00 | 82 | 1013.3 |
| 20260906095319 | 79 | 135 | 0.0 | 0.0 | 0.00 | 0.00 | 0.00 | 82 | 1013.3 |
| 20260906095018 | 79 | 135 | 0.0 | 0.0 | 0.00 | 0.00 | 0.00 | 82 | 1013.3 |
| 20260906094918 | 79 | 135 | 0.0 | 0.0 | 0.00 | 0.00 | 0.00 | 82 | 1013.3 |
| 20260906094815 | 79 | 135 | 0.0 | 0.0 | 0.00 | 0.00 | 0.00 | 82 | 1013.3 |
| 20260906094715 | 79 | 135 | 0.0 | 0.0 | 0.00 | 0.00 | 0.00 | 82 | 1013.3 |
| 20260906094605 | 79 | 135 | 0.0 | 0.0 | 0.00 | 0.00 | 0.00 | 82 | 1013.1 |
| 20260906094512 | 79 | 135 | 0.0 | 0.0 | 0.00 | 0.00 | 0.00 | 81 | 1013.3 |
| 20260906094407 | 79 | 135 | 0.0 | 0.0 | 0.00 | 0.00 | 0.00 | 81 | 1013.3 |
| 20260906094305 | 79 | 135 | 0.0 | 0.0 | 0.00 | 0.00 | 0.00 | 81 | 1013.1 |
| 20260906094206 | 79 | 135 | 0.0 | 0.0 | 0.00 | 0.00 | 0.00 | 81 | 1013.3 |
| 20260906094102 | 79 | 135 | 0.0 | 0.0 | 0.00 | 0.00 | 0.00 | 81 | 1013.1 |
| 20260906094005 | 79 | 135 | 0.0 | 0.0 | 0.00 | 0.00 | 0.00 | 81 | 1013.1 |
| 20260906093905 | 79 | 135 | 0.0 | 0.0 | 0.00 | 0.00 | 0.00 | 81 | 1013.1 |
| 20260906093806 | 79 | 135 | 0.0 | 0.0 | 0.00 | 0.00 | 0.00 | 81 | 1013.1 |
| 20260906093705 | 79 | 135 | 0.0 | 0.0 | 0.00 | 0.00 | 0.00 | 81 | 1013.1 |
| 20260906093549 | 79 | 135 | 0.0 | 0.0 | 0.00 | 0.00 | 0.00 | 81 | 1013.1 |
| 20260906093502 | 79 | 135 | 0.0 | 0.0 | 0.00 | 0.00 | 0.00 | 81 | 1013.1 |
| 20260906093358 | 80 | 135 | 0.0 | 0.0 | 0.00 | 0.00 | 0.00 | 81 | 1013.1 |
| 20260906093258 | 80 | 135 | 0.0 | 0.0 | 0.00 | 0.00 | 0.00 | 81 | 1013.1 |
| 20260906093152 | 80 | 135 | 0.0 | 0.0 | 0.00 | 0.00 | 0.00 | 81 | 1013.0 |
| 20260906093048 | 80 | 135 | 0.0 | 0.0 | 0.00 | 0.00 | 0.00 | 81 | 1013.0 |
| 20260906092944 | 80 | 135 | 0.0 | 0.0 | 0.00 | 0.00 | 0.00 | 81 | 1013.0 |
| 20260906092842 | 80 | 135 | 0.0 | 0.0 | 0.00 | 0.00 | 0.00 | 81 | 1012.9 |
| 20260906092741 | 80 | 135 | 0.0 | 0.0 | 0.00 | 0.00 | 0.00 | 81 | 1012.9 |
| 20260906092639 | 80 | 135 | 0.0 | 0.0 | 0.00 | 0.00 | 0.00 | 81 | 1012.9 |
| 20260906092539 | 80 | 135 | 0.0 | 0.0 | 0.00 | 0.00 | 0.00 | 81 | 1013.0 |
| 20260906092436 | 80 | 135 | 0.0 | 0.0 | 0.00 | 0.00 | 0.00 | 81 | 1012.9 |
| 20260906092404 | 80 | 135 | 0.0 | 0.0 | 0.00 | 0.00 | 0.00 | 81 | 1013.0 |
| 20260906092232 | 80 | 135 | 0.0 | 0.0 | 0.00 | 0.00 | 0.00 | 81 | 1012.9 |
| 20260906092130 | 80 | 135 | 0.0 | 0.0 | 0.00 | 0.00 | 0.00 | 81 | 1012.9 |
| 20260906092032 | 80 | 135 | 0.0 | 0.0 | 0.00 | 0.00 | 0.00 | 81 | 1013.0 |
| 20260906091928 | 80 | 135 | 0.0 | 0.0 | 0.00 | 0.00 | 0.00 | 81 | 1013.0 |
| 20260906091827 | 80 | 135 | 0.0 | 0.0 | 0.00 | 0.00 | 0.00 | 81 | 1012.9 |
| 20260906091726 | 80 | 135 | 0.0 | 0.0 | 0.00 | 0.00 | 0.00 | 81 | 1012.9 |
| 20260906091626 | 80 | 135 | 0.0 | 0.0 | 0.00 | 0.00 | 0.00 | 81 | 1013.0 |
| 20260906091526 | 80 | 135 | 0.0 | 0.0 | 0.00 | 0.00 | 0.00 | 80 | 1012.9 |
| 20260906091426 | 80 | 141 | 0.0 | 0.0 | 0.00 | 0.00 | 0.00 | 80 | 1012.9 |
| 20260906091325 | 80 | 141 | 0.0 | 0.0 | 0.00 | 0.00 | 0.00 | 80 | 1012.9 |
| 20260906091226 | 80 | 141 | 0.0 | 0.0 | 0.00 | 0.00 | 0.00 | 80 | 1013.0 |
| 20260906091125 | 80 | 142 | 0.0 | 0.0 | 0.00 | 0.00 | 0.00 | 80 | 1013.0 |
| 20260906091026 | 80 | 148 | 0.0 | 0.0 | 0.00 | 0.00 | 0.00 | 80 | 1013.0 |
| 20260906090925 | 80 | 148 | 0.0 | 0.0 | 0.00 | 0.00 | 0.00 | 80 | 1012.9 |
| 20260906090820 | 80 | 148 | 0.0 | 0.0 | 0.00 | 0.00 | 0.00 | 80 | 1012.9 |
| 20260906090719 | 80 | 148 | 0.0 | 0.0 | 0.00 | 0.00 | 0.00 | 79 | 1012.9 |
| 20260906090617 | 80 | 148 | 0.0 | 0.0 | 0.00 | 0.00 | 0.00 | 79 | 1012.9 |
| 20260906090541 | 80 | 148 | 0.0 | 0.0 | 0.00 | 0.00 | 0.00 | 80 | 1012.9 |
| 20260906090514 | 80 | 149 | 0.0 | 0.0 | 0.00 | 0.00 | 0.00 | 80 | 1012.9 |
| 20260906090426 | 80 | 151 | 0.0 | 0.0 | 0.00 | 0.00 | 0.00 | 79 | 1012.9 |
| 20260906090416 | 80 | 149 | 0.0 | 0.0 | 0.00 | 0.00 | 0.00 | 79 | 1012.9 |
| 20260906090343 | 80 | 149 | 0.0 | 0.0 | 0.00 | 0.00 | 0.00 | 79 | 1012.9 |
| 20260906090311 | 80 | 149 | 0.0 | 0.0 | 0.00 | 0.00 | 0.00 | 79 | 1012.9 |
| 20260906090242 | 80 | 149 | 0.0 | 0.0 | 0.00 | 0.00 | 0.00 | 79 | 1012.9 |
| 20260906090208 | 80 | 149 | 0.0 | 0.0 | 0.00 | 0.00 | 0.00 | 79 | 1012.9 |
| 20260906085930 | 80 | 151 | 0.0 | 0.0 | 0.00 | 0.00 | 0.00 | 79 | 1012.9 |
| 20260906085901 | 80 | 151 | 0.0 | 0.0 | 0.00 | 0.00 | 0.00 | 79 | 1013.0 |
| 20260906085830 | 80 | 151 | 0.0 | 0.0 | 0.00 | 0.00 | 0.00 | 79 | 1012.9 |
| 20260906085759 | 80 | 151 | 0.0 | 0.0 | 0.00 | 0.00 | 0.00 | 79 | 1012.9 |
| 20260906085502 | 80 | 151 | 0.0 | 0.0 | 0.00 | 0.00 | 0.00 | 79 | 1012.9 |
| 20260906085449 | 80 | 151 | 0.0 | 0.0 | 0.00 | 0.00 | 0.00 | 79 | 1012.8 |
| 20260906085430 | 80 | 151 | 0.0 | 0.0 | 0.00 | 0.00 | 0.00 | 79 | 1013.0 |
| 20260906085356 | 80 | 151 | 0.0 | 0.0 | 0.00 | 0.00 | 0.00 | 79 | 1012.8 |
| 20260906085328 | 80 | 151 | 0.0 | 0.0 | 0.00 | 0.00 | 0.00 | 79 | 1012.9 |
| 20260906085259 | 80 | 151 | 0.0 | 0.0 | 0.00 | 0.00 | 0.00 | 79 | 1012.8 |
| 20260906085004 | 80 | 151 | 0.0 | 0.0 | 0.00 | 0.00 | 0.00 | 79 | 1012.7 |
| 20260906084903 | 80 | 151 | 0.0 | 0.0 | 0.00 | 0.00 | 0.00 | 79 | 1012.8 |
| 20260906084804 | 80 | 151 | 0.0 | 0.0 | 0.00 | 0.00 | 0.00 | 79 | 1012.8 |
| 20260906084703 | 80 | 151 | 0.0 | 0.0 | 0.00 | 0.00 | 0.00 | 79 | 1012.8 |
| 20260906084602 | 80 | 151 | 0.0 | 0.0 | 0.00 | 0.00 | 0.00 | 79 | 1012.9 |
| 20260906084539 | 80 | 151 | 0.0 | 0.0 | 0.00 | 0.00 | 0.00 | 79 | 1012.9 |
| 20260906084503 | 80 | 151 | 0.0 | 0.9 | 0.00 | 0.00 | 0.00 | 79 | 1012.8 |
| 20260906084403 | 80 | 151 | 0.0 | 0.9 | 0.00 | 0.00 | 0.00 | 79 | 1012.9 |
| 20260906084304 | 80 | 151 | 0.0 | 0.9 | 0.00 | 0.00 | 0.00 | 79 | 1012.8 |
| 20260906084201 | 80 | 151 | 0.0 | 0.9 | 0.00 | 0.00 | 0.00 | 79 | 1012.9 |
| 20260906084036 | 80 | 151 | 0.0 | 0.9 | 0.00 | 0.00 | 0.00 | 79 | 1012.7 |
| 20260906083943 | 80 | 151 | 0.0 | 0.9 | 0.00 | 0.00 | 0.00 | 79 | 1012.8 |
| 20260906083839 | 80 | 151 | 0.0 | 0.9 | 0.00 | 0.00 | 0.00 | 79 | 1012.7 |
| 20260906083740 | 80 | 151 | 0.0 | 0.9 | 0.00 | 0.00 | 0.00 | 79 | 1012.6 |
| 20260906083634 | 80 | 151 | 0.0 | 0.9 | 0.00 | 0.00 | 0.00 | 79 | 1012.7 |
| 20260906083533 | 80 | 151 | 0.0 | 0.9 | 0.00 | 0.00 | 0.00 | 78 | 1012.8 |
| 20260906083431 | 80 | 151 | 0.0 | 0.9 | 0.00 | 0.00 | 0.00 | 78 | 1012.7 |
| 20260906083331 | 80 | 151 | 0.0 | 0.9 | 0.00 | 0.00 | 0.00 | 78 | 1012.7 |
| 20260906083233 | 80 | 151 | 0.0 | 0.9 | 0.00 | 0.00 | 0.00 | 78 | 1012.7 |
| 20260906083132 | 80 | 151 | 0.0 | 0.9 | 0.00 | 0.00 | 0.00 | 78 | 1012.8 |
| 20260906083029 | 80 | 151 | 0.0 | 0.9 | 0.00 | 0.00 | 0.00 | 78 | 1012.7 |
| 20260906082943 | 80 | 151 | 0.0 | 2.6 | 0.00 | 0.00 | 0.00 | 78 | 1012.6 |
| 20260906082931 | 80 | 151 | 0.0 | 0.9 | 0.00 | 0.00 | 0.00 | 78 | 1012.7 |
| 20260906082902 | 80 | 151 | 0.0 | 0.9 | 0.00 | 0.00 | 0.00 | 78 | 1012.7 |
| 20260906082833 | 80 | 151 | 0.0 | 0.9 | 0.00 | 0.00 | 0.00 | 78 | 1012.6 |
| 20260906082803 | 80 | 151 | 0.0 | 0.9 | 0.00 | 0.00 | 0.00 | 78 | 1012.7 |
| 20260906082524 | 80 | 151 | 0.0 | 2.6 | 0.00 | 0.00 | 0.00 | 78 | 1012.6 |
| 20260906082422 | 80 | 151 | 0.0 | 2.6 | 0.00 | 0.00 | 0.00 | 78 | 1012.6 |
| 20260906082323 | 81 | 151 | 0.0 | 2.6 | 0.00 | 0.00 | 0.00 | 78 | 1012.6 |
| 20260906082218 | 81 | 151 | 0.0 | 2.6 | 0.00 | 0.00 | 0.00 | 79 | 1012.6 |
| 20260906082115 | 80 | 151 | 0.0 | 2.6 | 0.00 | 0.00 | 0.00 | 78 | 1012.6 |
| 20260906082033 | 80 | 151 | 0.0 | 2.6 | 0.00 | 0.00 | 0.00 | 78 | 1012.6 |
| 20260906082008 | 81 | 151 | 0.0 | 2.6 | 0.00 | 0.00 | 0.00 | 78 | 1012.5 |
| 20260906081906 | 80 | 151 | 0.0 | 2.6 | 0.00 | 0.00 | 0.00 | 78 | 1012.6 |
| 20260906081807 | 80 | 151 | 0.0 | 2.6 | 0.00 | 0.00 | 0.00 | 78 | 1012.6 |
| 20260906081706 | 80 | 151 | 0.9 | 2.6 | 0.00 | 0.00 | 0.00 | 78 | 1012.6 |
| 20260906081607 | 80 | 151 | 0.9 | 2.6 | 0.00 | 0.00 | 0.00 | 78 | 1012.5 |
| 20260906081533 | 80 | 151 | 0.9 | 2.6 | 0.00 | 0.00 | 0.00 | 78 | 1012.5 |
| 20260906081507 | 80 | 157 | 0.9 | 2.6 | 0.00 | 0.00 | 0.00 | 78 | 1012.5 |
| 20260906081406 | 80 | 157 | 0.9 | 2.6 | 0.00 | 0.00 | 0.00 | 78 | 1012.5 |
| 20260906081306 | 80 | 157 | 0.9 | 2.6 | 0.00 | 0.00 | 0.00 | 78 | 1012.5 |
| 20260906081206 | 80 | 157 | 0.9 | 2.6 | 0.00 | 0.00 | 0.00 | 78 | 1012.6 |
| 20260906081106 | 80 | 157 | 0.9 | 2.6 | 0.00 | 0.00 | 0.00 | 78 | 1012.6 |
| 20260906081031 | 80 | 157 | 0.9 | 2.6 | 0.00 | 0.00 | 0.00 | 78 | 1012.6 |
| 20260906081001 | 80 | 157 | 1.7 | 2.6 | 0.00 | 0.00 | 0.00 | 78 | 1012.7 |
| 20260906080859 | 80 | 157 | 1.7 | 2.6 | 0.00 | 0.00 | 0.00 | 78 | 1012.6 |
| 20260906080759 | 80 | 157 | 1.7 | 2.6 | 0.00 | 0.00 | 0.00 | 78 | 1012.6 |
| 20260906080658 | 80 | 158 | 0.9 | 2.6 | 0.00 | 0.00 | 0.00 | 78 | 1012.6 |
| 20260906080535 | 80 | 158 | 0.9 | 2.6 | 0.00 | 0.00 | 0.00 | 78 | 1012.6 |
| 20260906080447 | 80 | 158 | 0.9 | 2.6 | 0.00 | 0.00 | 0.00 | 78 | 1012.7 |
| 20260906080341 | 80 | 158 | 0.9 | 2.6 | 0.00 | 0.00 | 0.00 | 78 | 1012.7 |
| 20260906080241 | 80 | 158 | 0.9 | 2.6 | 0.00 | 0.00 | 0.00 | 77 | 1012.7 |
| 20260906080140 | 80 | 158 | 1.7 | 2.6 | 0.00 | 0.00 | 0.00 | 77 | 1012.7 |
| 20260906080031 | 80 | 158 | 0.9 | 2.6 | 0.00 | 0.00 | 0.00 | 77 | 1012.7 |
| 20260906075936 | 80 | 142 | 0.9 | 2.6 | 0.00 | 0.00 | 0.00 | 77 | 1012.7 |
| 20260906075836 | 80 | 141 | 0.9 | 2.6 | 0.00 | 0.00 | 0.00 | 77 | 1012.7 |
| 20260906075732 | 81 | 141 | 1.7 | 2.6 | 0.00 | 0.00 | 0.00 | 77 | 1012.7 |
| 20260906075625 | 81 | 138 | 1.7 | 2.6 | 0.00 | 0.00 | 0.00 | 77 | 1012.7 |
| 20260906075524 | 81 | 138 | 1.7 | 2.6 | 0.00 | 0.00 | 0.00 | 77 | 1012.8 |
| 20260906075438 | 81 | 138 | 0.0 | 0.9 | 0.00 | 0.00 | 0.00 | 77 | 1012.7 |
| 20260906075425 | 81 | 138 | 0.9 | 1.7 | 0.00 | 0.00 | 0.00 | 76 | 1012.7 |
| 20260906075354 | 81 | 138 | 0.9 | 1.7 | 0.00 | 0.00 | 0.00 | 76 | 1012.7 |
| 20260906075327 | 81 | 138 | 0.9 | 1.7 | 0.00 | 0.00 | 0.00 | 76 | 1012.7 |
| 20260906075259 | 81 | 138 | 0.0 | 0.9 | 0.00 | 0.00 | 0.00 | 76 | 1012.7 |
| 20260906075014 | 81 | 138 | 0.0 | 0.9 | 0.00 | 0.00 | 0.00 | 77 | 1012.7 |
| 20260906074914 | 81 | 138 | 0.0 | 0.9 | 0.00 | 0.00 | 0.00 | 77 | 1012.6 |
| 20260906074809 | 81 | 138 | 0.0 | 0.9 | 0.00 | 0.00 | 0.00 | 76 | 1012.6 |
| 20260906074706 | 81 | 138 | 0.0 | 0.9 | 0.00 | 0.00 | 0.00 | 76 | 1012.6 |
| 20260906074606 | 81 | 138 | 0.0 | 0.9 | 0.00 | 0.00 | 0.00 | 76 | 1012.6 |
| 20260906074504 | 81 | 138 | 0.0 | 0.9 | 0.00 | 0.00 | 0.00 | 76 | 1012.6 |
| 20260906074404 | 81 | 138 | 0.0 | 0.9 | 0.00 | 0.00 | 0.00 | 76 | 1012.6 |
| 20260906074304 | 81 | 138 | 0.0 | 0.9 | 0.00 | 0.00 | 0.00 | 76 | 1012.6 |
| 20260906074205 | 81 | 138 | 0.0 | 0.9 | 0.00 | 0.00 | 0.00 | 76 | 1012.7 |
| 20260906074103 | 81 | 138 | 0.0 | 0.9 | 0.00 | 0.00 | 0.00 | 76 | 1012.7 |
| 20260906074003 | 81 | 138 | 0.0 | 0.9 | 0.00 | 0.00 | 0.00 | 76 | 1012.7 |
| 20260906073903 | 81 | 138 | 0.0 | 0.9 | 0.00 | 0.00 | 0.00 | 75 | 1012.7 |
| 20260906073803 | 81 | 138 | 0.0 | 0.9 | 0.00 | 0.00 | 0.00 | 75 | 1012.7 |
| 20260906073703 | 81 | 138 | 0.0 | 0.9 | 0.00 | 0.00 | 0.00 | 75 | 1012.7 |
| 20260906073603 | 81 | 138 | 0.0 | 0.9 | 0.00 | 0.00 | 0.00 | 75 | 1012.6 |
| 20260906073504 | 81 | 138 | 0.0 | 0.9 | 0.00 | 0.00 | 0.00 | 75 | 1012.7 |
| 20260906073403 | 81 | 138 | 0.0 | 0.9 | 0.00 | 0.00 | 0.00 | 75 | 1012.7 |
| 20260906073303 | 81 | 138 | 0.0 | 1.7 | 0.00 | 0.00 | 0.00 | 75 | 1012.7 |
| 20260906073203 | 81 | 138 | 0.0 | 1.7 | 0.00 | 0.00 | 0.00 | 75 | 1012.7 |
| 20260906073103 | 81 | 138 | 0.0 | 1.7 | 0.00 | 0.00 | 0.00 | 75 | 1012.6 |
| 20260906073004 | 81 | 138 | 0.0 | 1.7 | 0.00 | 0.00 | 0.00 | 75 | 1012.6 |
| 20260906072903 | 81 | 138 | 0.0 | 1.7 | 0.00 | 0.00 | 0.00 | 75 | 1012.7 |
| 20260906072803 | 81 | 138 | 0.0 | 1.7 | 0.00 | 0.00 | 0.00 | 75 | 1012.6 |
| 20260906072704 | 81 | 138 | 0.0 | 1.7 | 0.00 | 0.00 | 0.00 | 75 | 1012.7 |
| 20260906072604 | 81 | 138 | 0.0 | 1.7 | 0.00 | 0.00 | 0.00 | 75 | 1012.7 |
| 20260906072512 | 82 | 138 | 0.0 | 1.7 | 0.00 | 0.00 | 0.00 | 75 | 1012.7 |
| 20260906072504 | 82 | 138 | 0.9 | 1.7 | 0.00 | 0.00 | 0.00 | 75 | 1012.7 |
| 20260906072402 | 82 | 138 | 0.9 | 1.7 | 0.00 | 0.00 | 0.00 | 75 | 1012.8 |
| 20260906072305 | 82 | 138 | 0.0 | 1.7 | 0.00 | 0.00 | 0.00 | 75 | 1012.7 |
| 20260906072204 | 82 | 138 | 0.9 | 1.7 | 0.00 | 0.00 | 0.00 | 75 | 1012.7 |
| 20260906072103 | 82 | 138 | 0.0 | 1.7 | 0.00 | 0.00 | 0.00 | 74 | 1012.8 |
| 20260906072012 | 82 | 138 | 0.0 | 1.7 | 0.00 | 0.00 | 0.00 | 74 | 1012.8 |
| 20260906072001 | 82 | 138 | 0.0 | 1.7 | 0.00 | 0.00 | 0.00 | 74 | 1012.8 |
| 20260906071859 | 82 | 138 | 0.0 | 1.7 | 0.00 | 0.00 | 0.00 | 74 | 1012.8 |
| 20260906071756 | 82 | 138 | 0.0 | 1.7 | 0.00 | 0.00 | 0.00 | 74 | 1012.9 |
| 20260906071656 | 82 | 138 | 0.9 | 1.7 | 0.00 | 0.00 | 0.00 | 74 | 1012.9 |
| 20260906071554 | 82 | 138 | 0.9 | 1.7 | 0.00 | 0.00 | 0.00 | 74 | 1012.9 |
| 20260906071513 | 82 | 138 | 0.9 | 1.7 | 0.00 | 0.00 | 0.00 | 74 | 1012.9 |
| 20260906071453 | 82 | 138 | 0.9 | 1.7 | 0.00 | 0.00 | 0.00 | 74 | 1012.9 |
| 20260906071417 | 82 | 138 | 0.9 | 1.7 | 0.00 | 0.00 | 0.00 | 73 | 1013.1 |
| 20260906071403 | 82 | 138 | 0.0 | 1.7 | 0.00 | 0.00 | 0.00 | 73 | 1013.0 |
| 20260906071332 | 82 | 138 | 0.0 | 1.7 | 0.00 | 0.00 | 0.00 | 73 | 1013.0 |
| 20260906071302 | 82 | 138 | 0.9 | 1.7 | 0.00 | 0.00 | 0.00 | 73 | 1013.0 |
| 20260906071230 | 82 | 138 | 0.9 | 1.7 | 0.00 | 0.00 | 0.00 | 73 | 1013.0 |
| 20260906070942 | 82 | 138 | 0.9 | 1.7 | 0.00 | 0.00 | 0.00 | 73 | 1013.1 |
| 20260906070842 | 82 | 138 | 0.9 | 0.9 | 0.00 | 0.00 | 0.00 | 73 | 1013.0 |
| 20260906070739 | 82 | 138 | 0.0 | 0.9 | 0.00 | 0.00 | 0.00 | 73 | 1013.0 |
| 20260906070638 | 82 | 138 | 0.0 | 0.9 | 0.00 | 0.00 | 0.00 | 73 | 1013.1 |
| 20260906070535 | 82 | 138 | 0.0 | 0.9 | 0.00 | 0.00 | 0.00 | 73 | 1012.9 |
| 20260906070504 | 82 | 138 | 0.0 | 0.9 | 0.00 | 0.00 | 0.00 | 73 | 1013.0 |
| 20260906070435 | 82 | 138 | 0.0 | 1.7 | 0.00 | 0.00 | 0.00 | 73 | 1013.0 |
| 20260906070334 | 82 | 138 | 0.0 | 1.7 | 0.00 | 0.00 | 0.00 | 72 | 1013.0 |
| 20260906070232 | 82 | 138 | 0.0 | 1.7 | 0.00 | 0.00 | 0.00 | 72 | 1013.0 |
| 20260906070131 | 83 | 138 | 0.0 | 1.7 | 0.00 | 0.00 | 0.00 | 72 | 1013.0 |
| 20260906070029 | 83 | 138 | 0.0 | 1.7 | 0.00 | 0.00 | 0.00 | 72 | 1013.0 |
| 20260906070005 | 83 | 138 | 0.0 | 1.7 | 0.00 | 0.00 | 0.00 | 72 | 1013.1 |
| 20260906065926 | 83 | 138 | 0.0 | 1.7 | 0.00 | 0.00 | 0.00 | 72 | 1013.1 |
| 20260906065824 | 83 | 138 | 0.0 | 1.7 | 0.00 | 0.00 | 0.00 | 72 | 1013.1 |
| 20260906065720 | 83 | 138 | 0.0 | 1.7 | 0.00 | 0.00 | 0.00 | 72 | 1013.1 |
| 20260906065620 | 83 | 138 | 0.9 | 1.7 | 0.00 | 0.00 | 0.00 | 72 | 1013.1 |
| 20260906065505 | 83 | 138 | 0.9 | 3.5 | 0.00 | 0.00 | 0.00 | 72 | 1013.1 |
| 20260906065420 | 83 | 138 | 0.0 | 3.5 | 0.00 | 0.00 | 0.00 | 72 | 1013.3 |
| 20260906065318 | 83 | 138 | 0.0 | 3.5 | 0.00 | 0.00 | 0.00 | 72 | 1013.1 |
| 20260906065218 | 83 | 138 | 0.0 | 3.5 | 0.00 | 0.00 | 0.00 | 72 | 1013.1 |
| 20260906065115 | 83 | 138 | 0.0 | 3.5 | 0.00 | 0.00 | 0.00 | 72 | 1013.3 |
| 20260906065005 | 83 | 138 | 0.0 | 3.5 | 0.00 | 0.00 | 0.00 | 72 | 1013.1 |
| 20260906064908 | 83 | 138 | 0.0 | 3.5 | 0.00 | 0.00 | 0.00 | 72 | 1013.1 |
| 20260906064805 | 83 | 138 | 1.7 | 3.5 | 0.00 | 0.00 | 0.00 | 72 | 1013.1 |
| 20260906064706 | 83 | 138 | 1.7 | 3.5 | 0.00 | 0.00 | 0.00 | 72 | 1013.1 |
| 20260906064605 | 83 | 141 | 1.7 | 3.5 | 0.00 | 0.00 | 0.00 | 72 | 1013.3 |
| 20260906064506 | 83 | 155 | 1.7 | 2.6 | 0.00 | 0.00 | 0.00 | 72 | 1013.1 |
| 20260906064347 | 83 | 155 | 1.7 | 2.6 | 0.00 | 0.00 | 0.00 | 72 | 1013.1 |
| 20260906064244 | 83 | 158 | 0.9 | 2.6 | 0.00 | 0.00 | 0.00 | 72 | 1013.1 |
| 20260906064142 | 83 | 158 | 1.7 | 2.6 | 0.00 | 0.00 | 0.00 | 72 | 1013.1 |
| 20260906064041 | 83 | 158 | 1.7 | 2.6 | 0.00 | 0.00 | 0.00 | 72 | 1013.3 |
| 20260906064003 | 83 | 158 | 1.7 | 2.6 | 0.00 | 0.00 | 0.00 | 72 | 1013.1 |
| 20260906063941 | 83 | 158 | 1.7 | 2.6 | 0.00 | 0.00 | 0.00 | 72 | 1013.1 |
| 20260906063834 | 83 | 159 | 1.7 | 3.5 | 0.00 | 0.00 | 0.00 | 72 | 1013.3 |
| 20260906063734 | 83 | 147 | 1.7 | 4.3 | 0.00 | 0.00 | 0.00 | 72 | 1013.1 |
| 20260906063633 | 83 | 168 | 1.7 | 4.3 | 0.00 | 0.00 | 0.00 | 72 | 1013.1 |
| 20260906063532 | 83 | 168 | 1.7 | 4.3 | 0.00 | 0.00 | 0.00 | 72 | 1013.1 |
| 20260906063505 | 83 | 168 | 1.7 | 4.3 | 0.00 | 0.00 | 0.00 | 72 | 1013.3 |
| 20260906063430 | 83 | 162 | 1.7 | 4.3 | 0.00 | 0.00 | 0.00 | 72 | 1013.3 |
| 20260906063329 | 83 | 165 | 1.7 | 4.3 | 0.00 | 0.00 | 0.00 | 72 | 1013.1 |
| 20260906063228 | 83 | 166 | 1.7 | 4.3 | 0.00 | 0.00 | 0.00 | 72 | 1013.3 |
| 20260906063126 | 83 | 171 | 1.7 | 4.3 | 0.00 | 0.00 | 0.00 | 72 | 1013.1 |
| 20260906063024 | 83 | 172 | 1.7 | 4.3 | 0.00 | 0.00 | 0.00 | 72 | 1013.3 |
| 20260906063005 | 83 | 182 | 1.7 | 4.3 | 0.00 | 0.00 | 0.00 | 72 | 1013.1 |
| 20260906062921 | 83 | 171 | 2.6 | 4.3 | 0.00 | 0.00 | 0.00 | 72 | 1013.1 |
| 20260906062820 | 83 | 190 | 1.7 | 5.2 | 0.00 | 0.00 | 0.00 | 73 | 1013.1 |
| 20260906062721 | 83 | 169 | 1.7 | 5.2 | 0.00 | 0.00 | 0.00 | 73 | 1013.1 |
| 20260906062620 | 83 | 172 | 2.6 | 5.2 | 0.00 | 0.00 | 0.00 | 73 | 1013.0 |
| 20260906062521 | 83 | 165 | 1.7 | 5.2 | 0.00 | 0.00 | 0.00 | 73 | 1013.0 |
| 20260906062505 | 83 | 162 | 1.7 | 5.2 | 0.00 | 0.00 | 0.00 | 73 | 1013.0 |
| 20260906062419 | 83 | 164 | 0.9 | 5.2 | 0.00 | 0.00 | 0.00 | 73 | 1013.0 |
| 20260906062320 | 83 | 152 | 0.9 | 5.2 | 0.00 | 0.00 | 0.00 | 73 | 1013.0 |
| 20260906062221 | 83 | 152 | 1.7 | 5.2 | 0.00 | 0.00 | 0.00 | 73 | 1013.0 |
| 20260906062120 | 83 | 152 | 1.7 | 5.2 | 0.00 | 0.00 | 0.00 | 73 | 1012.9 |
| 20260906062021 | 83 | 161 | 2.6 | 5.2 | 0.00 | 0.00 | 0.00 | 73 | 1012.9 |
| 20260906062004 | 83 | 133 | 2.6 | 5.2 | 0.00 | 0.00 | 0.00 | 73 | 1013.0 |
| 20260906061917 | 83 | 133 | 2.6 | 5.2 | 0.00 | 0.00 | 0.00 | 73 | 1013.0 |
| 20260906061906 | 83 | 158 | 0.9 | 3.5 | 0.00 | 0.00 | 0.00 | 73 | 1012.9 |
| 20260906061836 | 83 | 149 | 1.7 | 3.5 | 0.00 | 0.00 | 0.00 | 73 | 1013.0 |
| 20260906061807 | 83 | 157 | 0.9 | 3.5 | 0.00 | 0.00 | 0.00 | 73 | 1012.8 |
| 20260906061739 | 83 | 157 | 0.9 | 3.5 | 0.00 | 0.00 | 0.00 | 73 | 1012.8 |
| 20260906061714 | 83 | 158 | 0.9 | 3.5 | 0.00 | 0.00 | 0.00 | 73 | 1012.9 |
| 20260906061347 | 83 | 159 | 0.9 | 3.5 | 0.00 | 0.00 | 0.00 | 73 | 1012.8 |
| 20260906061246 | 83 | 166 | 0.9 | 3.5 | 0.00 | 0.00 | 0.00 | 73 | 1012.9 |
| 20260906061142 | 83 | 168 | 0.9 | 3.5 | 0.00 | 0.00 | 0.00 | 73 | 1012.8 |
| 20260906061034 | 83 | 168 | 1.7 | 3.5 | 0.00 | 0.00 | 0.00 | 73 | 1012.8 |
| 20260906060933 | 83 | 168 | 1.7 | 3.5 | 0.00 | 0.00 | 0.00 | 73 | 1012.9 |
| 20260906060829 | 83 | 124 | 1.7 | 3.5 | 0.00 | 0.00 | 0.00 | 73 | 1012.9 |
| 20260906060725 | 83 | 171 | 1.7 | 3.5 | 0.00 | 0.00 | 0.00 | 73 | 1012.9 |
| 20260906060623 | 83 | 148 | 1.7 | 3.5 | 0.00 | 0.00 | 0.00 | 73 | 1012.9 |
| 20260906060524 | 83 | 154 | 1.7 | 3.5 | 0.00 | 0.00 | 0.00 | 73 | 1012.9 |
| 20260906060458 | 83 | 142 | 1.7 | 2.6 | 0.00 | 0.00 | 0.00 | 73 | 1012.9 |
| 20260906060423 | 83 | 141 | 1.7 | 2.6 | 0.00 | 0.00 | 0.00 | 73 | 1012.9 |
| 20260906060402 | 83 | 144 | 1.7 | 2.6 | 0.00 | 0.00 | 0.00 | 73 | 1013.0 |
| 20260906060340 | 83 | 142 | 1.7 | 2.6 | 0.00 | 0.00 | 0.00 | 73 | 1012.9 |
| 20260906060310 | 83 | 141 | 1.7 | 2.6 | 0.00 | 0.00 | 0.00 | 73 | 1013.0 |
| 20260906060245 | 83 | 142 | 1.7 | 2.6 | 0.00 | 0.00 | 0.00 | 73 | 1013.0 |
| 20260906060219 | 83 | 144 | 1.7 | 2.6 | 0.00 | 0.00 | 0.00 | 73 | 1013.0 |
| 20260906055920 | 83 | 144 | 1.7 | 2.6 | 0.00 | 0.00 | 0.00 | 72 | 1013.0 |
| 20260906055818 | 83 | 147 | 1.7 | 2.6 | 0.00 | 0.00 | 0.00 | 72 | 1013.0 |
| 20260906055718 | 83 | 157 | 0.9 | 2.6 | 0.00 | 0.00 | 0.00 | 72 | 1013.1 |
| 20260906055621 | 83 | 157 | 1.7 | 2.6 | 0.00 | 0.00 | 0.00 | 72 | 1013.1 |
| 20260906055519 | 83 | 157 | 1.7 | 2.6 | 0.00 | 0.00 | 0.00 | 72 | 1013.0 |
| 20260906055456 | 83 | 157 | 1.7 | 2.6 | 0.00 | 0.00 | 0.00 | 72 | 1013.1 |
| 20260906055421 | 83 | 158 | 1.7 | 2.6 | 0.00 | 0.00 | 0.00 | 72 | 1013.1 |
| 20260906055319 | 83 | 158 | 1.7 | 2.6 | 0.00 | 0.00 | 0.00 | 72 | 1013.1 |
| 20260906055219 | 83 | 158 | 1.7 | 2.6 | 0.00 | 0.00 | 0.00 | 72 | 1013.1 |
| 20260906055117 | 83 | 165 | 1.7 | 2.6 | 0.00 | 0.00 | 0.00 | 72 | 1013.1 |
| 20260906055016 | 83 | 197 | 0.9 | 1.7 | 0.00 | 0.00 | 0.00 | 72 | 1013.1 |
| 20260906054956 | 83 | 207 | 0.9 | 1.7 | 0.00 | 0.00 | 0.00 | 72 | 1013.1 |
| 20260906054915 | 83 | 207 | 0.9 | 1.7 | 0.00 | 0.00 | 0.00 | 72 | 1013.1 |
| 20260906054813 | 83 | 207 | 0.9 | 0.9 | 0.00 | 0.00 | 0.00 | 72 | 1013.1 |
| 20260906054711 | 83 | 207 | 0.9 | 0.9 | 0.00 | 0.00 | 0.00 | 72 | 1013.3 |
| 20260906054606 | 83 | 207 | 0.9 | 0.9 | 0.00 | 0.00 | 0.00 | 72 | 1013.1 |
| 20260906054505 | 83 | 207 | 0.9 | 0.9 | 0.00 | 0.00 | 0.00 | 71 | 1013.1 |
| 20260906054453 | 83 | 207 | 0.9 | 0.9 | 0.00 | 0.00 | 0.00 | 71 | 1013.1 |
| 20260906054405 | 84 | 207 | 0.9 | 0.9 | 0.00 | 0.00 | 0.00 | 71 | 1013.1 |
| 20260906054304 | 84 | 207 | 0.0 | 0.9 | 0.00 | 0.00 | 0.00 | 71 | 1013.1 |
| 20260906054202 | 84 | 207 | 0.0 | 0.9 | 0.00 | 0.00 | 0.00 | 71 | 1013.1 |
| 20260906054103 | 84 | 207 | 0.0 | 0.9 | 0.00 | 0.00 | 0.00 | 71 | 1013.1 |
| 20260906054002 | 84 | 207 | 0.0 | 0.9 | 0.00 | 0.00 | 0.00 | 71 | 1013.1 |
| 20260906053954 | 84 | 207 | 0.0 | 0.9 | 0.00 | 0.00 | 0.00 | 71 | 1013.1 |
| 20260906053904 | 84 | 207 | 0.0 | 0.9 | 0.00 | 0.00 | 0.00 | 71 | 1013.1 |
| 20260906053803 | 84 | 207 | 0.0 | 0.9 | 0.00 | 0.00 | 0.00 | 71 | 1013.0 |
| 20260906053704 | 84 | 207 | 0.0 | 0.9 | 0.00 | 0.00 | 0.00 | 71 | 1013.0 |
| 20260906053602 | 84 | 207 | 0.0 | 0.9 | 0.00 | 0.00 | 0.00 | 71 | 1013.0 |
| 20260906053503 | 84 | 207 | 0.0 | 0.9 | 0.00 | 0.00 | 0.00 | 71 | 1013.0 |
| 20260906053454 | 84 | 207 | 0.0 | 0.9 | 0.00 | 0.00 | 0.00 | 71 | 1013.0 |
| 20260906053414 | 84 | 207 | 0.0 | 3.5 | 0.00 | 0.00 | 0.00 | 71 | 1013.0 |
| 20260906053404 | 84 | 207 | 0.9 | 1.7 | 0.00 | 0.00 | 0.00 | 71 | 1013.0 |
| 20260906053334 | 84 | 207 | 0.9 | 1.7 | 0.00 | 0.00 | 0.00 | 71 | 1012.9 |
| 20260906053305 | 84 | 207 | 0.0 | 2.6 | 0.00 | 0.00 | 0.00 | 71 | 1012.9 |
| 20260906053235 | 84 | 207 | 0.0 | 3.5 | 0.00 | 0.00 | 0.00 | 71 | 1013.0 |
| 20260906053205 | 84 | 207 | 0.0 | 3.5 | 0.00 | 0.00 | 0.00 | 71 | 1013.0 |
| 20260906052903 | 84 | 207 | 0.0 | 3.5 | 0.00 | 0.00 | 0.00 | 71 | 1013.0 |
| 20260906052801 | 84 | 207 | 0.0 | 3.5 | 0.00 | 0.00 | 0.00 | 71 | 1013.0 |
| 20260906052658 | 84 | 207 | 0.0 | 3.5 | 0.00 | 0.00 | 0.00 | 71 | 1013.0 |
| 20260906052555 | 84 | 207 | 0.0 | 3.5 | 0.00 | 0.00 | 0.00 | 71 | 1013.0 |
| 20260906052453 | 84 | 207 | 0.9 | 3.5 | 0.00 | 0.00 | 0.00 | 71 | 1013.0 |
| 20260906052353 | 84 | 207 | 1.7 | 3.5 | 0.00 | 0.00 | 0.00 | 71 | 1013.1 |
| 20260906052246 | 84 | 207 | 1.7 | 3.5 | 0.00 | 0.00 | 0.00 | 71 | 1013.0 |
| 20260906052145 | 84 | 199 | 0.0 | 2.6 | 0.00 | 0.00 | 0.00 | 70 | 1013.0 |
| 20260906052041 | 84 | 171 | 0.0 | 1.7 | 0.00 | 0.00 | 0.00 | 70 | 1013.0 |
| 20260906051939 | 84 | 171 | 0.0 | 1.7 | 0.00 | 0.00 | 0.00 | 71 | 1013.1 |
| 20260906051839 | 84 | 171 | 0.0 | 1.7 | 0.00 | 0.00 | 0.00 | 71 | 1013.1 |
| 20260906051735 | 84 | 171 | 0.0 | 1.7 | 0.00 | 0.00 | 0.00 | 71 | 1013.1 |
| 20260906051637 | 84 | 171 | 0.0 | 1.7 | 0.00 | 0.00 | 0.00 | 71 | 1013.1 |
| 20260906051533 | 84 | 171 | 0.9 | 1.7 | 0.00 | 0.00 | 0.00 | 71 | 1013.1 |
| 20260906051434 | 84 | 171 | 0.9 | 1.7 | 0.00 | 0.00 | 0.00 | 70 | 1013.1 |
| 20260906051333 | 84 | 171 | 1.7 | 1.7 | 0.00 | 0.00 | 0.00 | 70 | 1013.1 |
| 20260906051234 | 84 | 171 | 0.9 | 1.7 | 0.00 | 0.00 | 0.00 | 70 | 1013.1 |
| 20260906051133 | 84 | 172 | 0.9 | 1.7 | 0.00 | 0.00 | 0.00 | 70 | 1013.1 |
| 20260906051033 | 84 | 171 | 0.9 | 1.7 | 0.00 | 0.00 | 0.00 | 70 | 1013.1 |
| 20260906050949 | 84 | 171 | 0.9 | 1.7 | 0.00 | 0.00 | 0.00 | 70 | 1013.1 |
| 20260906050935 | 84 | 140 | 0.0 | 1.7 | 0.00 | 0.00 | 0.00 | 70 | 1013.1 |
| 20260906050834 | 84 | 137 | 0.9 | 1.7 | 0.00 | 0.00 | 0.00 | 70 | 1013.0 |
| 20260906050734 | 84 | 137 | 0.9 | 1.7 | 0.00 | 0.00 | 0.00 | 70 | 1013.0 |
| 20260906050630 | 84 | 137 | 0.0 | 1.7 | 0.00 | 0.00 | 0.00 | 70 | 1013.0 |
| 20260906050530 | 84 | 137 | 0.9 | 1.7 | 0.00 | 0.00 | 0.00 | 70 | 1013.0 |
| 20260906050427 | 84 | 137 | 0.9 | 1.7 | 0.00 | 0.00 | 0.00 | 70 | 1013.0 |
| 20260906050326 | 84 | 137 | 0.9 | 1.7 | 0.00 | 0.00 | 0.00 | 70 | 1013.1 |
| 20260906050225 | 84 | 137 | 0.0 | 0.9 | 0.00 | 0.00 | 0.00 | 70 | 1013.1 |
| 20260906050121 | 84 | 137 | 0.0 | 0.9 | 0.00 | 0.00 | 0.00 | 70 | 1013.0 |
| 20260906050022 | 84 | 137 | 0.0 | 0.9 | 0.00 | 0.00 | 0.00 | 70 | 1013.1 |
| 20260906045923 | 84 | 137 | 0.0 | 0.9 | 0.00 | 0.00 | 0.00 | 70 | 1013.1 |
| 20260906045820 | 84 | 137 | 0.0 | 0.9 | 0.00 | 0.00 | 0.00 | 70 | 1013.0 |
| 20260906045718 | 84 | 137 | 0.0 | 1.7 | 0.00 | 0.00 | 0.00 | 70 | 1013.1 |
| 20260906045619 | 84 | 137 | 0.0 | 1.7 | 0.00 | 0.00 | 0.00 | 70 | 1013.1 |
| 20260906045518 | 84 | 137 | 0.0 | 2.6 | 0.00 | 0.00 | 0.00 | 70 | 1013.1 |
| 20260906045451 | 85 | 137 | 0.0 | 2.6 | 0.00 | 0.00 | 0.00 | 70 | 1013.1 |
| 20260906045416 | 84 | 137 | 0.0 | 2.6 | 0.00 | 0.00 | 0.00 | 70 | 1013.1 |
| 20260906045352 | 85 | 137 | 0.0 | 3.5 | 0.00 | 0.00 | 0.00 | 70 | 1013.1 |
| 20260906045335 | 85 | 137 | 0.0 | 2.6 | 0.00 | 0.00 | 0.00 | 70 | 1013.1 |
| 20260906045306 | 85 | 137 | 0.0 | 2.6 | 0.00 | 0.00 | 0.00 | 70 | 1013.1 |
| 20260906045233 | 85 | 137 | 0.0 | 2.6 | 0.00 | 0.00 | 0.00 | 70 | 1013.1 |
| 20260906045203 | 85 | 137 | 0.0 | 3.5 | 0.00 | 0.00 | 0.00 | 70 | 1013.1 |
| 20260906044917 | 85 | 137 | 0.0 | 3.5 | 0.00 | 0.00 | 0.00 | 70 | 1013.1 |
| 20260906044817 | 85 | 137 | 0.9 | 3.5 | 0.00 | 0.00 | 0.00 | 70 | 1013.1 |
| 20260906044716 | 85 | 137 | 1.7 | 3.5 | 0.00 | 0.00 | 0.00 | 70 | 1013.1 |
| 20260906044616 | 85 | 137 | 1.7 | 3.5 | 0.00 | 0.00 | 0.00 | 70 | 1013.1 |
| 20260906044512 | 85 | 138 | 1.7 | 3.5 | 0.00 | 0.00 | 0.00 | 69 | 1013.1 |
| 20260906044439 | 85 | 140 | 1.7 | 3.5 | 0.00 | 0.00 | 0.00 | 69 | 1013.1 |
| 20260906044409 | 85 | 140 | 1.7 | 3.5 | 0.00 | 0.00 | 0.00 | 69 | 1013.0 |
| 20260906044308 | 85 | 144 | 1.7 | 3.5 | 0.00 | 0.00 | 0.00 | 69 | 1013.1 |
| 20260906044208 | 85 | 148 | 2.6 | 3.5 | 0.00 | 0.00 | 0.00 | 69 | 1013.1 |
| 20260906044106 | 85 | 141 | 1.7 | 3.5 | 0.00 | 0.00 | 0.00 | 69 | 1013.1 |
| 20260906044007 | 85 | 155 | 1.7 | 3.5 | 0.00 | 0.00 | 0.00 | 69 | 1013.1 |
| 20260906043938 | 85 | 168 | 1.7 | 3.5 | 0.00 | 0.00 | 0.00 | 69 | 1013.1 |
| 20260906043906 | 85 | 161 | 1.7 | 3.5 | 0.00 | 0.00 | 0.00 | 69 | 1013.0 |
| 20260906043808 | 85 | 138 | 1.7 | 3.5 | 0.00 | 0.00 | 0.00 | 69 | 1013.1 |
| 20260906043707 | 85 | 178 | 1.7 | 3.5 | 0.00 | 0.00 | 0.00 | 69 | 1013.1 |
| 20260906043607 | 85 | 141 | 1.7 | 3.5 | 0.00 | 0.00 | 0.00 | 69 | 1013.1 |
| 20260906043455 | 85 | 152 | 1.7 | 3.5 | 0.00 | 0.00 | 0.00 | 69 | 1013.1 |
| 20260906043435 | 85 | 154 | 1.7 | 3.5 | 0.00 | 0.00 | 0.00 | 69 | 1013.1 |
| 20260906043352 | 85 | 158 | 1.7 | 3.5 | 0.00 | 0.00 | 0.00 | 69 | 1013.1 |
| 20260906043340 | 85 | 149 | 1.7 | 3.5 | 0.00 | 0.00 | 0.00 | 69 | 1013.1 |
| 20260906043316 | 85 | 166 | 1.7 | 3.5 | 0.00 | 0.00 | 0.00 | 69 | 1013.0 |
| 20260906043244 | 85 | 144 | 2.6 | 3.5 | 0.00 | 0.00 | 0.00 | 69 | 1013.1 |
| 20260906043214 | 85 | 145 | 1.7 | 3.5 | 0.00 | 0.00 | 0.00 | 69 | 1013.1 |
| 20260906043146 | 85 | 149 | 1.7 | 3.5 | 0.00 | 0.00 | 0.00 | 69 | 1013.1 |
| 20260906042836 | 85 | 166 | 2.6 | 3.5 | 0.00 | 0.00 | 0.00 | 69 | 1013.1 |
| 20260906042734 | 85 | 168 | 1.7 | 3.5 | 0.00 | 0.00 | 0.00 | 69 | 1013.1 |
| 20260906042634 | 85 | 165 | 1.7 | 3.5 | 0.00 | 0.00 | 0.00 | 69 | 1013.0 |
| 20260906042534 | 85 | 169 | 1.7 | 3.5 | 0.00 | 0.00 | 0.00 | 69 | 1013.0 |
| 20260906042439 | 85 | 169 | 1.7 | 3.5 | 0.00 | 0.00 | 0.00 | 69 | 1013.0 |
| 20260906042433 | 85 | 166 | 1.7 | 3.5 | 0.00 | 0.00 | 0.00 | 69 | 1013.0 |
| 20260906042332 | 85 | 168 | 0.9 | 3.5 | 0.00 | 0.00 | 0.00 | 69 | 1013.0 |
| 20260906042233 | 85 | 171 | 0.9 | 3.5 | 0.00 | 0.00 | 0.00 | 69 | 1013.0 |
| 20260906042132 | 85 | 171 | 1.7 | 3.5 | 0.00 | 0.00 | 0.00 | 69 | 1012.9 |
| 20260906042034 | 85 | 173 | 1.7 | 3.5 | 0.00 | 0.00 | 0.00 | 69 | 1012.9 |
| 20260906041938 | 85 | 168 | 1.7 | 3.5 | 0.00 | 0.00 | 0.00 | 69 | 1012.9 |
| 20260906041933 | 85 | 157 | 1.7 | 3.5 | 0.00 | 0.00 | 0.00 | 69 | 1012.9 |
| 20260906041831 | 85 | 154 | 1.7 | 4.3 | 0.00 | 0.00 | 0.00 | 69 | 1012.9 |
| 20260906041729 | 85 | 147 | 1.7 | 4.3 | 0.00 | 0.00 | 0.00 | 69 | 1012.9 |
| 20260906041626 | 85 | 168 | 1.7 | 4.3 | 0.00 | 0.00 | 0.00 | 69 | 1012.9 |
| 20260906041526 | 85 | 166 | 1.7 | 4.3 | 0.00 | 0.00 | 0.00 | 69 | 1012.9 |
| 20260906041431 | 85 | 147 | 1.7 | 4.3 | 0.00 | 0.00 | 0.00 | 69 | 1012.9 |
| 20260906041421 | 85 | 144 | 1.7 | 4.3 | 0.00 | 0.00 | 0.00 | 69 | 1012.9 |
| 20260906041321 | 85 | 144 | 1.7 | 4.3 | 0.00 | 0.00 | 0.00 | 69 | 1012.9 |
| 20260906041217 | 85 | 166 | 1.7 | 4.3 | 0.00 | 0.00 | 0.00 | 69 | 1012.9 |
| 20260906041117 | 85 | 169 | 1.7 | 4.3 | 0.00 | 0.00 | 0.00 | 68 | 1012.9 |
| 20260906041017 | 85 | 161 | 1.7 | 4.3 | 0.00 | 0.00 | 0.00 | 68 | 1012.9 |
| 20260906040932 | 85 | 159 | 1.7 | 4.3 | 0.00 | 0.00 | 0.00 | 68 | 1012.9 |
| 20260906040915 | 85 | 135 | 1.7 | 4.3 | 0.00 | 0.00 | 0.00 | 68 | 1012.9 |
| 20260906040816 | 85 | 175 | 1.7 | 3.5 | 0.00 | 0.00 | 0.00 | 68 | 1012.9 |
| 20260906040715 | 85 | 159 | 1.7 | 3.5 | 0.00 | 0.00 | 0.00 | 68 | 1013.0 |
| 20260906040614 | 85 | 158 | 1.7 | 3.5 | 0.00 | 0.00 | 0.00 | 68 | 1013.0 |
| 20260906040515 | 85 | 158 | 1.7 | 3.5 | 0.00 | 0.00 | 0.00 | 68 | 1013.0 |
| 20260906040432 | 85 | 162 | 1.7 | 3.5 | 0.00 | 0.00 | 0.00 | 68 | 1013.0 |
| 20260906040415 | 85 | 169 | 2.6 | 3.5 | 0.00 | 0.00 | 0.00 | 68 | 1013.0 |
| 20260906040316 | 85 | 124 | 2.6 | 3.5 | 0.00 | 0.00 | 0.00 | 68 | 1013.0 |
| 20260906040215 | 85 | 123 | 1.7 | 3.5 | 0.00 | 0.00 | 0.00 | 68 | 1013.0 |
| 20260906040117 | 85 | 161 | 1.7 | 3.5 | 0.00 | 0.00 | 0.00 | 68 | 1013.0 |
| 20260906040015 | 85 | 155 | 2.6 | 3.5 | 0.00 | 0.00 | 0.00 | 68 | 1012.9 |
| 20260906035932 | 85 | 155 | 2.6 | 3.5 | 0.00 | 0.00 | 0.00 | 68 | 1012.9 |
| 20260906035915 | 85 | 157 | 2.6 | 3.5 | 0.00 | 0.00 | 0.00 | 68 | 1012.9 |
| 20260906035815 | 85 | 140 | 1.7 | 3.5 | 0.00 | 0.00 | 0.00 | 68 | 1013.0 |
| 20260906035715 | 85 | 125 | 2.6 | 3.5 | 0.00 | 0.00 | 0.00 | 68 | 1013.0 |
| 20260906035616 | 85 | 131 | 2.6 | 3.5 | 0.00 | 0.00 | 0.00 | 68 | 1013.0 |
| 20260906035515 | 86 | 142 | 1.7 | 3.5 | 0.00 | 0.00 | 0.00 | 68 | 1013.0 |
| 20260906035413 | 86 | 142 | 1.7 | 3.5 | 0.00 | 0.00 | 0.00 | 68 | 1013.0 |
| 20260906035313 | 86 | 157 | 1.7 | 3.5 | 0.00 | 0.00 | 0.00 | 67 | 1013.0 |
| 20260906035210 | 86 | 130 | 1.7 | 3.5 | 0.00 | 0.00 | 0.00 | 67 | 1013.0 |
| 20260906035111 | 86 | 145 | 2.6 | 3.5 | 0.00 | 0.00 | 0.00 | 67 | 1013.0 |
| 20260906035010 | 86 | 142 | 2.6 | 3.5 | 0.00 | 0.00 | 0.00 | 67 | 1013.0 |
| 20260906034931 | 86 | 140 | 2.6 | 3.5 | 0.00 | 0.00 | 0.00 | 67 | 1013.0 |
| 20260906034909 | 86 | 169 | 2.6 | 3.5 | 0.00 | 0.00 | 0.00 | 67 | 1013.0 |
| 20260906034807 | 86 | 151 | 2.6 | 3.5 | 0.00 | 0.00 | 0.00 | 67 | 1013.1 |
| 20260906034706 | 86 | 165 | 2.6 | 3.5 | 0.00 | 0.00 | 0.00 | 67 | 1013.1 |
| 20260906034607 | 86 | 137 | 2.6 | 3.5 | 0.00 | 0.00 | 0.00 | 67 | 1013.1 |
| 20260906034506 | 86 | 141 | 1.7 | 3.5 | 0.00 | 0.00 | 0.00 | 67 | 1013.0 |
| 20260906034431 | 86 | 128 | 1.7 | 3.5 | 0.00 | 0.00 | 0.00 | 67 | 1013.0 |
| 20260906034406 | 86 | 152 | 1.7 | 3.5 | 0.00 | 0.00 | 0.00 | 67 | 1013.0 |
| 20260906034307 | 86 | 166 | 2.6 | 4.3 | 0.00 | 0.00 | 0.00 | 66 | 1013.0 |
| 20260906034158 | 86 | 164 | 1.7 | 4.3 | 0.00 | 0.00 | 0.00 | 66 | 1012.9 |
| 20260906034055 | 86 | 161 | 1.7 | 4.3 | 0.00 | 0.00 | 0.00 | 66 | 1013.0 |
| 20260906033953 | 86 | 188 | 1.7 | 4.3 | 0.00 | 0.00 | 0.00 | 66 | 1013.0 |
| 20260906033932 | 86 | 179 | 1.7 | 4.3 | 0.00 | 0.00 | 0.00 | 66 | 1013.0 |
| 20260906033854 | 86 | 179 | 1.7 | 5.2 | 0.00 | 0.00 | 0.00 | 66 | 1012.9 |
| 20260906033752 | 86 | 159 | 1.7 | 5.2 | 0.00 | 0.00 | 0.00 | 66 | 1012.9 |
| 20260906033642 | 86 | 161 | 1.7 | 5.2 | 0.00 | 0.00 | 0.00 | 66 | 1013.0 |
| 20260906033541 | 86 | 148 | 1.7 | 5.2 | 0.00 | 0.00 | 0.00 | 66 | 1013.0 |
| 20260906033433 | 86 | 147 | 2.6 | 5.2 | 0.00 | 0.00 | 0.00 | 66 | 1013.0 |
| 20260906033336 | 86 | 141 | 2.6 | 5.2 | 0.00 | 0.00 | 0.00 | 66 | 1013.0 |
| 20260906033232 | 86 | 148 | 2.6 | 5.2 | 0.00 | 0.00 | 0.00 | 66 | 1013.0 |
| 20260906033133 | 86 | 151 | 2.6 | 5.2 | 0.00 | 0.00 | 0.00 | 66 | 1013.0 |
| 20260906033032 | 86 | 131 | 2.6 | 6.1 | 0.00 | 0.00 | 0.00 | 66 | 1013.0 |
| 20260906032933 | 86 | 151 | 2.6 | 6.1 | 0.00 | 0.00 | 0.00 | 66 | 1012.9 |
| 20260906032834 | 86 | 178 | 2.6 | 6.1 | 0.00 | 0.00 | 0.00 | 65 | 1013.0 |
| 20260906032733 | 86 | 161 | 3.5 | 6.1 | 0.00 | 0.00 | 0.00 | 65 | 1013.0 |
| 20260906032633 | 86 | 151 | 3.5 | 6.1 | 0.00 | 0.00 | 0.00 | 65 | 1013.0 |
| 20260906032534 | 86 | 158 | 3.5 | 6.1 | 0.00 | 0.00 | 0.00 | 65 | 1013.0 |
| 20260906032432 | 86 | 158 | 3.5 | 6.1 | 0.00 | 0.00 | 0.00 | 65 | 1013.0 |
| 20260906032332 | 86 | 141 | 4.3 | 6.1 | 0.00 | 0.00 | 0.00 | 65 | 1013.0 |
| 20260906032234 | 86 | 130 | 4.3 | 6.1 | 0.00 | 0.00 | 0.00 | 65 | 1013.1 |
| 20260906032132 | 86 | 133 | 3.5 | 6.1 | 0.00 | 0.00 | 0.00 | 65 | 1013.0 |
| 20260906032034 | 87 | 165 | 2.6 | 7.8 | 0.00 | 0.00 | 0.00 | 65 | 1013.0 |
| 20260906031935 | 87 | 157 | 3.5 | 8.7 | 0.00 | 0.00 | 0.00 | 65 | 1013.0 |
| 20260906031834 | 87 | 197 | 2.6 | 8.7 | 0.00 | 0.00 | 0.00 | 65 | 1013.0 |
| 20260906031732 | 87 | 145 | 2.6 | 8.7 | 0.00 | 0.00 | 0.00 | 65 | 1013.0 |
| 20260906031633 | 87 | 171 | 3.5 | 8.7 | 0.00 | 0.00 | 0.00 | 65 | 1013.1 |
| 20260906031532 | 87 | 164 | 3.5 | 8.7 | 0.00 | 0.00 | 0.00 | 65 | 1013.1 |
| 20260906031432 | 87 | 148 | 3.5 | 8.7 | 0.00 | 0.00 | 0.00 | 65 | 1013.1 |
| 20260906031332 | 87 | 189 | 3.5 | 8.7 | 0.00 | 0.00 | 0.00 | 65 | 1013.1 |
| 20260906031233 | 87 | 171 | 4.3 | 8.7 | 0.00 | 0.00 | 0.00 | 65 | 1013.1 |
| 20260906031133 | 87 | 142 | 5.2 | 8.7 | 0.00 | 0.00 | 0.00 | 65 | 1013.3 |
| 20260906031034 | 87 | 157 | 4.3 | 8.7 | 0.00 | 0.00 | 0.00 | 65 | 1013.0 |
| 20260906030936 | 87 | 144 | 3.5 | 7.8 | 0.00 | 0.00 | 0.00 | 65 | 1013.0 |
| 20260906030931 | 87 | 166 | 3.5 | 7.8 | 0.00 | 0.00 | 0.00 | 65 | 1013.0 |
| 20260906030833 | 87 | 169 | 2.6 | 5.2 | 0.00 | 0.00 | 0.00 | 64 | 1013.1 |
| 20260906030733 | 87 | 166 | 2.6 | 5.2 | 0.00 | 0.00 | 0.00 | 64 | 1013.1 |
| 20260906030633 | 87 | 152 | 3.5 | 5.2 | 0.00 | 0.00 | 0.00 | 64 | 1013.0 |
| 20260906030532 | 87 | 148 | 3.5 | 5.2 | 0.00 | 0.00 | 0.00 | 64 | 1013.0 |
| 20260906030433 | 87 | 140 | 2.6 | 5.2 | 0.00 | 0.00 | 0.00 | 64 | 1013.0 |
| 20260906030334 | 87 | 147 | 2.6 | 5.2 | 0.00 | 0.00 | 0.00 | 64 | 1013.0 |
| 20260906030232 | 87 | 171 | 2.6 | 5.2 | 0.00 | 0.00 | 0.00 | 64 | 1013.1 |
| 20260906030131 | 87 | 161 | 2.6 | 5.2 | 0.00 | 0.00 | 0.00 | 64 | 1013.0 |
| 20260906030031 | 87 | 142 | 1.7 | 5.2 | 0.00 | 0.00 | 0.00 | 64 | 1013.0 |
| 20260906025930 | 87 | 159 | 1.7 | 5.2 | 0.00 | 0.00 | 0.00 | 64 | 1013.1 |
| 20260906025832 | 87 | 142 | 2.6 | 5.2 | 0.00 | 0.00 | 0.00 | 64 | 1013.0 |
| 20260906025733 | 87 | 141 | 1.7 | 5.2 | 0.00 | 0.00 | 0.00 | 64 | 1013.1 |
| 20260906025631 | 87 | 151 | 2.6 | 5.2 | 0.00 | 0.00 | 0.00 | 64 | 1013.1 |
| 20260906025533 | 87 | 152 | 2.6 | 5.2 | 0.00 | 0.00 | 0.00 | 64 | 1013.1 |
| 20260906025432 | 87 | 140 | 2.6 | 5.2 | 0.00 | 0.00 | 0.00 | 63 | 1013.1 |
| 20260906025325 | 87 | 171 | 3.5 | 7.8 | 0.00 | 0.00 | 0.00 | 63 | 1013.1 |
| 20260906025224 | 87 | 172 | 3.5 | 7.8 | 0.00 | 0.00 | 0.00 | 63 | 1013.3 |
| 20260906025123 | 87 | 130 | 2.6 | 7.8 | 0.00 | 0.00 | 0.00 | 63 | 1013.1 |
| 20260906025020 | 87 | 142 | 2.6 | 7.8 | 0.00 | 0.00 | 0.00 | 63 | 1013.0 |
| 20260906024921 | 87 | 125 | 2.6 | 7.8 | 0.00 | 0.00 | 0.00 | 63 | 1013.0 |
| 20260906024818 | 87 | 161 | 3.5 | 7.8 | 0.00 | 0.00 | 0.00 | 63 | 1013.0 |
| 20260906024713 | 87 | 154 | 3.5 | 7.8 | 0.00 | 0.00 | 0.00 | 63 | 1013.0 |
| 20260906024614 | 87 | 140 | 3.5 | 7.8 | 0.00 | 0.00 | 0.00 | 63 | 1013.0 |
| 20260906024513 | 87 | 145 | 3.5 | 7.8 | 0.00 | 0.00 | 0.00 | 63 | 1013.0 |
| 20260906024431 | 87 | 175 | 3.5 | 7.8 | 0.00 | 0.00 | 0.00 | 63 | 1012.9 |
| 20260906024413 | 87 | 161 | 3.5 | 7.8 | 0.00 | 0.00 | 0.00 | 63 | 1012.9 |
| 20260906024313 | 87 | 130 | 2.6 | 5.2 | 0.00 | 0.00 | 0.00 | 63 | 1012.9 |
| 20260906024212 | 87 | 165 | 2.6 | 5.2 | 0.00 | 0.00 | 0.00 | 62 | 1013.0 |
| 20260906024112 | 87 | 155 | 3.5 | 5.2 | 0.00 | 0.00 | 0.00 | 62 | 1012.9 |
| 20260906024014 | 87 | 169 | 3.5 | 6.1 | 0.00 | 0.00 | 0.00 | 62 | 1012.8 |
| 20260906023931 | 87 | 186 | 3.5 | 6.1 | 0.00 | 0.00 | 0.00 | 62 | 1012.8 |
| 20260906023913 | 87 | 147 | 3.5 | 6.1 | 0.00 | 0.00 | 0.00 | 62 | 1012.8 |
| 20260906023813 | 87 | 159 | 2.6 | 6.1 | 0.00 | 0.00 | 0.00 | 62 | 1012.9 |
| 20260906023712 | 87 | 180 | 2.6 | 6.1 | 0.00 | 0.00 | 0.00 | 62 | 1012.8 |
| 20260906023613 | 87 | 183 | 1.7 | 6.1 | 0.00 | 0.00 | 0.00 | 62 | 1012.8 |
| 20260906023513 | 87 | 178 | 1.7 | 6.1 | 0.00 | 0.00 | 0.00 | 62 | 1012.7 |
| 20260906023424 | 87 | 175 | 2.6 | 6.1 | 0.00 | 0.00 | 0.00 | 62 | 1012.8 |
| 20260906023412 | 87 | 173 | 2.6 | 6.1 | 0.00 | 0.00 | 0.00 | 62 | 1012.8 |
| 20260906023313 | 87 | 145 | 3.5 | 6.1 | 0.00 | 0.00 | 0.00 | 62 | 1012.7 |
| 20260906023211 | 88 | 141 | 3.5 | 8.7 | 0.00 | 0.00 | 0.00 | 61 | 1012.6 |
| 20260906023109 | 88 | 169 | 3.5 | 8.7 | 0.00 | 0.00 | 0.00 | 61 | 1012.6 |
| 20260906023006 | 88 | 165 | 3.5 | 11.3 | 0.00 | 0.00 | 0.00 | 61 | 1012.6 |
| 20260906022926 | 88 | 171 | 3.5 | 11.3 | 0.00 | 0.00 | 0.00 | 61 | 1012.6 |
| 20260906022905 | 88 | 148 | 3.5 | 11.3 | 0.00 | 0.00 | 0.00 | 61 | 1012.6 |
| 20260906022829 | 88 | 154 | 5.2 | 11.3 | 0.00 | 0.00 | 0.00 | 61 | 1012.5 |
| 20260906022815 | 88 | 144 | 4.3 | 11.3 | 0.00 | 0.00 | 0.00 | 61 | 1012.6 |
| 20260906022746 | 88 | 165 | 4.3 | 11.3 | 0.00 | 0.00 | 0.00 | 61 | 1012.6 |
| 20260906022717 | 88 | 133 | 4.3 | 11.3 | 0.00 | 0.00 | 0.00 | 61 | 1012.5 |
| 20260906022648 | 88 | 137 | 4.3 | 11.3 | 0.00 | 0.00 | 0.00 | 61 | 1012.5 |
| 20260906022404 | 88 | 138 | 5.2 | 11.3 | 0.00 | 0.00 | 0.00 | 61 | 1012.5 |
| 20260906022320 | 88 | 149 | 2.6 | 8.7 | 0.00 | 0.00 | 0.00 | 61 | 1012.5 |
| 20260906022310 | 88 | 159 | 5.2 | 11.3 | 0.00 | 0.00 | 0.00 | 61 | 1012.5 |
| 20260906022239 | 88 | 183 | 6.1 | 11.3 | 0.00 | 0.00 | 0.00 | 61 | 1012.4 |
| 20260906022213 | 88 | 168 | 4.3 | 11.3 | 0.00 | 0.00 | 0.00 | 61 | 1012.5 |
| 20260906022146 | 88 | 124 | 2.6 | 8.7 | 0.00 | 0.00 | 0.00 | 61 | 1012.5 |
| 20260906021906 | 88 | 161 | 2.6 | 8.7 | 0.00 | 0.00 | 0.00 | 61 | 1012.5 |
| 20260906021806 | 88 | 149 | 3.5 | 8.7 | 0.00 | 0.00 | 0.00 | 61 | 1012.4 |
| 20260906021704 | 88 | 152 | 3.5 | 8.7 | 0.00 | 0.00 | 0.00 | 61 | 1012.4 |
| 20260906021605 | 89 | 171 | 3.5 | 9.6 | 0.00 | 0.00 | 0.00 | 60 | 1012.5 |
| 20260906021505 | 89 | 157 | 4.3 | 9.6 | 0.00 | 0.00 | 0.00 | 60 | 1012.5 |
| 20260906021419 | 89 | 151 | 5.2 | 9.6 | 0.00 | 0.00 | 0.00 | 60 | 1012.5 |
| 20260906021405 | 89 | 175 | 4.3 | 9.6 | 0.00 | 0.00 | 0.00 | 60 | 1012.4 |
| 20260906021325 | 89 | 145 | 4.3 | 9.6 | 0.00 | 0.00 | 0.00 | 60 | 1012.4 |
| 20260906021314 | 89 | 125 | 3.5 | 9.6 | 0.00 | 0.00 | 0.00 | 60 | 1012.4 |
| 20260906021244 | 89 | 135 | 4.3 | 9.6 | 0.00 | 0.00 | 0.00 | 60 | 1012.4 |
| 20260906021215 | 89 | 155 | 4.3 | 9.6 | 0.00 | 0.00 | 0.00 | 60 | 1012.4 |
| 20260906021147 | 89 | 166 | 4.3 | 9.6 | 0.00 | 0.00 | 0.00 | 60 | 1012.4 |
| 20260906020904 | 89 | 171 | 3.5 | 9.6 | 0.00 | 0.00 | 0.00 | 60 | 1012.4 |
| 20260906020806 | 89 | 114 | 4.3 | 9.6 | 0.00 | 0.00 | 0.00 | 59 | 1012.4 |
| 20260906020650 | 89 | 124 | 5.2 | 9.6 | 0.00 | 0.00 | 0.00 | 59 | 1012.4 |
| 20260906020550 | 89 | 140 | 4.3 | 6.1 | 0.00 | 0.00 | 0.00 | 59 | 1012.3 |
| 20260906020446 | 89 | 128 | 4.3 | 6.1 | 0.00 | 0.00 | 0.00 | 59 | 1012.3 |
| 20260906020414 | 89 | 142 | 4.3 | 6.1 | 0.00 | 0.00 | 0.00 | 59 | 1012.3 |
| 20260906020342 | 89 | 173 | 3.5 | 6.1 | 0.00 | 0.00 | 0.00 | 59 | 1012.4 |
| 20260906020241 | 89 | 137 | 2.6 | 6.1 | 0.00 | 0.00 | 0.00 | 59 | 1012.3 |
| 20260906020140 | 89 | 145 | 2.6 | 6.1 | 0.00 | 0.00 | 0.00 | 58 | 1012.3 |
| 20260906020041 | 89 | 141 | 2.6 | 6.1 | 0.00 | 0.00 | 0.00 | 58 | 1012.3 |
| 20260906015939 | 89 | 152 | 3.5 | 6.1 | 0.00 | 0.00 | 0.00 | 58 | 1012.3 |
| 20260906015916 | 89 | 176 | 3.5 | 7.8 | 0.00 | 0.00 | 0.00 | 58 | 1012.3 |
| 20260906015838 | 89 | 142 | 3.5 | 7.8 | 0.00 | 0.00 | 0.00 | 58 | 1012.3 |
| 20260906015739 | 89 | 128 | 3.5 | 7.8 | 0.00 | 0.00 | 0.00 | 58 | 1012.3 |
| 20260906015635 | 90 | 130 | 3.5 | 7.8 | 0.00 | 0.00 | 0.00 | 58 | 1012.4 |
| 20260906015533 | 90 | 121 | 3.5 | 8.7 | 0.00 | 0.00 | 0.00 | 58 | 1012.3 |
| 20260906015433 | 90 | 154 | 3.5 | 8.7 | 0.00 | 0.00 | 0.00 | 57 | 1012.3 |
| 20260906015417 | 90 | 166 | 4.3 | 8.7 | 0.00 | 0.00 | 0.00 | 57 | 1012.3 |
| 20260906015333 | 90 | 149 | 4.3 | 8.7 | 0.00 | 0.00 | 0.00 | 57 | 1012.2 |
| 20260906015232 | 90 | 149 | 4.3 | 8.7 | 0.00 | 0.00 | 0.00 | 57 | 1012.3 |
| 20260906015132 | 90 | 116 | 3.5 | 8.7 | 0.00 | 0.00 | 0.00 | 57 | 1012.2 |
| 20260906015032 | 90 | 130 | 4.3 | 8.7 | 0.00 | 0.00 | 0.00 | 57 | 1012.3 |
| 20260906014934 | 90 | 135 | 3.5 | 8.7 | 0.00 | 0.00 | 0.00 | 57 | 1012.3 |
| 20260906014914 | 90 | 172 | 3.5 | 8.7 | 0.00 | 0.00 | 0.00 | 57 | 1012.3 |
| 20260906014834 | 90 | 145 | 3.5 | 8.7 | 0.00 | 0.00 | 0.00 | 56 | 1012.2 |
| 20260906014732 | 90 | 173 | 4.3 | 9.6 | 0.00 | 0.00 | 0.00 | 56 | 1012.2 |
| 20260906014632 | 90 | 144 | 4.3 | 9.6 | 0.00 | 0.00 | 0.00 | 56 | 1012.2 |
| 20260906014534 | 90 | 140 | 3.5 | 9.6 | 0.00 | 0.00 | 0.00 | 56 | 1012.1 |
| 20260906014432 | 90 | 185 | 4.3 | 9.6 | 0.00 | 0.00 | 0.00 | 56 | 1012.1 |
| 20260906014414 | 90 | 148 | 4.3 | 9.6 | 0.00 | 0.00 | 0.00 | 56 | 1012.1 |
| 20260906014332 | 90 | 125 | 4.3 | 9.6 | 0.00 | 0.00 | 0.00 | 56 | 1012.1 |
| 20260906014235 | 91 | 190 | 3.5 | 12.2 | 0.00 | 0.00 | 0.00 | 56 | 1012.2 |
| 20260906014134 | 91 | 140 | 3.5 | 12.2 | 0.00 | 0.00 | 0.00 | 56 | 1012.1 |
| 20260906014034 | 91 | 162 | 4.3 | 12.2 | 0.00 | 0.00 | 0.00 | 56 | 1012.2 |
| 20260906013934 | 91 | 142 | 5.2 | 12.2 | 0.00 | 0.00 | 0.00 | 55 | 1012.1 |
| 20260906013915 | 91 | 128 | 5.2 | 12.2 | 0.00 | 0.00 | 0.00 | 55 | 1012.1 |
| 20260906013833 | 91 | 182 | 6.1 | 12.2 | 0.00 | 0.00 | 0.00 | 55 | 1012.1 |
| 20260906013733 | 91 | 149 | 5.2 | 12.2 | 0.00 | 0.00 | 0.00 | 55 | 1012.1 |
| 20260906013634 | 91 | 155 | 4.3 | 12.2 | 0.00 | 0.00 | 0.00 | 55 | 1012.1 |
| 20260906013534 | 91 | 151 | 4.3 | 12.2 | 0.00 | 0.00 | 0.00 | 55 | 1012.0 |
| 20260906013501 | 93 | 151 | 7.8 | 13.0 | 0.00 | 0.00 | 0.00 | 52 | 1011.6 |
| 20260906013453 | 92 | 180 | 7.0 | 11.3 | 0.00 | 0.00 | 0.00 | 54 | 1011.9 |
| 20260906013443 | 91 | 175 | 6.1 | 12.2 | 0.00 | 0.00 | 0.00 | 55 | 1012.0 |
| 20260906013430 | 91 | 157 | 6.1 | 12.2 | 0.00 | 0.00 | 0.00 | 54 | 1012.0 |
| 20260906013408 | 91 | 148 | 6.1 | 12.2 | 0.00 | 0.00 | 0.00 | 54 | 1012.0 |
| 20260906013338 | 91 | 133 | 6.1 | 11.3 | 0.00 | 0.00 | 0.00 | 54 | 1012.0 |
| 20260906013308 | 91 | 168 | 6.1 | 11.3 | 0.00 | 0.00 | 0.00 | 54 | 1012.0 |
| 20260906013239 | 91 | 144 | 6.1 | 11.3 | 0.00 | 0.00 | 0.00 | 54 | 1012.0 |
| 20260906013206 | 92 | 131 | 7.0 | 11.3 | 0.00 | 0.00 | 0.00 | 54 | 1012.0 |
| 20260906012926 | 92 | 121 | 5.2 | 9.6 | 0.00 | 0.00 | 0.00 | 54 | 1011.9 |
| 20260906012856 | 92 | 106 | 4.3 | 13.0 | 0.00 | 0.00 | 0.00 | 54 | 1011.9 |
| 20260906012619 | 92 | 141 | 5.2 | 13.0 | 0.00 | 0.00 | 0.00 | 54 | 1011.9 |
| 20260906012609 | 94 | 130 | 1.7 | 3.5 | 0.00 | 0.00 | 0.00 | 47 | 1011.4 |
| 20260906012600 | 95 | 120 | 1.7 | 4.3 | 0.00 | 0.00 | 0.00 | 47 | 1011.3 |
| 20260906012553 | 95 | 125 | 2.6 | 5.2 | 0.00 | 0.00 | 0.00 | 46 | 1011.3 |
| 20260906012534 | 92 | 135 | 4.3 | 13.0 | 0.00 | 0.00 | 0.00 | 54 | 1011.9 |
| 20260906012504 | 92 | 147 | 4.3 | 13.0 | 0.00 | 0.00 | 0.00 | 54 | 1011.8 |
| 20260906012455 | 92 | 159 | 4.3 | 13.0 | 0.00 | 0.00 | 0.00 | 54 | 1011.8 |
| 20260906012427 | 92 | 131 | 3.5 | 13.0 | 0.00 | 0.00 | 0.00 | 53 | 1011.8 |
| 20260906012343 | 92 | 148 | 3.5 | 13.0 | 0.00 | 0.00 | 0.00 | 53 | 1011.8 |
| 20260906012313 | 92 | 154 | 4.3 | 13.0 | 0.00 | 0.00 | 0.00 | 53 | 1011.7 |
| 20260906012243 | 92 | 124 | 6.1 | 13.0 | 0.00 | 0.00 | 0.00 | 52 | 1011.7 |
| 20260906012213 | 93 | 127 | 7.8 | 13.0 | 0.00 | 0.00 | 0.00 | 52 | 1011.6 |
| 20260906011933 | 93 | 133 | 7.0 | 12.2 | 0.00 | 0.00 | 0.00 | 52 | 1011.6 |
| 20260906011901 | 93 | 123 | 7.0 | 12.2 | 0.00 | 0.00 | 0.00 | 51 | 1011.5 |
| 20260906011830 | 93 | 151 | 6.1 | 12.2 | 0.00 | 0.00 | 0.00 | 50 | 1011.6 |
| 20260906011759 | 93 | 140 | 3.5 | 6.1 | 0.00 | 0.00 | 0.00 | 49 | 1011.5 |
| 20260906011726 | 93 | 131 | 2.6 | 3.5 | 0.00 | 0.00 | 0.00 | 49 | 1011.6 |
| 20260906011658 | 93 | 111 | 1.7 | 2.6 | 0.00 | 0.00 | 0.00 | 49 | 1011.5 |
| 20260906011627 | 93 | 110 | 1.7 | 2.6 | 0.00 | 0.00 | 0.00 | 49 | 1011.4 |
| 20260906011556 | 93 | 116 | 0.9 | 1.7 | 0.00 | 0.00 | 0.00 | 49 | 1011.4 |
| 20260906011527 | 93 | 117 | 0.9 | 1.7 | 0.00 | 0.00 | 0.00 | 49 | 1011.4 |
| 20260906011506 | 93 | 116 | 0.9 | 2.6 | 0.00 | 0.00 | 0.00 | 49 | 1011.5 |
| 20260906011455 | 93 | 117 | 0.9 | 2.6 | 0.00 | 0.00 | 0.00 | 49 | 1011.5 |
| 20260906011425 | 93 | 111 | 0.9 | 2.6 | 0.00 | 0.00 | 0.00 | 49 | 1011.4 |
| 20260906011351 | 93 | 111 | 0.9 | 2.6 | 0.00 | 0.00 | 0.00 | 48 | 1011.5 |
| 20260906011320 | 93 | 111 | 0.9 | 2.6 | 0.00 | 0.00 | 0.00 | 48 | 1011.5 |
| 20260906011249 | 94 | 111 | 0.9 | 2.6 | 0.00 | 0.00 | 0.00 | 49 | 1011.5 |
| 20260906011227 | 94 | 111 | 0.9 | 2.6 | 0.00 | 0.00 | 0.00 | 48 | 1011.5 |
| 20260906011215 | 94 | 110 | 0.9 | 2.6 | 0.00 | 0.00 | 0.00 | 48 | 1011.5 |
| 20260906011144 | 94 | 111 | 0.9 | 2.6 | 0.00 | 0.00 | 0.00 | 48 | 1011.4 |
| 20260906011113 | 94 | 114 | 0.9 | 2.6 | 0.00 | 0.00 | 0.00 | 48 | 1011.5 |
| 20260906011044 | 94 | 114 | 0.9 | 4.3 | 0.00 | 0.00 | 0.00 | 48 | 1011.3 |
| 20260906011013 | 94 | 114 | 0.9 | 4.3 | 0.00 | 0.00 | 0.00 | 49 | 1011.4 |
| 20260906010957 | 94 | 123 | 0.9 | 4.3 | 0.00 | 0.00 | 0.00 | 48 | 1011.4 |
| 20260906010943 | 94 | 123 | 0.9 | 4.3 | 0.00 | 0.00 | 0.00 | 48 | 1011.4 |
| 20260906010913 | 94 | 123 | 1.7 | 4.3 | 0.00 | 0.00 | 0.00 | 48 | 1011.4 |
| 20260906010843 | 94 | 123 | 1.7 | 4.3 | 0.00 | 0.00 | 0.00 | 48 | 1011.4 |
| 20260906010815 | 94 | 125 | 1.7 | 4.3 | 0.00 | 0.00 | 0.00 | 48 | 1011.3 |
| 20260906010745 | 94 | 123 | 1.7 | 4.3 | 0.00 | 0.00 | 0.00 | 47 | 1011.3 |
| 20260906010727 | 94 | 123 | 1.7 | 4.3 | 0.00 | 0.00 | 0.00 | 47 | 1011.4 |
| 20260906010710 | 94 | 123 | 1.7 | 4.3 | 0.00 | 0.00 | 0.00 | 47 | 1011.4 |
| 20260906010640 | 94 | 134 | 2.6 | 4.3 | 0.00 | 0.00 | 0.00 | 47 | 1011.4 |
| 20260906010610 | 94 | 124 | 1.7 | 4.3 | 0.00 | 0.00 | 0.00 | 47 | 1011.3 |
| 20260906010539 | 94 | 158 | 1.7 | 3.5 | 0.00 | 0.00 | 0.00 | 47 | 1011.3 |
| 20260906010506 | 94 | 130 | 1.7 | 3.5 | 0.00 | 0.00 | 0.00 | 47 | 1011.3 |
| 20260906010227 | 94 | 131 | 1.7 | 3.5 | 0.00 | 0.00 | 0.00 | 47 | 1011.4 |
| 20260906010157 | 94 | 149 | 2.6 | 4.3 | 0.00 | 0.00 | 0.00 | 47 | 1011.3 |
| 20260906010128 | 94 | 124 | 1.7 | 4.3 | 0.00 | 0.00 | 0.00 | 47 | 1011.3 |
| 20260906010100 | 94 | 130 | 1.7 | 4.3 | 0.00 | 0.00 | 0.00 | 47 | 1011.3 |
| 20260906010030 | 95 | 133 | 1.7 | 4.3 | 0.00 | 0.00 | 0.00 | 47 | 1011.2 |
| 20260906010015 | 95 | 131 | 1.7 | 4.3 | 0.00 | 0.00 | 0.00 | 47 | 1011.3 |
| 20260906005955 | 95 | 131 | 1.7 | 4.3 | 0.00 | 0.00 | 0.00 | 47 | 1011.3 |
| 20260906004252 | 95 | 120 | 1.7 | 4.3 | 0.00 | 0.00 | 0.00 | 47 | 1011.3 |
| 20260906004220 | 95 | 117 | 1.7 | 5.2 | 0.00 | 0.00 | 0.00 | 47 | 1011.2 |
| 20260906004149 | 95 | 117 | 2.6 | 5.2 | 0.00 | 0.00 | 0.00 | 47 | 1011.3 |
| 20260906004118 | 95 | 121 | 2.6 | 5.2 | 0.00 | 0.00 | 0.00 | 46 | 1011.3 |
| 20260906003822 | 95 | 127 | 2.6 | 5.2 | 0.00 | 0.00 | 0.00 | 46 | 1011.3 |
| 20260906003718 | 95 | 128 | 2.6 | 5.2 | 0.00 | 0.00 | 0.00 | 46 | 1011.3 |
| 20260906003615 | 95 | 145 | 3.5 | 5.2 | 0.00 | 0.00 | 0.00 | 46 | 1011.3 |
| 20260906003514 | 95 | 127 | 2.6 | 5.2 | 0.00 | 0.00 | 0.00 | 46 | 1011.3 |
| 20260906003402 | 95 | 144 | 3.5 | 5.2 | 0.00 | 0.00 | 0.00 | 46 | 1011.3 |
| 20260906003321 | 95 | 138 | 1.7 | 5.2 | 0.00 | 0.00 | 0.00 | 46 | 1011.3 |
| 20260906003313 | 95 | 131 | 3.5 | 5.2 | 0.00 | 0.00 | 0.00 | 46 | 1011.3 |
| 20260906003245 | 95 | 66 | 3.5 | 5.2 | 0.00 | 0.00 | 0.00 | 46 | 1011.3 |
| 20260906003215 | 95 | 111 | 3.5 | 5.2 | 0.00 | 0.00 | 0.00 | 46 | 1011.3 |
| 20260906003148 | 95 | 109 | 2.6 | 5.2 | 0.00 | 0.00 | 0.00 | 46 | 1011.3 |
| 20260906003116 | 95 | 128 | 1.7 | 5.2 | 0.00 | 0.00 | 0.00 | 46 | 1011.3 |
| 20260906002812 | 95 | 138 | 2.6 | 5.2 | 0.00 | 0.00 | 0.00 | 46 | 1011.3 |
| 20260906002709 | 95 | 120 | 2.6 | 5.2 | 0.00 | 0.00 | 0.00 | 46 | 1011.3 |
| 20260906002611 | 96 | 144 | 2.6 | 5.2 | 0.00 | 0.00 | 0.00 | 45 | 1011.3 |
| 20260906002511 | 96 | 100 | 3.5 | 5.2 | 0.00 | 0.00 | 0.00 | 45 | 1011.4 |
| 20260906002410 | 96 | 125 | 2.6 | 5.2 | 0.00 | 0.00 | 0.00 | 45 | 1011.3 |
| 20260906002403 | 96 | 121 | 2.6 | 5.2 | 0.00 | 0.00 | 0.00 | 45 | 1011.4 |
| 20260906002311 | 96 | 121 | 3.5 | 5.2 | 0.00 | 0.00 | 0.00 | 45 | 1011.4 |
| 20260906002210 | 96 | 158 | 3.5 | 5.2 | 0.00 | 0.00 | 0.00 | 46 | 1011.3 |
| 20260906002110 | 96 | 133 | 3.5 | 6.1 | 0.00 | 0.00 | 0.00 | 45 | 1011.4 |
| 20260906002009 | 96 | 135 | 3.5 | 6.1 | 0.00 | 0.00 | 0.00 | 45 | 1011.3 |
| 20260906001912 | 96 | 145 | 2.6 | 6.1 | 0.00 | 0.00 | 0.00 | 45 | 1011.4 |
| 20260906001905 | 96 | 127 | 2.6 | 6.1 | 0.00 | 0.00 | 0.00 | 45 | 1011.3 |
| 20260906001810 | 96 | 155 | 2.6 | 6.1 | 0.00 | 0.00 | 0.00 | 45 | 1011.3 |
| 20260906001709 | 96 | 130 | 3.5 | 6.1 | 0.00 | 0.00 | 0.00 | 45 | 1011.4 |
| 20260906001610 | 96 | 142 | 3.5 | 7.8 | 0.00 | 0.00 | 0.00 | 45 | 1011.3 |
| 20260906001509 | 96 | 154 | 2.6 | 7.8 | 0.00 | 0.00 | 0.00 | 45 | 1011.3 |
| 20260906001412 | 96 | 168 | 2.6 | 7.8 | 0.00 | 0.00 | 0.00 | 45 | 1011.3 |
| 20260906001404 | 96 | 178 | 2.6 | 7.8 | 0.00 | 0.00 | 0.00 | 45 | 1011.4 |
| 20260906001310 | 96 | 134 | 3.5 | 7.8 | 0.00 | 0.00 | 0.00 | 44 | 1011.4 |
| 20260906001211 | 96 | 138 | 3.5 | 7.8 | 0.00 | 0.00 | 0.00 | 45 | 1011.3 |
| 20260906001109 | 96 | 127 | 3.5 | 7.8 | 0.00 | 0.00 | 0.00 | 46 | 1011.4 |
| 20260906001011 | 96 | 107 | 3.5 | 7.8 | 0.00 | 0.00 | 0.00 | 45 | 1011.3 |
| 20260906000911 | 96 | 133 | 3.5 | 7.8 | 0.00 | 0.00 | 0.00 | 45 | 1011.3 |
| 20260906000905 | 96 | 142 | 2.6 | 7.8 | 0.00 | 0.00 | 0.00 | 45 | 1011.3 |
| 20260906000809 | 96 | 135 | 4.3 | 7.8 | 0.00 | 0.00 | 0.00 | 44 | 1011.3 |
| 20260906000710 | 96 | 148 | 4.3 | 7.8 | 0.00 | 0.00 | 0.00 | 44 | 1011.3 |
| 20260906000609 | 96 | 144 | 3.5 | 6.1 | 0.00 | 0.00 | 0.00 | 44 | 1011.3 |
| 20260906000510 | 96 | 149 | 3.5 | 6.1 | 0.00 | 0.00 | 0.00 | 44 | 1011.2 |
| 20260906000412 | 96 | 168 | 2.6 | 6.1 | 0.00 | 0.00 | 0.00 | 44 | 1011.2 |
| 20260906000405 | 96 | 158 | 2.6 | 6.1 | 0.00 | 0.00 | 0.00 | 44 | 1011.2 |
| 20260906000306 | 96 | 134 | 3.5 | 6.1 | 0.00 | 0.00 | 0.00 | 45 | 1011.3 |
| 20260906000208 | 96 | 169 | 4.3 | 6.1 | 0.00 | 0.00 | 0.00 | 44 | 1011.3 |
| 20260906000107 | 96 | 128 | 4.3 | 6.1 | 0.00 | 0.00 | 0.00 | 44 | 1011.2 |
| 20260906000006 | 96 | 147 | 4.3 | 6.1 | 0.00 | 0.00 | 0.00 | 44 | 1011.2 |
| 20260905235905 | 96 | 123 | 4.3 | 6.1 | 0.00 | 0.00 | 0.00 | 45 | 1011.2 |
| 20260905235817 | 97 | 134 | 3.5 | 6.1 | 0.00 | 0.00 | 0.00 | 44 | 1011.1 |
| 20260905235808 | 97 | 111 | 3.5 | 6.1 | 0.00 | 0.00 | 0.00 | 44 | 1011.2 |
| 20260905235740 | 97 | 173 | 3.5 | 6.1 | 0.00 | 0.00 | 0.00 | 44 | 1011.2 |
| 20260905235711 | 97 | 147 | 3.5 | 6.1 | 0.00 | 0.00 | 0.00 | 44 | 1011.2 |
| 20260905235642 | 97 | 123 | 3.5 | 6.1 | 0.00 | 0.00 | 0.00 | 44 | 1011.1 |
| 20260905235614 | 97 | 134 | 3.5 | 6.1 | 0.00 | 0.00 | 0.00 | 44 | 1011.1 |
| 20260905235253 | 97 | 141 | 3.5 | 6.1 | 0.00 | 0.00 | 0.00 | 44 | 1011.1 |
| 20260905235153 | 97 | 124 | 3.5 | 7.8 | 0.00 | 0.00 | 0.00 | 43 | 1011.2 |
| 20260905235043 | 97 | 155 | 3.5 | 7.8 | 0.00 | 0.00 | 0.00 | 43 | 1011.1 |
| 20260905234941 | 97 | 128 | 3.5 | 7.8 | 0.00 | 0.00 | 0.00 | 43 | 1011.1 |
| 20260905234850 | 97 | 116 | 3.5 | 7.8 | 0.00 | 0.00 | 0.00 | 43 | 1011.1 |
| 20260905234839 | 97 | 175 | 3.5 | 7.8 | 0.00 | 0.00 | 0.00 | 43 | 1011.1 |
| 20260905234752 | 97 | 154 | 4.3 | 7.8 | 0.00 | 0.00 | 0.00 | 43 | 1011.0 |
| 20260905234744 | 97 | 166 | 3.5 | 7.8 | 0.00 | 0.00 | 0.00 | 43 | 1011.1 |
| 20260905234713 | 97 | 169 | 3.5 | 7.8 | 0.00 | 0.00 | 0.00 | 43 | 1011.0 |
| 20260905234646 | 97 | 173 | 4.3 | 7.8 | 0.00 | 0.00 | 0.00 | 43 | 1011.1 |
| 20260905234618 | 97 | 145 | 4.3 | 7.8 | 0.00 | 0.00 | 0.00 | 43 | 1011.1 |
| 20260905234332 | 97 | 110 | 4.3 | 7.8 | 0.00 | 0.00 | 0.00 | 43 | 1011.0 |
| 20260905234232 | 97 | 123 | 4.3 | 7.8 | 0.00 | 0.00 | 0.00 | 44 | 1011.0 |
| 20260905234133 | 97 | 155 | 3.5 | 7.8 | 0.00 | 0.00 | 0.00 | 44 | 1011.0 |
| 20260905234032 | 97 | 125 | 4.3 | 6.1 | 0.00 | 0.00 | 0.00 | 43 | 1011.0 |
| 20260905233931 | 98 | 140 | 4.3 | 6.1 | 0.00 | 0.00 | 0.00 | 43 | 1011.0 |
| 20260905233852 | 98 | 180 | 4.3 | 6.1 | 0.00 | 0.00 | 0.00 | 43 | 1011.1 |
| 20260905233831 | 98 | 202 | 4.3 | 6.1 | 0.00 | 0.00 | 0.00 | 43 | 1011.1 |
| 20260905233731 | 98 | 158 | 2.6 | 5.2 | 0.00 | 0.00 | 0.00 | 43 | 1011.0 |
| 20260905233633 | 98 | 148 | 3.5 | 4.3 | 0.00 | 0.00 | 0.00 | 43 | 1011.0 |
| 20260905233531 | 98 | 124 | 3.5 | 8.7 | 0.00 | 0.00 | 0.00 | 43 | 1011.1 |
| 20260905233430 | 98 | 130 | 2.6 | 9.6 | 0.00 | 0.00 | 0.00 | 43 | 1011.1 |
| 20260905233351 | 98 | 180 | 2.6 | 9.6 | 0.00 | 0.00 | 0.00 | 43 | 1011.0 |
| 20260905233332 | 98 | 168 | 2.6 | 9.6 | 0.00 | 0.00 | 0.00 | 43 | 1011.0 |
| 20260905233231 | 98 | 89 | 3.5 | 9.6 | 0.00 | 0.00 | 0.00 | 43 | 1011.0 |
| 20260905233132 | 98 | 151 | 3.5 | 9.6 | 0.00 | 0.00 | 0.00 | 44 | 1011.0 |
| 20260905233031 | 98 | 140 | 3.5 | 9.6 | 0.00 | 0.00 | 0.00 | 43 | 1011.0 |
| 20260905232932 | 98 | 124 | 3.5 | 9.6 | 0.00 | 0.00 | 0.00 | 43 | 1011.0 |
| 20260905232846 | 98 | 127 | 2.6 | 9.6 | 0.00 | 0.00 | 0.00 | 43 | 1010.9 |
| 20260905232832 | 98 | 164 | 2.6 | 9.6 | 0.00 | 0.00 | 0.00 | 44 | 1010.9 |
| 20260905232733 | 98 | 148 | 3.5 | 9.6 | 0.00 | 0.00 | 0.00 | 43 | 1011.0 |
| 20260905232632 | 98 | 141 | 5.2 | 9.6 | 0.00 | 0.00 | 0.00 | 43 | 1011.0 |
| 20260905232531 | 98 | 121 | 5.2 | 9.6 | 0.00 | 0.00 | 0.00 | 43 | 1010.9 |
| 20260905232431 | 98 | 137 | 4.3 | 8.7 | 0.00 | 0.00 | 0.00 | 43 | 1011.0 |
| 20260905232346 | 98 | 158 | 4.3 | 8.7 | 0.00 | 0.00 | 0.00 | 43 | 1011.0 |
| 20260905232331 | 98 | 123 | 4.3 | 8.7 | 0.00 | 0.00 | 0.00 | 43 | 1011.0 |
| 20260905232255 | 98 | 176 | 5.2 | 8.7 | 0.00 | 0.00 | 0.00 | 43 | 1011.1 |
| 20260905232242 | 98 | 137 | 3.5 | 8.7 | 0.00 | 0.00 | 0.00 | 44 | 1011.0 |
| 20260905232212 | 98 | 144 | 2.6 | 8.7 | 0.00 | 0.00 | 0.00 | 43 | 1011.1 |
| 20260905232141 | 98 | 173 | 2.6 | 8.7 | 0.00 | 0.00 | 0.00 | 43 | 1011.0 |
| 20260905232111 | 98 | 138 | 3.5 | 8.7 | 0.00 | 0.00 | 0.00 | 43 | 1011.1 |
| 20260905231822 | 98 | 140 | 4.3 | 8.7 | 0.00 | 0.00 | 0.00 | 43 | 1011.1 |
| 20260905231721 | 98 | 128 | 4.3 | 8.7 | 0.00 | 0.00 | 0.00 | 43 | 1011.1 |
| 20260905231621 | 98 | 117 | 3.5 | 8.7 | 0.00 | 0.00 | 0.00 | 43 | 1011.1 |
| 20260905231519 | 98 | 144 | 4.3 | 8.7 | 0.00 | 0.00 | 0.00 | 43 | 1011.1 |
| 20260905231416 | 98 | 179 | 5.2 | 8.7 | 0.00 | 0.00 | 0.00 | 42 | 1011.1 |
| 20260905231341 | 98 | 128 | 5.2 | 8.7 | 0.00 | 0.00 | 0.00 | 42 | 1011.1 |
| 20260905231316 | 98 | 155 | 5.2 | 8.7 | 0.00 | 0.00 | 0.00 | 42 | 1011.1 |
| 20260905231213 | 98 | 188 | 4.3 | 8.7 | 0.00 | 0.00 | 0.00 | 43 | 1011.1 |
| 20260905231112 | 98 | 97 | 4.3 | 8.7 | 0.00 | 0.00 | 0.00 | 43 | 1011.1 |
| 20260905231011 | 98 | 154 | 5.2 | 8.7 | 0.00 | 0.00 | 0.00 | 42 | 1011.1 |
| 20260905230907 | 98 | 131 | 4.3 | 8.7 | 0.00 | 0.00 | 0.00 | 42 | 1011.1 |
| 20260905230839 | 98 | 138 | 3.5 | 7.8 | 0.00 | 0.00 | 0.00 | 43 | 1011.1 |
| 20260905230809 | 98 | 140 | 3.5 | 8.7 | 0.00 | 0.00 | 0.00 | 43 | 1011.1 |
| 20260905230708 | 98 | 148 | 5.2 | 8.7 | 0.00 | 0.00 | 0.00 | 43 | 1011.2 |
| 20260905230609 | 98 | 128 | 4.3 | 8.7 | 0.00 | 0.00 | 0.00 | 42 | 1011.1 |
| 20260905230509 | 98 | 133 | 2.6 | 8.7 | 0.00 | 0.00 | 0.00 | 42 | 1011.1 |
| 20260905230408 | 98 | 131 | 2.6 | 8.7 | 0.00 | 0.00 | 0.00 | 42 | 1011.1 |
| 20260905230341 | 98 | 192 | 2.6 | 8.7 | 0.00 | 0.00 | 0.00 | 42 | 1011.1 |
| 20260905230309 | 98 | 204 | 3.5 | 8.7 | 0.00 | 0.00 | 0.00 | 42 | 1011.1 |
| 20260905230208 | 98 | 171 | 3.5 | 8.7 | 0.00 | 0.00 | 0.00 | 42 | 1011.1 |
| 20260905230107 | 98 | 148 | 2.6 | 8.7 | 0.00 | 0.00 | 0.00 | 44 | 1011.2 |
| 20260905230008 | 98 | 135 | 3.5 | 8.7 | 0.00 | 0.00 | 0.00 | 42 | 1011.1 |
| 20260905225907 | 98 | 157 | 2.6 | 8.7 | 0.00 | 0.00 | 0.00 | 41 | 1011.2 |
| 20260905225839 | 98 | 175 | 1.7 | 8.7 | 0.00 | 0.00 | 0.00 | 43 | 1011.1 |
| 20260905225808 | 98 | 178 | 1.7 | 8.7 | 0.00 | 0.00 | 0.00 | 43 | 1011.1 |
| 20260905225708 | 98 | 196 | 1.7 | 8.7 | 0.00 | 0.00 | 0.00 | 41 | 1011.1 |
| 20260905225608 | 99 | 192 | 2.6 | 8.7 | 0.00 | 0.00 | 0.00 | 42 | 1011.0 |
| 20260905225508 | 99 | 172 | 2.6 | 8.7 | 0.00 | 0.00 | 0.00 | 42 | 1011.1 |
| 20260905225408 | 99 | 141 | 4.3 | 8.7 | 0.00 | 0.00 | 0.00 | 42 | 1011.1 |
| 20260905225337 | 99 | 151 | 4.3 | 8.7 | 0.00 | 0.00 | 0.00 | 41 | 1011.1 |
| 20260905225308 | 99 | 140 | 5.2 | 8.7 | 0.00 | 0.00 | 0.00 | 41 | 1011.1 |
| 20260905225207 | 99 | 158 | 3.5 | 8.7 | 0.00 | 0.00 | 0.00 | 41 | 1011.0 |
| 20260905225107 | 99 | 124 | 2.6 | 8.7 | 0.00 | 0.00 | 0.00 | 41 | 1011.0 |
| 20260905225007 | 99 | 96 | 2.6 | 5.2 | 0.00 | 0.00 | 0.00 | 40 | 1011.0 |
| 20260905224909 | 100 | 123 | 1.7 | 5.2 | 0.00 | 0.00 | 0.00 | 41 | 1011.0 |
| 20260905224837 | 100 | 116 | 1.7 | 5.2 | 0.00 | 0.00 | 0.00 | 41 | 1011.0 |
| 20260905224807 | 100 | 151 | 1.7 | 5.2 | 0.00 | 0.00 | 0.00 | 40 | 1011.0 |
| 20260905224709 | 100 | 75 | 1.7 | 7.8 | 0.00 | 0.00 | 0.00 | 40 | 1011.0 |
| 20260905224607 | 100 | 23 | 1.7 | 7.8 | 0.00 | 0.00 | 0.00 | 40 | 1011.0 |
| 20260905224504 | 100 | 83 | 1.7 | 7.8 | 0.00 | 0.00 | 0.00 | 40 | 1011.1 |
| 20260905224405 | 100 | 138 | 2.6 | 7.8 | 0.00 | 0.00 | 0.00 | 40 | 1011.1 |
| 20260905224336 | 100 | 85 | 2.6 | 7.8 | 0.00 | 0.00 | 0.00 | 40 | 1011.1 |
| 20260905224302 | 100 | 80 | 3.5 | 7.8 | 0.00 | 0.00 | 0.00 | 40 | 1011.1 |
| 20260905224202 | 100 | 124 | 3.5 | 7.8 | 0.00 | 0.00 | 0.00 | 40 | 1011.1 |
| 20260905224103 | 100 | 116 | 3.5 | 7.8 | 0.00 | 0.00 | 0.00 | 40 | 1011.0 |
| 20260905224004 | 100 | 141 | 4.3 | 7.8 | 0.00 | 0.00 | 0.00 | 40 | 1010.9 |